[[{"header":{"parameterUnit":"m.s-1","parameterCategory":1,"la1":30.6,"la2":28.766,"lo1":-90.7593,"lo2":-88.6598,"dy":0.0162,"dx":0.0183,"nx":116,"ny":114,"refTime":"2024-05-22T18:00:00:Z","depth":0,"parameterNumber":2,"parameterNumberName":"U-component_of_WINDS"},"data":[0.0,0.0,0.0,0.0,0.0,0.0,0.0,0.0,0.0,0.0,0.0,0.0,0.0,0.0,0.0,0.0,0.0,0.0,0.0,0.0,0.0,0.0,0.0,0.0,0.0,0.0,0.0,0.0,0.0,0.0,0.0,0.0,0.0,0.0,0.0,0.0,0.0,0.0,0.0,0.0,0.0,0.0,0.0,0.0,0.0,0.0,0.0,0.0,0.0,0.0,0.0,0.0,0.0,0.0,0.0,0.0,0.0,0.0,0.0,0.0,0.0,0.0,0.0,0.0,0.0,0.0,0.0,0.0,0.0,0.0,0.0,0.0,0.0,0.0,0.0,0.0,0.0,0.0,0.0,0.0,0.0,0.0,0.0,0.0,0.0,0.0,0.0,0.0,0.0,0.0,0.0,0.0,0.0,0.0,0.0,0.0,0.0,0.0,0.0,0.0,0.0,0.0,0.0,0.0,0.0,0.0,0.0,0.0,0.0,0.0,0.0,0.0,0.0,0.0,0.0,0.0,0.0,0.0,0.0,0.0,0.0,0.0,0.0,0.0,0.0,0.0,0.0,0.0,0.0,0.0,0.0,0.0,0.0,0.0,0.0,0.0,0.0,0.0,0.0,0.0,0.0,0.0,0.0,0.0,0.0,0.0,0.0,0.0,0.0,0.0,0.0,0.0,0.0,0.0,0.0,0.0,0.0,0.0,0.0,0.0,0.0,0.0,0.0,0.0,0.0,0.0,0.0,0.0,0.0,0.0,0.0,0.0,0.0,0.0,0.0,0.0,0.0,0.0,0.0,0.0,0.0,0.0,0.0,0.0,0.0,0.0,0.0,0.0,0.0,0.0,0.0,0.0,0.0,0.0,0.0,0.0,0.0,0.0,0.0,0.0,0.0,0.0,0.0,0.0,0.0,0.0,0.0,0.0,0.0,0.0,0.0,0.0,0.0,0.0,0.0,0.0,0.0,0.0,0.0,0.0,0.0,0.0,0.0,0.0,0.0,0.0,0.0,0.0,0.0,0.0,0.0,0.0,0.0,0.0,0.0,0.0,0.0,0.0,0.0,0.0,0.0,0.0,0.0,0.0,0.0,0.0,0.0,0.0,0.0,0.0,0.0,0.0,0.0,0.0,0.0,0.0,0.0,0.0,0.0,0.0,0.0,0.0,0.0,0.0,0.0,0.0,0.0,0.0,0.0,0.0,0.0,0.0,0.0,0.0,0.0,0.0,0.0,0.0,0.0,0.0,0.0,0.0,0.0,0.0,0.0,0.0,0.0,0.0,0.0,0.0,0.0,0.0,0.0,0.0,0.0,0.0,0.0,0.0,0.0,0.0,0.0,0.0,0.0,0.0,0.0,0.0,0.0,0.0,0.0,0.0,0.0,0.0,0.0,0.0,0.0,0.0,0.0,0.0,0.0,0.0,0.0,0.0,0.0,0.0,0.0,0.0,0.0,0.0,0.0,0.0,0.0,0.0,0.0,0.0,0.0,0.0,0.0,0.0,0.0,0.0,0.0,0.0,0.0,0.0,0.0,0.0,0.0,0.0,0.0,0.0,0.0,0.0,0.0,0.0,0.0,0.0,0.0,0.0,0.0,0.0,0.0,0.0,0.0,0.0,0.0,0.0,0.0,0.0,0.0,0.0,0.0,0.0,0.0,0.0,0.0,0.0,0.0,0.0,0.0,0.0,0.0,0.0,0.0,0.0,0.0,0.0,0.0,0.0,0.0,0.0,0.0,0.0,0.0,0.0,0.0,0.0,0.0,0.0,0.0,0.0,0.0,0.0,0.0,0.0,0.0,0.0,0.0,0.0,0.0,0.0,0.0,0.0,0.0,0.0,0.0,0.0,0.0,0.0,0.0,0.0,0.0,0.0,0.0,0.0,0.0,0.0,0.0,0.0,0.0,0.0,0.0,0.0,0.0,0.0,0.0,0.0,0.0,0.0,0.0,0.0,0.0,0.0,0.0,0.0,0.0,0.0,0.0,0.0,0.0,0.0,0.0,0.0,0.0,0.0,0.0,0.0,0.0,0.0,0.0,0.0,0.0,0.0,0.0,0.0,0.0,0.0,0.0,0.0,0.0,0.0,0.0,0.0,0.0,0.0,0.0,0.0,0.0,0.0,0.0,0.0,0.0,0.0,0.0,0.0,0.0,0.0,0.0,0.0,0.0,0.0,0.0,0.0,0.0,0.0,0.0,0.0,0.0,0.0,0.0,0.0,0.0,0.0,0.0,0.0,0.0,0.0,0.0,0.0,0.0,0.0,0.0,0.0,0.0,0.0,0.0,0.0,0.0,0.0,0.0,0.0,0.0,0.0,0.0,0.0,0.0,0.0,0.0,0.0,0.0,0.0,0.0,0.0,0.0,0.0,0.0,0.0,0.0,0.0,0.0,0.0,0.0,0.0,0.0,0.0,0.0,0.0,0.0,0.0,0.0,0.0,0.0,0.0,0.0,0.0,0.0,0.0,0.0,0.0,0.0,0.0,0.0,0.0,0.0,0.0,0.0,0.0,0.0,0.0,0.0,0.0,0.0,0.0,0.0,0.0,0.0,0.0,0.0,0.0,0.0,0.0,0.0,0.0,0.0,0.0,0.0,0.0,0.0,0.0,0.0,0.0,0.0,0.0,0.0,0.0,0.0,0.0,0.0,0.0,0.0,0.0,0.0,0.0,0.0,0.0,0.0,0.0,0.0,0.0,0.0,0.0,0.0,0.0,0.0,0.0,0.0,0.0,0.0,0.0,0.0,0.0,0.0,0.0,0.0,0.0,0.0,0.0,0.0,0.0,0.0,0.0,0.0,0.0,0.0,0.0,0.0,0.0,0.0,0.0,0.0,0.0,0.0,0.0,0.0,0.0,0.0,0.0,0.0,0.0,0.0,0.0,0.0,0.0,0.0,0.0,0.0,0.0,0.0,0.0,0.0,0.0,0.0,0.0,0.0,0.0,0.0,0.0,0.0,0.0,0.0,0.0,0.0,0.0,0.0,0.0,0.0,0.0,0.0,0.0,0.0,0.0,0.0,0.0,0.0,0.0,0.0,0.0,0.0,0.0,0.0,0.0,0.0,0.0,0.0,0.0,0.0,0.0,0.0,0.0,0.0,0.0,0.0,0.0,0.0,0.0,0.0,0.0,0.0,0.0,0.0,0.0,0.0,0.0,0.0,0.0,0.0,0.0,0.0,0.0,0.0,0.0,0.0,0.0,0.0,0.0,0.0,0.0,0.0,0.0,0.0,0.0,0.0,0.0,0.0,0.0,0.0,0.0,0.0,0.0,0.0,0.0,0.0,0.0,0.0,0.0,0.0,0.0,0.0,0.0,0.0,0.0,0.0,0.0,0.0,0.0,0.0,0.0,0.0,0.0,0.0,0.0,0.0,0.0,0.0,0.0,0.0,0.0,0.0,0.0,0.0,0.0,0.0,0.0,0.0,0.0,0.0,0.0,0.0,0.0,0.0,0.0,0.0,0.0,0.0,0.0,0.0,0.0,0.0,0.0,0.0,0.0,0.0,0.0,0.0,0.0,0.0,0.0,0.0,0.0,0.0,0.0,0.0,0.0,0.0,0.0,0.0,0.0,0.0,0.0,0.0,0.0,0.0,0.0,0.0,0.0,0.0,0.0,0.0,0.0,0.0,0.0,0.0,0.0,0.0,0.0,0.0,0.0,0.0,0.0,0.0,0.0,0.0,0.0,0.0,0.0,0.0,0.0,0.0,0.0,0.0,0.0,0.0,0.0,0.0,0.0,0.0,0.0,0.0,0.0,0.0,0.0,0.0,0.0,0.0,0.0,0.0,0.0,0.0,0.0,0.0,0.0,0.0,0.0,0.0,0.0,0.0,0.0,0.0,0.0,0.0,0.0,0.0,0.0,0.0,0.0,0.0,0.0,0.0,0.0,0.0,0.0,0.0,0.0,0.0,0.0,0.0,0.0,0.0,0.0,0.0,0.0,0.0,0.0,0.0,0.0,0.0,0.0,0.0,0.0,0.0,0.0,0.0,0.0,0.0,0.0,0.0,0.0,0.0,0.0,0.0,0.0,0.0,0.0,0.0,0.0,0.0,0.0,0.0,0.0,0.0,0.0,0.0,0.0,0.0,0.0,0.0,0.0,0.0,0.0,0.0,0.0,0.0,0.0,0.0,0.0,0.0,0.0,0.0,0.0,0.0,0.0,0.0,0.0,0.0,0.0,0.0,0.0,0.0,0.0,0.0,0.0,0.0,0.0,0.0,0.0,0.0,0.0,0.0,0.0,0.0,0.0,0.0,0.0,0.0,0.0,0.0,0.0,0.0,0.0,0.0,0.0,0.0,0.0,0.0,0.0,0.0,0.0,0.0,0.0,0.0,0.0,0.0,0.0,0.0,0.0,0.0,0.0,0.0,0.0,0.0,0.0,0.0,0.0,0.0,0.0,0.0,0.0,0.0,0.0,0.0,0.0,0.0,0.0,0.0,0.0,0.0,0.0,0.0,0.0,0.0,0.0,0.0,0.0,0.0,0.0,0.0,0.0,0.0,0.0,0.0,0.0,0.0,0.0,0.0,0.0,0.0,0.0,0.0,0.0,0.0,0.0,0.0,0.0,0.0,0.0,0.0,0.0,0.0,0.0,0.0,0.0,0.0,0.0,0.0,0.0,0.0,0.0,0.0,0.0,0.0,0.0,0.0,0.0,0.0,0.0,0.0,0.0,0.0,0.0,0.0,0.0,0.0,0.0,0.0,0.0,0.0,0.0,0.0,0.0,0.0,0.0,0.0,0.0,0.0,0.0,0.0,0.0,0.0,0.0,0.0,0.0,0.0,0.0,0.0,0.0,0.0,0.0,0.0,0.0,0.0,0.0,0.0,0.0,0.0,0.0,0.0,0.0,0.0,0.0,0.0,0.0,0.0,0.0,0.0,0.0,0.0,0.0,0.0,0.0,0.0,0.0,0.0,0.0,0.0,0.0,0.0,0.0,0.0,0.0,0.0,0.0,0.0,0.0,0.0,0.0,0.0,0.0,0.0,0.0,0.0,0.0,0.0,0.0,0.0,0.0,0.0,0.0,0.0,0.0,0.0,0.0,0.0,0.0,0.0,0.0,0.0,0.0,0.0,0.0,0.0,0.0,0.0,0.0,0.0,0.0,0.0,0.0,0.0,0.0,0.0,0.0,0.0,0.0,0.0,0.0,0.0,0.0,0.0,0.0,0.0,0.0,0.0,0.0,0.0,0.0,0.0,0.0,0.0,0.0,0.0,0.0,0.0,0.0,0.0,0.0,0.0,0.0,0.0,0.0,0.0,0.0,0.0,0.0,0.0,0.0,0.0,0.0,0.0,0.0,0.0,0.0,0.0,0.0,0.0,0.0,0.0,0.0,0.0,0.0,0.0,0.0,0.0,0.0,0.0,0.0,0.0,0.0,0.0,0.0,0.0,0.0,0.0,0.0,0.0,0.0,0.0,0.0,0.0,0.0,0.0,0.0,0.0,0.0,0.0,0.0,0.0,0.0,0.0,0.0,0.0,0.0,0.0,0.0,0.0,0.0,0.0,0.0,0.0,0.0,0.0,0.0,0.0,0.0,0.0,0.0,0.0,0.0,0.0,0.0,0.0,0.0,0.0,0.0,0.0,0.0,0.0,0.0,0.0,0.0,0.0,0.0,0.0,0.0,0.0,0.0,0.0,0.0,0.0,0.0,0.0,0.0,0.0,0.0,0.0,0.0,0.0,0.0,0.0,0.0,0.0,0.0,0.0,0.0,0.0,0.0,0.0,0.0,0.0,0.0,0.0,0.0,0.0,0.0,0.0,0.0,0.0,0.0,0.0,0.0,0.0,0.0,0.0,0.0,0.0,0.0,0.0,0.0,0.0,0.0,0.0,0.0,0.0,0.0,0.0,0.0,0.0,0.0,0.0,0.0,0.0,0.0,0.0,0.0,0.0,0.0,0.0,0.0,0.0,0.0,0.0,0.0,0.0,0.0,0.0,0.0,0.0,0.0,0.0,0.0,0.0,0.0,0.0,0.0,0.0,0.0,0.0,0.0,0.0,0.0,0.0,0.0,0.0,0.0,0.0,0.0,0.0,0.0,0.0,0.0,0.0,0.0,0.0,0.0,0.0,0.0,0.0,0.0,0.0,0.0,0.0,0.0,-6.7513,-6.6821,0.0,0.0,0.0,0.0,0.0,0.0,0.0,0.0,0.0,0.0,0.0,0.0,0.0,0.0,0.0,0.0,0.0,0.0,0.0,0.0,0.0,0.0,0.0,-5.9127,-6.0819,-6.2512,-6.232,-6.2313,-6.2794,0.0,0.0,0.0,0.0,0.0,-6.039,-6.0,-5.9609,-5.9219,-5.9095,-5.8998,-5.8928,-5.9452,-5.8776,-5.7062,0.0,0.0,0.0,0.0,0.0,0.0,0.0,0.0,0.0,0.0,0.0,0.0,0.0,0.0,0.0,0.0,0.0,0.0,0.0,0.0,0.0,0.0,0.0,0.0,0.0,0.0,0.0,0.0,0.0,0.0,0.0,0.0,0.0,0.0,0.0,0.0,0.0,0.0,0.0,0.0,0.0,0.0,0.0,0.0,0.0,0.0,0.0,0.0,0.0,0.0,0.0,0.0,0.0,0.0,0.0,0.0,0.0,0.0,0.0,0.0,0.0,0.0,0.0,0.0,0.0,0.0,0.0,0.0,0.0,0.0,-6.8667,-6.7975,0.0,0.0,0.0,0.0,0.0,0.0,0.0,0.0,0.0,0.0,0.0,0.0,0.0,0.0,0.0,0.0,0.0,0.0,0.0,0.0,0.0,-5.5203,-5.7588,-5.9358,-6.1166,-6.3115,-6.2704,-6.2656,-6.3497,-6.2408,0.0,0.0,0.0,-6.1367,-6.0625,-6.0625,-6.0312,-5.9648,-5.9648,-6.0074,-6.0939,-6.1019,-5.9995,-5.8079,-5.6898,0.0,0.0,0.0,0.0,0.0,0.0,0.0,0.0,0.0,0.0,0.0,0.0,0.0,0.0,0.0,0.0,0.0,0.0,0.0,0.0,0.0,0.0,0.0,0.0,0.0,0.0,0.0,0.0,0.0,0.0,0.0,0.0,0.0,0.0,0.0,0.0,0.0,0.0,0.0,0.0,0.0,0.0,0.0,0.0,0.0,0.0,0.0,0.0,0.0,0.0,0.0,0.0,0.0,0.0,0.0,0.0,0.0,0.0,0.0,0.0,0.0,0.0,0.0,-7.3283,-7.2937,-7.2629,-7.2052,-7.2091,-7.2514,-7.0398,-6.9667,-6.9744,-6.7628,0.0,0.0,0.0,0.0,0.0,0.0,0.0,0.0,0.0,0.0,0.0,0.0,0.0,0.0,0.0,0.0,0.0,0.0,0.0,-5.4049,-5.5857,-5.7588,-5.9896,-6.3038,-6.3192,-6.3217,-6.333,-6.3408,0.0,0.0,-6.1614,-6.164,-6.1523,-6.1523,-6.1484,-6.1367,-6.1367,-6.2187,-6.3709,-6.2059,-6.1492,-6.1797,-5.9872,-5.9011,-5.8896,0.0,0.0,0.0,0.0,0.0,0.0,0.0,0.0,0.0,0.0,0.0,0.0,0.0,0.0,0.0,0.0,0.0,0.0,0.0,0.0,0.0,0.0,0.0,0.0,0.0,0.0,0.0,0.0,0.0,0.0,0.0,0.0,0.0,0.0,0.0,0.0,0.0,0.0,0.0,0.0,0.0,-7.0508,-7.082,0.0,0.0,0.0,0.0,0.0,0.0,0.0,0.0,0.0,0.0,0.0,0.0,0.0,-7.4745,-7.5476,-7.6361,-7.6053,-7.4553,-7.5976,-7.5822,-7.4399,-7.5053,-7.4976,-7.4361,-7.4014,0.0,-7.0706,-7.0398,0.0,0.0,0.0,0.0,0.0,0.0,0.0,0.0,0.0,0.0,0.0,0.0,0.0,0.0,0.0,0.0,0.0,0.0,0.0,0.0,0.0,-5.9127,-6.1396,-6.382,-6.41,-6.3979,-6.361,-6.3819,-6.3456,-6.2296,-6.2846,-6.3164,-6.3164,-6.3164,-6.3398,-6.3906,-6.4375,-6.5273,-6.6484,-6.5858,-6.5537,-6.5408,-6.4296,-6.2166,-5.9435,-5.8242,0.0,0.0,0.0,0.0,0.0,0.0,0.0,0.0,0.0,0.0,0.0,0.0,0.0,0.0,0.0,0.0,0.0,0.0,0.0,0.0,0.0,0.0,0.0,0.0,0.0,0.0,0.0,0.0,0.0,0.0,0.0,0.0,0.0,0.0,0.0,0.0,0.0,0.0,0.0,-7.0547,-7.1992,-7.1484,-7.2187,-7.2539,0.0,0.0,0.0,0.0,0.0,0.0,0.0,0.0,0.0,-7.5581,-7.5961,-7.6322,-7.6746,-7.7553,-7.7592,-7.6823,-7.7592,-7.7553,-7.6861,-7.7246,-7.7207,-7.6823,-7.6361,-7.5245,-7.363,-7.1706,-7.0475,-6.9667,0.0,0.0,0.0,0.0,-6.6744,-6.6167,0.0,0.0,0.0,0.0,0.0,0.0,0.0,0.0,0.0,0.0,0.0,0.0,-5.8396,-6.0512,-6.2512,-6.4436,-6.4721,-6.4593,-6.4076,-6.4086,-6.387,-6.3316,-6.371,-6.4062,-6.4297,-6.4531,-6.5078,-6.5937,-6.6797,-6.7655,-6.8471,-6.8768,-6.8546,-6.7938,-6.7575,-6.5089,-6.1089,-6.0012,-5.8434,-5.6511,0.0,0.0,0.0,0.0,0.0,0.0,0.0,0.0,0.0,0.0,0.0,0.0,0.0,0.0,0.0,0.0,0.0,0.0,0.0,0.0,0.0,0.0,0.0,0.0,0.0,0.0,0.0,0.0,0.0,0.0,0.0,0.0,0.0,0.0,0.0,0.0,0.0,-7.1797,-7.2969,-7.2109,-7.3164,-7.3555,0.0,0.0,0.0,0.0,0.0,0.0,-7.6525,-7.7067,-7.7509,-7.791,-7.8426,-7.8633,-7.8592,-7.9169,-7.9246,-7.8823,-7.9054,-7.9054,-7.8823,-7.9054,-7.9054,-7.8784,-7.7938,-7.713,-7.6092,-7.3091,-7.1745,-7.1437,-6.9937,-6.8821,-6.8129,-6.8821,-6.8513,-6.7975,0.0,0.0,0.0,0.0,0.0,0.0,0.0,0.0,0.0,0.0,0.0,-5.6665,-5.9165,-6.0281,-6.1858,-6.4397,-6.4721,-6.4802,-6.4733,-6.4343,-6.4079,-6.4049,-6.3431,-6.3437,-6.4297,-6.5117,-6.5976,-6.6836,-6.7695,-6.8468,-6.9153,-6.8995,-6.8777,-6.8539,-6.8396,-6.7321,-6.5474,-6.3782,-6.1589,-5.9165,-5.7484,0.0,0.0,0.0,0.0,0.0,0.0,0.0,0.0,0.0,0.0,0.0,0.0,0.0,0.0,0.0,0.0,0.0,0.0,0.0,0.0,0.0,0.0,0.0,0.0,0.0,0.0,0.0,0.0,0.0,0.0,0.0,0.0,0.0,0.0,0.0,0.0,0.0,0.0,-7.2109,-7.4219,0.0,0.0,0.0,0.0,-7.582,-7.6562,-7.769,-7.9115,-7.9221,-8.0221,-8.2294,-8.2425,-8.229,-8.2054,-8.2093,-8.1323,-7.9746,-8.0554,-8.0554,-7.9746,-8.0592,-8.0516,-7.9708,-7.8823,-7.7977,-7.7092,-7.5245,-7.4053,-7.3283,-7.236,-7.1475,-7.0706,-7.0744,-7.0244,-6.9706,0.0,0.0,0.0,0.0,0.0,-5.1397,-5.1836,-5.328,-5.4587,-5.5203,-5.7434,-5.9319,-6.0242,-6.2089,-6.3628,-6.4512,-6.5344,-6.5591,-6.504,-6.5039,-6.507,-6.507,-6.4804,-6.5351,-6.6797,-6.7109,-6.7969,-6.9336,-6.9648,-7.0148,-7.0827,-7.0664,-7.0479,-7.0271,-7.0092,-6.9398,-6.8205,-6.5936,-6.382,-6.1743,-5.9511,-5.7434,0.0,0.0,0.0,0.0,0.0,0.0,0.0,0.0,0.0,0.0,0.0,0.0,0.0,0.0,0.0,0.0,0.0,0.0,0.0,0.0,0.0,0.0,0.0,0.0,0.0,0.0,0.0,0.0,0.0,0.0,0.0,0.0,0.0,0.0,0.0,0.0,0.0,-7.4531,-7.6328,0.0,-7.5937,-7.664,-7.7539,-7.8281,-7.914,-8.0305,-8.1844,-8.2268,-8.2792,-8.3456,-8.3332,-8.294,-8.2324,-8.2285,-8.1747,-8.0631,-8.0939,-8.0939,-8.0669,-8.0977,-8.0939,-8.0554,-7.9131,-7.8323,-7.7938,-7.6245,-7.5053,-7.4207,-7.336,-7.286,-7.2514,-7.1937,-7.1552,-7.1283,0.0,0.0,0.0,0.0,-5.0846,-5.2,-5.2269,-5.4241,-5.6011,-5.6857,-5.9204,-6.1127,-6.1973,-6.3589,-6.4705,-6.5013,-6.5809,-6.6086,-6.5563,-6.5526,-6.566,-6.6015,-6.6328,-6.7031,-6.8164,-6.875,-6.9609,-7.0703,-7.0934,-7.1258,-7.1633,-7.1478,-7.1299,-7.1097,-7.0966,-7.0591,-6.9975,-6.8282,-6.6282,-6.4012,-6.2012,-6.0396,-5.8858,0.0,0.0,0.0,0.0,0.0,0.0,0.0,0.0,0.0,0.0,0.0,0.0,0.0,0.0,0.0,0.0,0.0,0.0,0.0,0.0,0.0,0.0,0.0,0.0,0.0,0.0,0.0,0.0,0.0,0.0,0.0,0.0,0.0,0.0,-7.4554,-7.6125,-7.5813,-7.7889,-7.8984,-7.8125,-7.8828,-7.9805,-8.0937,-8.1836,-8.2844,-8.4064,-8.4524,-8.4768,-8.4761,-8.4632,-8.4134,-8.317,-8.2901,-8.2324,-8.1516,-8.1246,-8.1093,-8.1093,-8.1093,-8.1093,-8.1016,-7.9246,-7.8477,-7.8361,-7.6669,-7.5668,-7.5053,-7.4245,-7.3899,-7.3822,-7.2937,-7.2437,-7.2091,0.0,0.0,0.0,-4.9504,-5.0858,-5.2231,-5.3087,-5.4664,-5.6665,-5.9165,-6.0319,-6.1858,-6.432,-6.4666,-6.5013,-6.582,-6.6035,-6.617,-6.6374,-6.5702,-6.5789,-6.6836,-6.7773,-6.8242,-6.8281,-6.9883,-7.0703,-7.0742,-7.1375,-7.1633,-7.151,-7.1299,-7.1097,-7.0898,-7.0898,-7.0898,-7.0898,-7.0898,-6.9013,-6.5974,-6.5089,-6.4166,-6.3,0.0,0.0,0.0,0.0,0.0,0.0,0.0,0.0,0.0,0.0,0.0,0.0,0.0,0.0,0.0,0.0,0.0,0.0,0.0,0.0,0.0,0.0,0.0,0.0,0.0,0.0,0.0,0.0,0.0,0.0,0.0,0.0,0.0,-7.2716,-7.5206,-7.6646,-7.5865,-7.8894,-8.0703,-7.9883,-8.2109,-8.3633,-8.3672,-8.4453,-8.5188,-8.5821,-8.5812,-8.6026,-8.6505,-8.6506,-8.5987,-8.4901,-8.4055,-8.317,-8.2285,-8.1477,-8.1093,-8.1093,-8.1093,-8.1093,-8.1016,-7.9246,-7.8477,-7.8361,-7.6669,-7.6015,-7.5938,-7.5091,-7.4745,-7.463,-7.3822,-7.2937,-7.2052,0.0,0.0,-4.9589,-4.9885,-5.1545,-5.2933,-5.3164,-5.5703,-5.805,-5.9319,-6.1858,-6.382,-6.4512,-6.5667,-6.6282,-6.5936,-6.6035,-6.617,-6.6374,-6.5702,-6.5789,-6.6836,-6.8188,-6.928,-7.0,-7.0469,-7.0933,-7.1448,-7.1624,-7.1544,-7.128,-7.1213,-7.1097,-7.0898,-7.0898,-7.0898,-7.0898,-7.0898,-7.036,-6.9398,-6.7936,-6.6474,-6.5013,0.0,0.0,0.0,0.0,0.0,0.0,0.0,0.0,0.0,0.0,0.0,0.0,0.0,0.0,0.0,0.0,0.0,0.0,0.0,0.0,0.0,0.0,0.0,0.0,0.0,0.0,0.0,0.0,0.0,0.0,0.0,-7.1998,-7.3664,-7.53,-7.6843,-7.8207,-7.9178,-8.0847,-8.2109,-8.25,-8.3164,-8.4101,-8.539,-8.5703,-8.6125,-8.6718,-8.6617,-8.6502,-8.6492,-8.6303,-8.5783,-8.4901,-8.4055,-8.317,-8.2285,-8.1477,-8.1093,-8.1093,-8.1093,-8.1093,-8.1016,-7.9246,-7.8477,-7.8361,-7.6669,-7.6015,-7.5976,-7.5745,-7.563,-7.5476,-7.4053,-7.2552,-7.1206,0.0,-4.9218,-4.9617,-5.0012,-5.1831,-5.3318,-5.3703,-5.6357,-5.8858,-6.0396,-6.2627,-6.432,-6.5051,-6.6013,-6.6244,-6.5436,-6.6067,-6.6332,-6.5868,-6.6209,-6.6772,-6.7682,-6.9039,-7.0033,-7.0613,-7.0964,-7.1304,-7.1689,-7.1555,-7.1373,-7.1211,-7.1092,-7.1016,-7.0898,-7.0898,-7.0898,-7.0898,-7.0898,-7.0898,-7.0821,-6.986,-6.8859,-6.7821,-6.6244,-6.5551,-6.5154,-6.3128,-6.2704,-6.2959,-6.161,0.0,0.0,0.0,0.0,0.0,0.0,0.0,0.0,0.0,0.0,0.0,0.0,0.0,0.0,0.0,0.0,0.0,0.0,0.0,0.0,0.0,0.0,0.0,0.0,-7.3572,-7.5306,-7.7141,-7.8092,-7.911,-8.043,-8.1927,-8.3203,-8.4062,-8.4453,-8.5273,-8.664,-8.6635,-8.6675,-8.6952,-8.68,-8.6572,-8.6346,-8.6184,-8.5901,-8.5401,-8.4209,-8.3362,-8.2824,-8.167,-8.1093,-8.1093,-8.1093,-8.1093,-8.1016,-7.9246,-7.8477,-7.8361,-7.6669,-7.6015,-7.6015,0.0,0.0,0.0,0.0,-7.2322,-7.1398,0.0,-4.9249,-4.9669,-5.0214,-5.193,-5.351,-5.4472,-5.6703,-5.9204,-6.1793,-6.2897,-6.4051,-6.559,-6.582,-6.5551,-6.4666,-6.6051,-6.6532,0.0,-6.7146,-6.8403,-6.902,-7.004,-7.0606,-7.0618,-7.1324,-7.1667,-7.1655,-7.1356,-7.1201,-7.1169,-7.0966,-7.0898,-7.0898,-7.0898,-7.0898,-7.0898,-7.0898,-7.0898,-7.0898,-7.0898,-7.0898,-7.0667,-6.8398,-6.8013,-6.8359,-6.6013,-6.5243,-6.5204,-6.444,0.0,0.0,0.0,0.0,0.0,0.0,0.0,0.0,0.0,0.0,0.0,0.0,0.0,0.0,0.0,0.0,0.0,0.0,0.0,0.0,0.0,0.0,0.0,0.0,-7.5014,-7.663,-7.84,-7.9022,-7.961,-8.0442,-8.2326,-8.3906,-8.4804,-8.5703,-8.6562,-8.7382,-8.7228,-8.7003,-8.6791,-8.6594,0.0,0.0,0.0,-8.6094,-8.6094,-8.4439,-8.3593,-8.3555,-8.19,-8.1093,-8.1093,-8.1093,-8.1093,-8.1016,-7.9246,-7.8477,-7.8361,-7.6669,-7.6015,-7.6015,-7.6015,-7.5399,-7.4399,-7.2899,-7.2206,-7.1937,0.0,-4.9445,-4.9941,-5.1305,-5.2469,-5.3703,-5.5241,-5.7088,-5.9204,-6.1793,-6.3397,-6.4474,-6.482,-6.5474,-6.5551,-6.4666,-6.5551,-6.6634,0.0,0.0,-6.9623,-6.9947,-7.0657,-7.114,-7.1297,-7.1452,-7.1464,-7.1287,-7.1233,-7.1142,-7.0966,-7.0925,-7.0898,-7.0898,-7.0898,-7.0898,-7.0898,-7.0898,-7.0898,-7.0898,-7.0898,-7.0898,-7.086,-7.036,-7.0283,-7.0283,-6.9129,-6.9129,-6.9565,-6.8771,-6.7541,-6.6322,-6.6371,-6.4878,0.0,0.0,0.0,0.0,0.0,0.0,0.0,0.0,0.0,0.0,0.0,0.0,0.0,0.0,0.0,0.0,0.0,0.0,0.0,-7.5091,-7.5784,-7.6823,-7.9208,-7.9752,-8.0311,-8.1314,-8.2567,-8.3762,-8.4804,-8.5703,-8.648,-8.7137,-8.7116,-8.6955,-8.656,-8.6517,-8.6401,-8.611,-8.6094,-8.6094,-8.6094,-8.4439,-8.3593,-8.3555,-8.19,0.0,-8.1093,-8.1093,-8.1093,-8.1016,-7.9246,-7.8477,-7.8361,-7.6669,-7.6015,-7.6015,-7.6015,-7.5053,-7.3707,-7.336,-7.236,-7.1129,-5.0597,-5.0749,-5.1144,-5.2329,-5.3587,-5.4895,-5.6175,-5.778,-5.9665,-6.1831,-6.3166,-6.3935,-6.3935,-6.4743,-6.4743,-6.3474,-6.459,0.0,0.0,-6.9607,-7.0078,-7.0542,-7.0979,-7.1242,-7.1361,-7.137,-7.1308,-7.1221,-7.1108,-7.0991,-7.0898,-7.0898,-7.0898,-7.0898,-7.0898,-7.0898,-7.0898,-7.0898,-7.0898,-7.0898,-7.0898,-7.0898,-7.0898,-7.0898,-7.0898,-7.086,-7.0437,-7.0552,-7.0821,-7.0437,-6.9489,-6.8482,-6.8482,-6.7163,-6.5366,0.0,0.0,0.0,0.0,0.0,0.0,0.0,0.0,0.0,0.0,0.0,0.0,0.0,0.0,-7.186,-7.2706,0.0,-7.5284,-7.6976,-7.763,-7.8361,-7.9631,-8.0603,-8.1285,-8.1514,-8.2839,-8.395,-8.4486,-8.5738,-8.6609,-8.6929,-8.688,-8.671,-8.6492,-8.6387,-8.6238,-8.6094,-8.6094,-8.5901,-8.5517,-8.4247,-8.3362,-8.2939,-8.1708,-8.1093,-8.1093,-8.1093,-8.0862,-8.04,-7.9054,-7.8246,-7.7784,-7.6515,-7.6015,-7.5976,-7.5515,-7.4591,-7.3437,-7.3014,-7.2014,-7.0898,-5.1914,-5.2386,-5.2698,-5.3327,-5.4703,-5.6049,-5.7099,-5.8511,-6.0127,-6.187,-6.2666,-6.3089,-6.3089,-6.3705,-6.3705,-6.2666,0.0,0.0,0.0,-6.9946,-7.0394,-7.1104,-7.1321,-7.1485,-7.164,-7.164,-7.1562,-7.1407,-7.1236,-7.1052,-7.0898,-7.0898,-7.0898,-7.0898,-7.0898,-7.0898,-7.0898,-7.0898,-7.0898,-7.0898,-7.0898,-7.0898,-7.0898,-7.0898,-7.0898,-7.0898,-7.0898,-7.0783,-7.0706,-7.086,-7.036,-6.9744,-6.9898,-6.8986,-6.7684,-6.6864,-6.6586,0.0,0.0,0.0,0.0,0.0,0.0,0.0,0.0,-7.0552,-7.1091,-7.2629,-7.3745,-7.4861,-7.6015,-7.6938,-7.7784,-7.8631,-7.9477,-8.0054,-8.0054,-8.1362,-8.21,-8.1633,-8.325,-8.4393,-8.4435,-8.5883,-8.68,-8.6756,-8.6583,-8.6494,-8.6416,-8.6208,-8.6094,-8.6094,-8.6094,-8.5709,-8.4901,-8.4055,-8.317,-8.2285,-8.1477,-8.1093,-8.1093,-8.1093,-8.0631,-7.9746,-7.8707,-7.7784,-7.6976,-7.6284,-7.6015,-7.5899,-7.5053,-7.4207,-7.3399,-7.2514,-7.1629,-7.0898,0.0,-5.3692,-5.4253,-5.4337,-5.5088,-5.6242,-5.7896,-5.8934,-6.0127,-6.187,-6.2178,-6.2216,-6.2216,-6.2332,-6.2897,-6.4205,0.0,0.0,-6.9552,-7.04,-7.117,-7.2014,-7.2094,-7.2454,-7.3224,-7.3224,-7.2877,-7.2082,-7.208,-7.1668,-7.0898,-7.0898,-7.0898,-7.0898,-7.0898,-7.0898,-7.0898,-7.0898,-7.0898,-7.0898,-7.0898,-7.0898,-7.0898,-7.0898,-7.0898,-7.0898,-7.0898,-7.0437,-6.9937,-7.0667,-7.036,-6.9821,-7.0552,-7.0156,-6.9333,-6.8752,-6.8066,-6.7336,-6.6854,-6.7067,-6.7804,-6.9246,-6.9533,-7.0092,0.0,-7.363,-7.4399,-7.5361,-7.6823,-7.7784,-7.7246,-7.7823,-7.8631,-7.9515,-8.04,-8.0939,-8.0939,-8.1747,-8.2262,-8.2194,-8.3888,-8.5169,-8.5352,-8.6233,-8.6729,-8.6553,-8.6505,-8.6376,-8.6153,-8.611,-8.6094,-8.6094,-8.6094,-8.5709,-8.4901,-8.4055,-8.317,-8.2285,-8.1477,-8.1093,-8.1093,-8.1093,-8.0631,-7.9708,-7.813,-7.6938,-7.613,-7.6053,-7.6015,-7.5899,-7.5053,-7.4207,-7.3399,-7.2514,-7.1629,-7.0898,0.0,-5.4258,-5.4821,-5.5796,-5.6665,-5.7627,-5.8819,-5.9704,-6.0512,-6.1243,-6.1793,-6.1908,-6.1408,-6.1331,-6.2012,-6.3705,-6.5397,0.0,-6.9552,-7.0937,-7.2052,-7.2937,-7.2976,-7.3129,-7.35,-7.3514,-7.3091,-7.2206,-7.2206,-7.1745,-7.0898,-7.0898,-7.0898,-7.0898,-7.0898,-7.0898,-7.0898,-7.0898,-7.0898,-7.0898,-7.0898,-7.0898,-7.0898,-7.0898,-7.0591,-7.0206,-7.0206,-6.9975,0.0,-6.9513,-6.9206,-6.9013,-6.936,-6.9258,-6.9021,-6.8828,-6.894,-6.915,-6.9344,-6.9467,-6.9789,-7.0937,-7.1197,-7.1822,-7.4361,-7.5207,-7.5822,-7.7169,-7.84,-7.9323,-7.9477,-8.0169,-8.0977,-8.1862,-8.2324,-8.2554,-8.2554,-8.2824,-8.3054,-8.3054,-8.3749,-8.4488,-8.5101,-8.5888,-8.6376,-8.6283,-8.6283,-8.6208,-8.6094,-8.6094,-8.6094,-8.6094,-8.6094,-8.5478,-8.417,-8.3785,-8.2939,-8.1593,-8.1246,-8.1093,-8.1093,-8.1093,-8.0362,-7.8938,-7.7284,-7.6322,-7.6015,-7.6015,-7.6015,-7.5861,-7.4514,-7.3822,-7.3399,-7.2514,-7.1629,-7.0898,0.0,-5.4427,-5.5142,-5.6741,-5.7511,-5.828,-5.9358,-6.0242,-6.0781,-6.0781,-6.137,-6.1512,-6.0858,-6.0781,-6.1473,-6.3166,-6.4897,-6.6859,-6.9206,-7.0898,-7.2322,-7.3437,-7.3514,-7.3707,-7.4168,-7.4207,-7.3668,-7.2552,-7.2552,-7.1975,-7.0898,-7.0898,-7.0898,-7.0898,-7.0898,-7.0898,-7.0898,-7.0898,-7.0898,-7.0898,-7.0898,-7.0898,-7.0898,-7.0667,-7.0206,-6.9706,-6.9706,-6.9398,-6.8898,-6.8244,-6.8052,-6.8065,-6.8115,-6.8331,-6.8675,-6.9071,-6.9862,-7.0694,-7.1159,-7.1319,-7.148,-7.2041,-7.2552,-7.336,-7.5207,-7.6015,-7.6707,-7.79,-7.9054,-7.9977,-8.0631,-8.1593,-8.2516,-8.3131,-8.3632,-8.3862,-8.3632,-8.3593,-8.3593,-8.3593,-8.3401,-8.3593,-8.4478,-8.5286,-8.5863,-8.6094,-8.6094,-8.6094,-8.6094,-8.6094,-8.6094,-8.6094,-8.6094,-8.5286,-8.3593,-8.3593,-8.2747,-8.1093,-8.1093,-8.1093,-8.1093,-8.0592,-7.9554,-7.8092,-7.663,-7.6015,-7.6015,-7.6015,-7.6015,-7.5822,-7.4168,-7.3514,-7.336,-7.2245,-7.1437,-7.0898,0.0,0.0,-5.5479,-5.6774,-5.7022,-5.7599,-5.9242,-6.0242,-6.0781,-6.0781,-6.0819,-6.0819,-6.0781,-6.0781,-6.1473,-6.3166,-6.4897,-6.6628,-6.8321,-7.0014,-7.1706,-7.3423,-7.3514,-7.4245,-7.5899,-7.5938,-7.513,-7.3476,-7.3476,-7.2591,-7.0898,-7.0898,-7.0898,-7.0898,-7.0898,-7.0898,-7.0898,-7.0898,-7.0898,-7.0898,-7.0898,-7.0898,-7.0821,-7.0014,-6.9706,-6.9706,-6.9706,-6.859,-6.7167,-6.7128,-6.7128,-6.7153,-6.7364,-6.7987,-6.8819,-7.0094,-7.1019,-7.1624,-7.1524,-7.1974,-7.2413,-7.2263,-7.3437,-7.463,-7.4707,-7.6053,-7.7284,-7.7323,-7.8669,-7.9823,-7.9823,-8.1208,-8.2324,-8.2324,-8.3747,-8.4555,-8.3708,-8.3593,-8.3593,-8.3593,-8.2862,-8.267,-8.3555,-8.4439,-8.5247,-8.6055,-8.6094,-8.6094,-8.6094,-8.6094,-8.6094,-8.6094,-8.6094,-8.5286,-8.3593,-8.3593,-8.2747,-8.1093,-8.1093,-8.1093,-8.1054,-7.9361,-7.813,-7.7284,-7.6399,-7.6015,-7.6015,-7.6015,-7.6015,-7.5822,-7.4168,-7.3514,-7.3283,-7.1591,-7.0937,-7.0898,0.0,0.0,0.0,-5.835,-5.8665,-5.905,-6.0204,-6.0127,-6.0165,-6.0704,-6.1781,0.0,0.0,0.0,0.0,0.0,-6.5243,-6.6859,-6.9129,-7.0283,-7.1668,-7.3423,-7.3514,-7.4014,-7.513,-7.463,-7.4053,-7.3514,-7.2937,-7.2052,-7.0898,-7.0898,-7.0898,-7.0898,-7.0898,-7.0898,-7.0898,-7.0898,-7.1245,-7.1706,-7.1129,-7.1245,-7.1668,-7.0821,-6.9821,-6.8783,0.0,-6.759,-6.6936,-6.582,-6.589,-6.6453,-6.6506,-6.6897,-6.7564,-6.917,-7.0442,-7.1489,-7.2025,-7.2231,-7.2547,-7.3581,-7.4284,-7.5014,-7.6169,-7.6861,-7.7438,-7.7977,-7.8554,-7.9092,-7.9708,-8.0746,-8.1862,-8.2978,-8.4132,-8.4978,-8.5209,-8.4786,-8.4247,-8.367,-8.2824,-8.2401,-8.2708,-8.3516,-8.4401,-8.5247,-8.5286,-8.5555,-8.6055,-8.6094,-8.6094,-8.6094,-8.5593,-8.4747,-8.3593,-8.3016,-8.217,-8.1093,-8.1093,-8.0785,-8.0208,-7.9015,-7.8054,-7.7246,-7.6361,-7.6015,-7.6015,-7.6015,-7.5668,-7.5014,-7.3937,-7.3168,-7.2514,-7.1321,-7.0898,-7.0898,0.0,0.0,0.0,0.0,0.0,0.0,0.0,0.0,0.0,0.0,0.0,0.0,0.0,0.0,0.0,0.0,0.0,-6.6397,-6.8629,0.0,-7.0437,-7.2476,-7.2591,-7.2976,-7.3783,-7.3283,-7.2899,-7.2591,-7.2014,-7.1437,-7.0898,-7.0898,-7.0898,-7.0898,-7.0898,-7.0898,-7.0898,-7.0898,-7.1206,-7.1668,-7.0821,-7.0821,-7.1206,-7.036,-6.936,0.0,0.0,-6.6859,-6.6782,-6.482,-6.4991,-6.6018,-6.608,-6.6903,-6.8115,-6.9245,-7.0346,-7.1376,-7.2256,-7.2583,-7.2976,-7.4361,-7.4938,-7.5476,-7.6592,-7.6823,-7.6899,-7.7092,-7.74,-7.7784,-7.8361,-7.94,-8.0823,-8.2785,-8.3862,-8.4824,-8.594,-8.5401,-8.4709,-8.4132,-8.3285,-8.2747,-8.2747,-8.2978,-8.3478,-8.4362,-8.4978,-8.544,-8.567,-8.594,-8.6094,-8.6094,-8.5324,-8.4478,-8.3593,-8.2747,-8.19,-8.1093,-8.0785,-8.0169,-7.9323,-7.8438,-7.763,-7.6784,-7.6245,-7.6015,-7.6015,-7.6015,-7.5476,-7.463,-7.3822,-7.2976,-7.2091,-7.1206,-7.0898,-7.0898,0.0,0.0,0.0,0.0,0.0,0.0,0.0,0.0,0.0,0.0,0.0,0.0,0.0,0.0,0.0,0.0,0.0,0.0,-6.6974,0.0,0.0,-7.0744,-7.0821,-7.1283,-7.2168,-7.2168,-7.1745,-7.0975,-7.0937,-7.0898,-7.0898,-7.0898,-7.0898,-7.0898,-7.0898,-7.0898,-7.0898,-7.086,-7.086,-7.0821,-6.9975,-6.9667,-6.9667,-6.8821,0.0,0.0,-6.659,-6.6513,-6.6782,-6.4282,-6.4602,-6.6061,-6.6244,-6.8131,-7.0251,-7.029,-7.0801,-7.15,-7.239,-7.3072,-7.3783,-7.4553,-7.5361,-7.5938,-7.5938,-7.5899,-7.563,-7.4822,-7.5284,-7.5861,-7.5861,-7.7284,-7.9246,-8.1785,-8.2978,-8.417,-8.5863,-8.544,-8.4939,-8.4901,-8.417,-8.3632,-8.3593,-8.2862,-8.267,-8.3478,-8.5016,-8.5593,-8.4863,-8.5555,-8.5978,-8.5978,-8.5209,-8.4362,-8.3516,-8.267,-8.1823,-8.1016,-8.0208,-7.9323,-7.84,-7.763,-7.6823,-7.6015,-7.6015,-7.6015,-7.6015,-7.5938,-7.5438,-7.4553,-7.3745,-7.2899,-7.2014,-7.1206,-7.0898,-7.0898,0.0,0.0,0.0,0.0,0.0,0.0,0.0,0.0,0.0,0.0,0.0,0.0,0.0,0.0,0.0,0.0,0.0,0.0,-6.7013,0.0,0.0,0.0,0.0,-7.0706,-7.2168,-7.1552,-7.1437,0.0,-7.1206,-7.0898,-7.0898,-7.0898,-7.0898,-7.0898,-7.0898,-7.0898,-7.086,-7.0244,-7.036,-7.0783,0.0,-6.9475,-7.0514,0.0,0.0,0.0,-6.8167,-6.7898,-6.7782,-6.5897,-6.6441,-6.8052,-6.8877,-6.9994,-7.1058,-7.1678,-7.2341,-7.3098,-7.3908,-7.4277,-7.4591,-7.5476,-7.5361,-7.5014,-7.5014,-7.4591,-7.4091,-7.386,-7.3976,-7.413,-7.413,-7.6053,-7.8207,-8.0131,-8.2208,-8.417,-8.5863,-8.594,-8.5555,-8.4978,-8.4709,-8.4324,-8.367,-8.3401,-8.3093,-8.267,-8.3016,-8.3478,-8.3901,-8.4132,-8.4247,-8.4247,-8.3401,-8.2862,-8.2631,-8.1823,-8.0977,-8.0131,-7.99,-7.9015,-7.7592,-7.74,-7.6823,-7.6015,-7.6015,-7.6015,-7.5938,-7.5284,-7.4553,-7.3707,-7.286,-7.2014,-7.1206,-7.0975,-7.0898,-7.0898,0.0,0.0,0.0,0.0,0.0,0.0,0.0,0.0,0.0,0.0,0.0,0.0,0.0,0.0,0.0,0.0,0.0,0.0,0.0,0.0,0.0,0.0,0.0,-6.959,-7.0514,-7.0437,-7.0244,0.0,0.0,0.0,-7.036,-6.9975,-7.0014,-7.036,-6.9975,-6.9821,-6.9783,-6.9321,0.0,0.0,0.0,0.0,0.0,0.0,0.0,-6.9629,-6.9167,-6.8975,-6.8898,-6.8282,-6.8757,-6.9722,-7.03,-7.1291,-7.2312,-7.2737,-7.3189,-7.3668,-7.4476,-7.4707,-7.4899,-7.5784,-7.5361,-7.4707,-7.4707,-7.4091,-7.3399,-7.3014,-7.2937,-7.2937,-7.2937,-7.4707,-7.6976,-7.94,-8.1631,-8.3747,-8.5824,-8.6094,-8.594,-8.5478,-8.544,-8.5247,-8.4747,-8.4362,-8.3824,-8.2939,-8.2862,-8.2901,-8.3016,-8.3401,-8.3593,-8.3593,-8.2747,-8.2131,-8.1785,-8.0939,-8.0285,-7.9785,-7.9054,-7.8207,-7.7284,-7.6899,-7.6476,-7.6015,-7.6015,-7.6015,-7.5938,-7.5053,-7.4245,-7.3399,-7.2552,-7.1668,-7.0898,-7.0898,-7.0898,-7.0898,0.0,0.0,0.0,0.0,0.0,0.0,0.0,0.0,0.0,0.0,0.0,0.0,0.0,0.0,0.0,0.0,0.0,0.0,0.0,0.0,0.0,0.0,-6.8462,-6.85,-6.8744,-6.936,-6.8975,-6.7436,0.0,0.0,0.0,0.0,0.0,0.0,0.0,0.0,0.0,0.0,0.0,0.0,0.0,0.0,0.0,0.0,0.0,-6.986,-6.986,-6.986,-6.9975,-7.0667,-7.0975,-7.1091,-7.1321,-7.2437,-7.3707,-7.3937,-7.3937,-7.4014,-7.4822,-7.4976,-7.5053,-7.5822,-7.5245,-7.4553,-7.4553,-7.3822,-7.2937,-7.2168,-7.2014,-7.2014,-7.2014,-7.3476,-7.5745,-7.8938,-8.0977,-8.3016,-8.5593,-8.594,-8.5978,-8.6094,-8.6094,-8.6094,-8.6094,-8.5286,-8.4401,-8.367,-8.3401,-8.2939,-8.217,-8.2862,-8.3247,-8.3247,-8.2516,-8.1823,-8.1093,-8.0246,-7.9746,-7.9631,-7.8054,-7.7246,-7.7092,-7.6322,-7.6015,-7.6015,-7.6015,-7.5938,-7.5745,-7.4899,-7.4053,-7.3245,-7.236,-7.1552,-7.0898,-7.0898,-7.0898,-7.0898,0.0,0.0,0.0,0.0,0.0,0.0,0.0,0.0,0.0,0.0,-6.482,-6.4743,0.0,0.0,0.0,0.0,0.0,0.0,0.0,0.0,0.0,0.0,-6.8783,-6.9052,-7.0437,-6.9975,-6.9552,-6.9244,-6.8667,0.0,0.0,0.0,0.0,0.0,0.0,0.0,0.0,0.0,0.0,0.0,0.0,0.0,0.0,0.0,0.0,0.0,-7.0706,-7.0706,-7.0706,-7.086,-7.136,-7.2206,-7.3591,-7.4245,-7.4784,-7.6207,-7.613,-7.5745,-7.663,-7.6322,-7.5822,-7.5976,-7.4861,-7.3707,-7.3707,-7.2476,-7.1321,-7.1168,-7.1129,-7.1129,-7.1129,-7.3091,-7.5361,-7.74,-7.9746,-8.2208,-8.4747,-8.5132,-8.5363,-8.6017,-8.6094,-8.6094,-8.6094,-8.4709,-8.3747,-8.3593,-8.2324,-8.1477,-8.1323,-8.1439,-8.1516,-8.1516,-8.14,-8.1246,-8.1093,-8.0246,-7.9438,-7.8707,-7.7746,-7.6899,-7.6207,-7.6053,-7.6015,-7.6015,-7.6015,-7.5592,-7.4861,-7.4053,-7.3206,-7.2322,-7.1475,-7.1014,-7.0898,-7.0898,-7.0898,-7.0898,0.0,0.0,0.0,0.0,0.0,0.0,0.0,-6.382,-6.5089,-6.6359,-6.6551,-6.6744,-6.7167,-6.7205,-6.7705,0.0,0.0,0.0,0.0,0.0,0.0,0.0,0.0,-6.9244,-6.959,-7.009,-6.9898,-6.9013,0.0,-6.8859,-6.8385,-6.7936,-6.7705,-6.7705,-6.7282,-6.709,-6.7051,-6.6667,0.0,-6.6513,-6.6936,-6.7628,0.0,0.0,0.0,0.0,0.0,-7.0898,-7.0975,-7.1398,-7.186,-7.2399,-7.3668,-7.4668,-7.563,-7.6899,-7.6976,-7.6861,-7.7707,-7.763,-7.7207,-7.6784,-7.5399,-7.4014,-7.3577,-7.2168,-7.0898,-7.0898,-7.0898,-7.0898,-7.0898,-7.2629,-7.463,-7.6361,-7.8361,-8.0631,-8.3208,-8.3939,-8.4516,-8.5401,-8.5478,-8.5478,-8.5478,-8.4324,-8.3401,-8.2939,-8.217,-8.1554,-8.1131,-8.1093,-8.1093,-8.1093,-8.1093,-8.1093,-8.1093,-7.9785,-7.89,-7.8477,-7.7207,-7.6399,-7.6015,-7.6015,-7.6015,-7.5976,-7.5515,-7.5091,-7.4591,-7.336,-7.2591,-7.2091,-7.1245,-7.0898,-7.0898,-7.0898,-7.0898,-7.0898,0.0,0.0,0.0,0.0,0.0,0.0,0.0,-6.5051,-6.6513,-6.7513,-6.8398,-6.8936,-6.8936,-6.8629,-6.8821,0.0,0.0,0.0,0.0,0.0,0.0,0.0,0.0,-6.9475,-6.8936,0.0,0.0,-6.8667,-6.9167,0.0,0.0,0.0,0.0,0.0,-6.6513,-6.6167,-6.6128,-6.5974,-6.6013,0.0,0.0,-6.7898,-6.8783,0.0,0.0,0.0,0.0,-7.0898,-7.1014,-7.1668,-7.2052,-7.2322,-7.3014,-7.4245,-7.5668,-7.6707,-7.7015,-7.7246,-7.8207,-7.8477,-7.8284,-7.7476,-7.5976,-7.4476,-7.3668,-7.2168,-7.0898,-7.0898,-7.0898,-7.0898,-7.0898,-7.2168,-7.3783,-7.5438,-7.6976,-7.89,-8.167,-8.2631,-8.3439,-8.4516,-8.4632,-8.4632,-8.4632,-8.3824,-8.3016,-8.2362,-8.2131,-8.1785,-8.1131,-8.1093,-8.1093,-8.1093,-8.1093,-8.1016,-8.0823,-7.9285,-7.84,-7.8207,-7.6707,-7.6015,-7.6015,-7.6015,-7.6015,-7.5938,-7.5091,-7.4591,-7.4322,-7.2822,-7.2091,-7.186,-7.1168,-7.0898,-7.0898,-7.0898,-7.0898,-7.0898,0.0,0.0,0.0,0.0,0.0,0.0,0.0,-6.5897,-6.759,-6.9244,-7.0167,-7.0667,-7.0667,-6.9321,-6.9052,0.0,0.0,0.0,0.0,0.0,0.0,0.0,0.0,0.0,0.0,0.0,0.0,-6.959,-6.8859,0.0,0.0,0.0,0.0,0.0,0.0,-6.6974,-6.6936,-6.6205,0.0,0.0,0.0,0.0,0.0,0.0,0.0,0.0,0.0,-7.0898,-7.0898,-7.0975,-7.1552,-7.2206,-7.2283,-7.2976,-7.4053,-7.5668,-7.613,-7.6476,-7.8054,-7.8477,-7.8284,-7.7476,-7.5976,-7.4476,-7.3668,-7.2168,-7.0898,-7.0898,-7.0898,-7.0898,-7.0898,-7.1668,-7.286,-7.4553,-7.563,-7.74,-8.0746,-8.1285,-8.19,-8.3516,-8.3708,-8.3708,-8.3708,-8.2939,-8.2401,-8.2324,-8.1631,-8.117,-8.1093,-8.1093,-8.1093,-8.1093,-8.1093,-8.0708,-7.9939,-7.8977,-7.813,-7.74,-7.6438,-7.6015,-7.6015,-7.6015,-7.6015,-7.5938,-7.5091,-7.4284,-7.3553,-7.2591,-7.1745,-7.1014,-7.0937,-7.0898,-7.0898,-7.0898,-7.0898,-7.0898,0.0,0.0,0.0,0.0,0.0,0.0,-6.5859,-6.6667,-6.7898,-7.0129,-7.0283,-7.036,-7.086,-7.0283,-7.0167,-7.0821,0.0,0.0,0.0,0.0,0.0,0.0,0.0,0.0,0.0,0.0,-7.0667,-7.1206,-7.0321,0.0,0.0,0.0,0.0,0.0,0.0,-6.7898,-6.7859,-6.7552,0.0,0.0,0.0,0.0,0.0,0.0,0.0,0.0,0.0,0.0,-7.0898,-7.0898,-7.1129,-7.1398,-7.1398,-7.1668,-7.2476,-7.5207,-7.6015,-7.6361,-7.8054,-7.8477,-7.8284,-7.7476,-7.5976,-7.4476,-7.3668,-7.2168,-7.0898,-7.0898,-7.0898,-7.0898,-7.0898,-7.1168,-7.1822,-7.3014,-7.3937,-7.5322,-7.7707,-7.89,-8.0169,-8.19,-8.2093,-8.2285,-8.2747,-8.2054,-8.1593,-8.1593,-8.1285,-8.1093,-8.1093,-8.1093,-8.1093,-8.1093,-8.0592,-8.0169,-7.9823,-7.8438,-7.763,-7.7284,-7.6399,-7.6015,-7.5976,-7.5476,-7.5207,-7.513,-7.3783,-7.3014,-7.2668,-7.1783,-7.1206,-7.0898,-7.0898,-7.0898,-7.0898,-7.0898,-7.0898,-7.0898,0.0,0.0,0.0,0.0,0.0,-6.4782,-6.6474,-6.7167,-6.8205,-7.0283,-7.0244,-7.0283,-7.0821,-7.0898,-7.0898,-7.0898,-7.0898,0.0,0.0,0.0,0.0,0.0,0.0,0.0,0.0,0.0,-7.1321,-7.2206,-7.1591,-7.1283,0.0,0.0,-6.9975,-6.9129,0.0,0.0,0.0,0.0,0.0,0.0,0.0,0.0,0.0,0.0,0.0,0.0,0.0,0.0,0.0,0.0,0.0,-7.0898,-7.0898,-7.0898,-7.1437,-7.4091,-7.5245,-7.5938,-7.7361,-7.813,-7.8284,-7.7476,-7.5976,-7.4476,-7.3668,-7.2168,-7.0898,-7.0898,-7.0898,-7.0898,-7.0898,-7.0898,-7.1206,-7.2052,-7.2937,-7.4091,-7.5745,-7.7246,-7.8669,-8.0169,-8.0323,-8.0631,-8.1477,-8.1285,-8.1093,-8.1093,-8.1093,-8.1093,-8.1093,-8.0862,-8.0708,-8.0708,-8.0131,-7.9554,-7.9054,-7.79,-7.7169,-7.6899,-7.6015,-7.563,-7.5592,-7.4745,-7.4361,-7.4245,-7.2822,-7.2206,-7.2129,-7.1245,-7.0898,-7.0898,-7.0898,-7.0898,-7.0898,-7.0898,-7.0898,-7.0898,0.0,0.0,0.0,0.0,0.0,0.0,-6.5628,-6.7321,-6.8706,-6.959,-7.0398,-7.0898,-7.0898,-7.0898,-7.0898,-7.0898,-7.0898,0.0,0.0,0.0,0.0,0.0,0.0,0.0,0.0,0.0,-7.1321,-7.2206,-7.2168,-7.2168,-7.2168,-7.2168,-7.1706,-7.0821,0.0,0.0,0.0,0.0,0.0,0.0,0.0,0.0,0.0,0.0,0.0,0.0,0.0,0.0,0.0,0.0,0.0,0.0,0.0,-7.0898,-7.1091,-7.1975,-7.3399,-7.4899,-7.5784,-7.7246,-7.8284,-7.7476,-7.5976,-7.4476,-7.3668,-7.2168,-7.0898,-7.0898,-7.0898,-7.0898,-7.0898,-7.0898,-7.1206,-7.2052,-7.2937,-7.4091,-7.5745,-7.6746,-7.7592,-7.8438,-7.8515,-7.8861,-7.9746,-8.0592,-8.1093,-8.1093,-8.1093,-8.1093,-8.1093,-8.0285,-7.9823,-7.9823,-7.9823,-7.9015,-7.7323,-7.7323,-7.6861,-7.6015,-7.513,-7.4707,-7.4707,-7.3899,-7.3514,-7.3476,-7.2591,-7.2206,-7.2129,-7.1245,-7.0898,-7.0898,-7.0898,-7.0898,-7.0898,-7.0898,-7.0898,-7.0898,0.0,0.0,0.0,0.0,0.0,0.0,0.0,-6.7167,-6.8052,-6.9513,-6.9937,-7.0283,-7.0821,-7.0898,-7.0898,-7.0898,-7.0898,0.0,0.0,0.0,0.0,0.0,0.0,0.0,0.0,-7.1475,-7.2206,-7.3091,-7.3091,-7.3091,-7.3091,-7.2476,-7.1745,-7.0898,-7.0629,-7.0514,0.0,0.0,0.0,0.0,0.0,0.0,0.0,0.0,0.0,0.0,0.0,0.0,0.0,0.0,0.0,0.0,0.0,0.0,0.0,-7.1245,-7.2091,-7.3168,-7.4053,-7.4668,-7.5014,-7.4784,-7.3822,-7.2937,-7.2668,-7.1706,-7.0898,-7.0898,-7.0898,-7.0898,-7.0898,-7.0898,-7.1206,-7.2052,-7.2937,-7.3899,-7.4976,-7.5861,-7.6746,-7.7592,-7.8169,-7.8823,-7.9708,-8.0054,-8.0477,-8.1054,-8.0554,-8.0208,-8.0208,-7.94,-7.9169,-7.9785,-7.8707,-7.7823,-7.7323,-7.6707,-7.5976,-7.513,-7.4822,-7.4399,-7.386,-7.3014,-7.2591,-7.2552,-7.1706,-7.1321,-7.1283,-7.1014,-7.0898,-7.0898,-7.0898,-7.0898,-7.0898,-7.0898,-7.0898,-7.0898,0.0,0.0,0.0,0.0,0.0,0.0,0.0,-6.6898,-6.759,-6.9013,-6.9513,-7.0014,-7.0821,-7.0898,-7.0898,-7.0898,-7.0898,0.0,0.0,0.0,0.0,0.0,0.0,0.0,-7.0898,-7.1745,-7.2629,-7.3514,-7.3822,-7.3822,-7.35,-7.2937,-7.2052,-7.0898,-7.0898,-7.0898,0.0,0.0,0.0,0.0,0.0,0.0,0.0,0.0,0.0,0.0,0.0,0.0,0.0,0.0,0.0,0.0,0.0,0.0,0.0,0.0,-7.1283,-7.1898,-7.2783,-7.3245,-7.3514,-7.3514,-7.2822,-7.2206,-7.2206,-7.1514,-7.0898,-7.0898,-7.0898,-7.0898,-7.0898,-7.0898,-7.1091,-7.1629,-7.2437,-7.3283,-7.413,-7.4976,-7.5822,-7.6707,-7.7553,-7.8246,-7.8784,-7.9131,-7.9515,-8.0092,-7.9631,-7.9323,-7.9323,-7.8515,-7.8284,-7.8823,-7.7823,-7.6976,-7.6322,-7.5784,-7.5091,-7.4245,-7.3899,-7.3476,-7.2976,-7.2091,-7.1706,-7.1668,-7.1129,-7.0898,0.0,-7.0898,-7.0898,-7.0898,-7.0898,-7.0898,-7.0898,-7.0898,-7.0898,-7.0898,0.0,0.0,0.0,0.0,0.0,0.0,0.0,-6.659,-6.7398,-6.8282,-6.9167,-7.0014,-7.0821,-7.0898,-7.0898,-7.0898,0.0,0.0,0.0,0.0,0.0,0.0,0.0,0.0,-7.0898,-7.1822,-7.2706,-7.3591,-7.4399,-7.4399,-7.3668,-7.363,-7.2668,-7.0975,-7.0975,-7.0975,0.0,0.0,0.0,0.0,0.0,0.0,0.0,0.0,0.0,0.0,0.0,0.0,0.0,0.0,0.0,0.0,0.0,0.0,0.0,0.0,0.0,0.0,0.0,-7.2706,-7.3322,-7.3322,-7.2706,-7.2091,-7.2091,-7.1475,0.0,-7.0898,-7.0898,-7.0898,-7.0898,-7.0898,-7.0937,-7.0975,-7.1668,-7.2514,-7.3399,-7.4207,-7.5014,-7.5899,-7.6707,-7.7207,-7.7284,-7.7977,-7.8438,-7.8477,-7.8438,-7.84,-7.84,-7.763,-7.7169,-7.713,-7.713,-7.6322,-7.4707,-7.463,-7.4207,-7.3399,-7.2591,-7.2168,-7.2091,-7.1283,-7.0898,-7.0898,-7.0898,-7.0898,-7.0898,-7.0898,-7.0898,-7.0898,-7.0898,-7.0898,-7.0898,-7.0898,-7.0898,-7.0898,0.0,0.0,0.0,0.0,0.0,0.0,0.0,0.0,0.0,0.0,-6.9167,-7.0014,-7.0821,-7.0898,-7.0898,0.0,0.0,0.0,0.0,0.0,0.0,0.0,0.0,0.0,-7.0898,-7.2399,-7.3591,-7.4437,-7.5284,-7.5592,-7.5399,-7.4745,-7.3514,-7.1898,-7.1898,-7.1514,0.0,0.0,0.0,0.0,0.0,0.0,0.0,0.0,0.0,0.0,-7.0898,-7.0898,0.0,0.0,0.0,0.0,0.0,0.0,0.0,0.0,-7.0898,-7.0937,-7.1168,0.0,-7.1514,-7.1514,-7.136,-7.1206,0.0,-7.1052,-7.0898,-7.0898,-7.0898,-7.0898,-7.0898,-7.0898,-7.1129,-7.1783,-7.2052,-7.2514,-7.3399,-7.4207,-7.5014,-7.5899,-7.6169,-7.6553,-7.7246,-7.7476,-7.7823,-7.8438,-7.7938,-7.7592,-7.7592,-7.6784,-7.6015,-7.5322,-7.5322,-7.513,-7.4707,-7.4091,-7.336,-7.2514,-7.2283,-7.186,-7.1206,-7.0975,-7.0898,-7.0898,-7.0898,-7.0898,-7.0898,-7.0898,-7.0898,-7.0898,-7.0898,-7.0898,-7.0898,-7.0898,-7.0898,-7.0898,0.0,0.0,0.0,0.0,0.0,0.0,0.0,0.0,0.0,0.0,0.0,-6.9552,-7.0783,-7.0898,0.0,0.0,0.0,0.0,0.0,0.0,0.0,0.0,0.0,-7.1514,-7.1514,-7.3168,-7.4284,-7.4707,-7.5553,-7.5784,-7.5399,-7.4553,-7.3437,-7.2168,-7.1783,-7.1321,0.0,0.0,0.0,0.0,0.0,0.0,0.0,0.0,0.0,0.0,-7.0898,-7.0898,0.0,-7.0898,-7.0898,-7.0898,0.0,0.0,0.0,0.0,-7.0898,-7.0898,-7.0898,-7.1206,-7.1514,-7.1514,-7.1514,-7.1514,-7.1514,-7.1206,-7.0898,-7.0898,-7.0898,-7.0898,-7.0898,-7.0898,-7.1052,-7.1514,-7.1591,-7.2052,-7.3322,-7.4207,-7.5014,-7.5899,-7.6015,-7.6207,-7.6669,-7.6707,-7.6861,-7.7323,-7.6938,-7.6707,-7.6707,-7.5861,-7.5207,-7.4707,-7.3937,-7.3553,-7.3553,-7.3129,-7.2476,-7.1591,-7.1591,-7.136,-7.0898,-7.0898,-7.0898,-7.0898,-7.0898,-7.0898,-7.0898,-7.0898,-7.0898,-7.0898,-7.0898,-7.0898,-7.0898,-7.0898,-7.0898,-7.0898,0.0,0.0,0.0,0.0,0.0,0.0,0.0,0.0,0.0,0.0,0.0,0.0,0.0,0.0,0.0,0.0,0.0,0.0,0.0,0.0,0.0,0.0,-7.1822,-7.2129,-7.2014,-7.3514,-7.4437,-7.4707,-7.5438,-7.5553,-7.5091,-7.413,-7.3168,-7.2168,-7.1437,-7.1014,0.0,0.0,0.0,0.0,0.0,0.0,0.0,0.0,0.0,0.0,0.0,0.0,0.0,-7.0898,-7.0898,-7.0898,-7.0898,0.0,0.0,0.0,0.0,0.0,-7.0898,-7.1629,-7.2322,-7.2052,-7.2091,-7.2168,-7.2014,-7.1437,-7.0898,-7.0898,-7.0898,-7.0898,-7.0898,-7.0898,-7.0898,-7.0898,-7.1014,-7.1706,-7.3437,-7.4284,-7.5014,-7.5899,-7.6015,-7.6015,-7.6015,-7.6015,-7.6015,-7.6015,-7.6015,-7.5938,-7.5822,-7.5091,-7.4591,-7.4322,-7.2937,-7.2129,-7.2014,-7.2014,-7.1629,-7.0898,-7.0898,-7.0898,-7.0898,-7.0898,-7.0898,-7.0898,-7.0898,-7.0898,-7.0898,-7.0898,-7.0898,-7.0898,-7.0898,-7.0898,-7.0898,-7.0898,-7.0898,-7.0898,0.0,0.0,0.0,0.0,0.0,0.0,0.0,0.0,0.0,0.0,0.0,0.0,0.0,0.0,0.0,0.0,0.0,0.0,0.0,0.0,0.0,-7.2052,-7.2129,-7.186,-7.1129,-7.2052,-7.3283,-7.4707,-7.4822,-7.5592,-7.6861,-7.5245,-7.3707,-7.2168,-7.2052,-7.1591,-7.0898,-7.0898,0.0,0.0,-7.0898,0.0,0.0,0.0,0.0,0.0,0.0,0.0,0.0,-7.0898,-7.0898,-7.0898,-7.0898,0.0,0.0,0.0,0.0,0.0,-7.0898,-7.2091,-7.2937,-7.1475,-7.1629,-7.2014,-7.1283,-7.1014,-7.0898,-7.0898,-7.0898,-7.0898,-7.0898,-7.0898,-7.0898,-7.0898,-7.1514,-7.2591,-7.4284,-7.463,-7.5014,-7.5899,-7.6015,-7.6015,-7.6015,-7.6015,-7.6015,-7.6015,-7.6015,-7.5668,-7.4938,-7.4784,-7.4053,-7.2629,-7.2322,-7.186,-7.1091,-7.1091,-7.1014,-7.0898,-7.0898,-7.0898,-7.0898,-7.0898,-7.0898,-7.0898,-7.0898,-7.0898,-7.0898,-7.0898,-7.0898,-7.0898,-7.0898,-7.0898,-7.0898,-7.0898,-7.0898,-7.0783,0.0,0.0,0.0,0.0,0.0,0.0,0.0,0.0,0.0,0.0,0.0,0.0,0.0,0.0,0.0,0.0,0.0,0.0,0.0,0.0,-7.3129,-7.2245,-7.2629,-7.2476,-7.1629,-7.2899,-7.4168,-7.5399,-7.5861,-7.6515,-7.7246,-7.5053,-7.3399,-7.2168,-7.1706,-7.1283,-7.0898,-7.0898,-7.0898,0.0,0.0,0.0,0.0,0.0,0.0,0.0,0.0,0.0,0.0,0.0,-7.0898,-7.0898,-7.0898,0.0,0.0,0.0,0.0,0.0,-7.0898,-7.1822,-7.2476,-7.1206,-7.1898,-7.2668,-7.1783,-7.1245,-7.0898,-7.0898,-7.0898,-7.0898,-7.0898,-7.0898,-7.1052,-7.1514,-7.1937,-7.2783,-7.4476,-7.4707,-7.5014,-7.5899,-7.5592,-7.5284,-7.5284,-7.4899,-7.4668,-7.4668,-7.4668,-7.4476,-7.4091,-7.363,-7.3014,-7.2206,-7.1745,-7.1321,-7.0898,-7.0898,-7.0898,-7.0898,-7.0898,-7.0898,-7.0898,-7.0898,-7.0898,-7.0898,-7.0898,-7.0898,-7.0898,-7.0898,-7.0898,-7.0898,-7.0898,-7.0898,-7.0898,-7.0898,-7.0629,-7.0129,0.0,0.0,0.0,0.0,0.0,0.0,0.0,0.0,0.0,0.0,0.0,0.0,0.0,0.0,0.0,0.0,0.0,0.0,0.0,-7.2822,-7.2899,-7.2206,-7.2822,-7.2899,-7.2206,-7.3476,-7.4745,-7.6015,-7.6669,-7.6976,-7.6938,-7.5014,-7.3399,-7.2168,-7.1514,-7.1091,-7.0898,-7.0898,-7.0898,0.0,0.0,0.0,0.0,0.0,0.0,0.0,0.0,0.0,0.0,0.0,0.0,0.0,0.0,0.0,0.0,-7.0898,-7.0898,-7.0898,-7.0898,-7.1552,-7.1937,-7.086,-7.1937,-7.3014,-7.236,-7.1514,-7.0975,-7.1168,-7.1052,-7.0898,-7.0898,-7.0898,-7.1206,-7.2052,-7.236,-7.3014,-7.4476,-7.4899,-7.5168,-7.563,-7.513,-7.463,-7.4437,-7.386,-7.3514,-7.3514,-7.3514,-7.3399,-7.3206,-7.2552,-7.2091,-7.1898,-7.1245,-7.0898,-7.0898,-7.0898,-7.0898,-7.0898,-7.0898,-7.0898,-7.0898,-7.0898,-7.0898,-7.0898,-7.0898,-7.0898,-7.0898,-7.0898,-7.0898,-7.0898,-7.0898,-7.0898,-7.0898,-7.0706,-7.009,-6.9283,0.0,0.0,0.0,0.0,0.0,0.0,0.0,0.0,0.0,0.0,0.0,0.0,0.0,0.0,0.0,0.0,0.0,0.0,0.0,-7.2245,-7.2283,-7.2206,-7.2245,-7.2245,-7.2206,-7.2322,-7.3553,-7.6015,-7.6053,-7.6092,-7.6092,-7.5899,-7.4514,-7.2206,-7.2129,-7.1668,-7.0898,-7.0898,-7.0898,-7.0898,-7.0898,0.0,0.0,0.0,0.0,0.0,0.0,0.0,0.0,0.0,0.0,0.0,0.0,0.0,-7.0898,-7.0898,-7.0898,-7.0898,-7.0898,-7.1552,-7.1822,-7.0206,-7.1052,-7.2283,-7.2206,-7.1514,-7.1129,-7.1937,-7.1475,-7.0898,-7.0898,-7.0898,-7.1206,-7.2052,-7.2899,-7.3707,-7.4591,-7.5399,-7.563,-7.4899,-7.4745,-7.4399,-7.3654,-7.3538,-7.3514,-7.3514,-7.3514,-7.3168,-7.2322,-7.2206,-7.1822,-7.1014,-7.0937,-7.0898,-7.0898,-7.0898,-7.0898,-7.0898,-7.0898,-7.0898,-7.0898,-7.0898,-7.0898,-7.0898,-7.0898,-7.0898,-7.0898,-7.0898,-7.0898,-7.0898,-7.0898,-7.0898,-7.0821,-7.0052,-6.9244,-6.8359,0.0,0.0,0.0,0.0,0.0,0.0,0.0,0.0,0.0,0.0,0.0,0.0,0.0,0.0,0.0,0.0,0.0,0.0,0.0,-7.1898,-7.1937,-7.1398,-7.1898,-7.2206,-7.2206,-7.2745,-7.4245,-7.6823,-7.7323,-7.7284,-7.6784,-7.5707,-7.4399,-7.2976,-7.2437,-7.1706,-7.0898,-7.0898,-7.0898,-7.0898,-7.0898,0.0,0.0,0.0,0.0,0.0,0.0,0.0,0.0,0.0,-7.0052,-7.0706,-6.9667,-7.0052,-7.0783,-7.0283,-7.0167,-7.0167,-7.0167,-7.0398,-7.0475,-6.986,-7.0552,-7.1245,-7.0744,-7.0783,-7.0975,-7.1321,-7.1129,-7.0898,-7.0898,-7.0898,-7.1206,-7.2052,-7.2937,-7.3783,-7.4591,-7.5438,-7.5668,-7.4822,-7.4284,-7.363,-7.2783,-7.2206,-7.1898,-7.1898,-7.1898,-7.1745,-7.1398,-7.1398,-7.1245,-7.0898,-7.0898,-7.0898,-7.0898,-7.0898,-7.0898,-7.0898,-7.0898,-7.0898,-7.0898,-7.0898,-7.0898,-7.0898,-7.0898,-7.0898,-7.0898,-7.0898,-7.0898,-7.0898,-7.0898,-7.0898,-7.0783,-7.0014,-6.9167,-6.8282,0.0,0.0,0.0,0.0,0.0,0.0,0.0,0.0,0.0,0.0,0.0,0.0,0.0,0.0,0.0,0.0,0.0,0.0,-7.0898,-7.1475,-7.1514,-7.0937,-7.1475,-7.1898,-7.2168,-7.2783,-7.4322,-7.6899,-7.7977,-7.7938,-7.6861,-7.5399,-7.413,-7.3053,-7.2168,-7.1475,-7.0898,-7.0898,-7.0898,-7.0898,-7.0898,-7.0898,0.0,0.0,0.0,0.0,0.0,0.0,0.0,0.0,-6.959,-7.036,-6.9475,-6.9821,-7.0398,-6.986,-6.9898,-7.0014,-6.9783,-6.9898,-7.0014,-6.9744,-7.0283,-7.0706,-6.9898,-7.0321,-7.0975,-7.1245,-7.1091,-7.0898,-7.0898,-7.0898,-7.1091,-7.1668,-7.2514,-7.3283,-7.3822,-7.4668,-7.4899,-7.4014,-7.3437,-7.2745,-7.186,-7.1245,-7.0898,-7.0898,-7.0898,-7.0898,-7.0898,-7.0898,-7.0898,-7.0898,-7.0898,-7.0898,-7.0898,-7.0898,-7.0898,-7.0898,-7.0898,-7.0898,-7.0898,-7.0898,-7.0898,-7.0898,-7.0898,-7.0898,-7.0898,-7.0898,-7.0898,-7.0898,-7.0898,-7.0744,-7.0437,-6.959,-6.8744,-6.7859,0.0,0.0,0.0,0.0,0.0,0.0,0.0,0.0,0.0,0.0,0.0,0.0,0.0,0.0,0.0,0.0,0.0,0.0,-7.0898,-7.0898,-7.0898,-7.0898,-7.0898,-7.1283,-7.2168,-7.2206,-7.3437,-7.5976,-7.763,-7.763,-7.5976,-7.5091,-7.3783,-7.2168,-7.1283,-7.0898,-7.0898,-7.0898,-7.0898,-7.0898,-7.0898,-7.0898,-7.0898,0.0,0.0,0.0,0.0,0.0,0.0,0.0,-6.9667,-6.9821,-7.0591,-7.0321,-6.9706,-6.9667,-7.0244,-7.0706,-6.9898,-7.0244,-7.0667,-6.9898,-7.0283,-7.0706,-6.9898,-7.0321,-7.1129,-7.2014,-7.1514,-7.0898,-7.0898,-7.0898,-7.0898,-7.0898,-7.1629,-7.2206,-7.2206,-7.2937,-7.3168,-7.2283,-7.2206,-7.186,-7.0975,-7.0898,-7.0898,-7.0898,-7.0898,-7.0898,-7.0898,-7.0898,-7.0898,-7.0898,-7.0898,-7.0898,-7.0898,-7.0898,-7.0898,-7.0898,-7.0898,-7.0898,-7.0898,-7.0898,-7.0898,-7.0898,-7.0898,-7.0898,-7.0898,-7.0898,-7.0898,-7.0898,-7.0898,-7.0398,-6.959,-6.8706,-6.7859,-6.6974,0.0,0.0,0.0,0.0,0.0,0.0,0.0,0.0,0.0,0.0,0.0,0.0,0.0,0.0,0.0,0.0,0.0,0.0,-7.009,-7.0591,-7.0667,-7.009,-7.0591,-7.1014,-7.1283,-7.1898,-7.286,-7.4245,-7.5938,-7.5861,-7.4245,-7.3976,-7.3245,-7.2168,-7.1937,-7.1475,-7.0898,-7.0898,-7.0898,-7.0898,-7.0898,-7.0898,-7.0898,0.0,0.0,0.0,0.0,0.0,0.0,0.0,0.0,0.0,-6.7667,-6.8436,-6.9475,-6.8244,-6.8475,-6.8975,-6.809,-6.8475,-6.909,-6.8859,-6.986,-7.0821,-7.0591,-7.0744,-7.0975,-7.1245,-7.1091,-7.0898,-7.0898,-7.0898,-7.0898,-7.0898,-7.1629,-7.2206,-7.2206,-7.2937,-7.3168,-7.2283,-7.2206,-7.186,-7.0975,-7.0898,-7.0898,-7.0898,-7.0898,-7.0898,-7.0898,-7.0898,-7.0898,-7.0898,-7.0898,-7.0898,-7.0898,-7.0898,-7.0898,-7.0898,-7.0898,-7.0898,-7.0898,-7.0898,-7.0898,-7.0898,-7.0898,-7.0898,-7.0898,-7.0898,-7.0898,-7.0821,-7.0283,-6.9898,-6.9513,-6.8013,-6.7321,-6.6974,0.0,0.0,0.0,0.0,0.0,0.0,0.0,0.0,0.0,0.0,-7.0898,-7.0898,0.0,0.0,0.0,0.0,0.0,0.0,0.0,-7.0437,-7.0552,-6.9744,-7.0475,-7.0898,-7.0898,-7.1745,-7.2283,-7.2476,-7.4168,-7.4322,-7.2976,-7.2976,-7.2514,-7.1668,-7.1668,-7.1398,-7.0898,-7.0898,-7.0898,-7.0898,-7.0898,-7.0898,-7.0898,0.0,0.0,0.0,0.0,0.0,0.0,0.0,0.0,0.0,-6.709,-6.7705,-6.8513,-6.7821,-6.8244,-6.8821,-6.8282,-6.8744,-6.9398,-6.9398,-7.0167,-7.0898,-7.0898,-7.0898,-7.0898,-7.0898,-7.0898,-7.0898,-7.0898,-7.0898,-7.0898,-7.0898,-7.1321,-7.1668,-7.1668,-7.2129,-7.2283,-7.1745,-7.1668,-7.1475,-7.0937,-7.0898,-7.0898,-7.0898,-7.0898,-7.0898,-7.0898,-7.0898,-7.0898,-7.0898,-7.0898,-7.0898,-7.0898,-7.0898,-7.0898,-7.0898,-7.0898,-7.0898,-7.0898,-7.0898,-7.0898,-7.0898,-7.0898,-7.0898,-7.0898,-7.0552,-7.0437,-7.036,-6.9513,-6.8975,-6.8552,-6.7475,-6.6898,-6.6551,0.0,0.0,0.0,0.0,0.0,0.0,0.0,0.0,0.0,0.0,-7.0898,-7.0898,0.0,0.0,0.0,0.0,0.0,0.0,0.0,0.0,-7.0552,-6.9744,-7.0475,-7.0898,-7.0898,-7.1668,-7.1668,-7.0898,-7.2591,-7.2937,-7.2091,-7.2091,-7.1668,-7.0898,-7.0898,-7.0898,-7.0898,-7.0821,-7.0783,-7.0783,-7.0706,-7.0667,-7.0667,-7.0667,0.0,0.0,0.0,0.0,0.0,0.0,0.0,0.0,-6.7936,-6.7628,-6.7128,-6.7936,-6.8783,-6.9475,-6.9475,-7.0129,-7.0783,-7.0783,-7.086,-7.0898,-7.0898,-7.0898,-7.0898,-7.0898,-7.0898,-7.0898,-7.0898,-7.0898,-7.0898,-7.0898,-7.0898,-7.0898,-7.0898,-7.0898,-7.0898,-7.0898,-7.0898,-7.0898,-7.0898,-7.0898,-7.0898,-7.0898,-7.0898,-7.0898,-7.0898,-7.0898,-7.0898,-7.0898,-7.0898,-7.0898,-7.0898,-7.0898,-7.0898,-7.0898,-7.0925,-7.0952,-7.0952,-7.0912,-7.0898,-7.0898,-7.0898,-7.086,-7.0744,-7.0014,-6.9667,-6.9475,-6.8629,-6.7782,-6.709,-6.7013,-6.6513,-6.5897,0.0,0.0,0.0,0.0,0.0,0.0,0.0,0.0,0.0,0.0,0.0,0.0,0.0,0.0,0.0,0.0,0.0,0.0,0.0,0.0,-7.0552,-6.9744,-7.0475,-7.0898,-7.0898,-7.1091,-7.1091,-7.0898,-7.1975,-7.2014,-7.1168,-7.1168,-7.1091,-7.0898,-7.0898,-7.0898,-7.086,-7.0244,-6.9975,-6.9898,-6.9206,-6.8936,-6.8936,-6.8936,-6.8282,0.0,0.0,0.0,0.0,0.0,0.0,0.0,-6.6359,-6.632,-6.6205,-6.6359,-6.7013,-6.7667,-6.7667,-6.8783,-6.9975,-6.9975,-7.0437,-7.0898,-7.0898,-7.0898,-7.0898,-7.0898,-7.0898,-7.0898,-7.0898,-7.0898,-7.0898,-7.0898,-7.0898,-7.0898,-7.0898,-7.0898,-7.0898,-7.0898,-7.0898,-7.0898,-7.0898,-7.0898,-7.0898,-7.0898,-7.0898,-7.0898,-7.0898,-7.0898,-7.0898,-7.0898,-7.0898,-7.0898,-7.0898,-7.0898,-7.0898,-7.0898,-7.105,-7.1126,-7.1115,-7.0979,-7.0898,-7.0898,-7.0898,-7.0552,-6.9937,-6.9783,-6.9321,-6.859,-6.7705,-6.7282,-6.7013,-6.6397,-6.6051,-6.5897,0.0,0.0,0.0,0.0,0.0,0.0,0.0,0.0,0.0,0.0,0.0,0.0,0.0,0.0,0.0,0.0,0.0,0.0,0.0,-7.0206,-7.0706,-7.0283,-7.0667,-7.0898,-7.0898,-7.0898,-7.0898,-7.0898,-7.136,-7.136,-7.0898,-7.0898,-7.0898,-7.0898,-7.0898,-7.0706,-7.0283,-6.9898,-6.9475,-6.9052,-6.859,-6.8385,-6.8385,-6.8385,-6.7859,-6.709,-6.709,0.0,0.0,0.0,0.0,0.0,0.0,0.0,-6.5359,-6.5782,-6.6205,-6.6705,-6.7513,-6.8706,-6.9783,-7.0167,-7.0591,-7.0898,-7.0898,-7.0898,-7.0898,-7.0898,-7.0898,-7.0898,-7.0898,-7.0898,-7.0898,-7.0898,-7.0898,-7.0898,-7.0898,-7.0898,-7.0898,-7.0898,-7.0898,-7.0898,-7.0898,-7.0898,-7.0898,-7.0898,-7.0898,-7.0898,-7.0898,-7.0898,-7.0898,-7.0898,-7.0898,-7.0898,-7.0898,-7.0898,-7.0898,-7.0898,-7.1081,-7.1221,-7.1211,-7.1097,-7.0786,-7.0321,-7.0321,-6.986,-6.9052,-6.8629,-6.8205,-6.7705,-6.6859,-6.6513,-6.6474,-6.6051,-6.5897,-6.5897,0.0,0.0,0.0,0.0,0.0,0.0,0.0,0.0,0.0,0.0,0.0,0.0,0.0,0.0,0.0,0.0,0.0,0.0,0.0,-6.986,-7.0706,-7.0706,-7.0821,-7.0898,-7.0898,-7.0744,-7.0744,-7.0898,-7.0744,-7.0821,-7.1129,-7.0975,-7.0898,-7.0898,-7.0898,-7.0437,-6.9706,-6.9552,-6.8975,-6.8167,-6.8013,-6.7898,-6.7744,-6.7744,-6.7205,-6.6436,-6.6436,-6.6013,-6.5436,-6.5436,0.0,0.0,0.0,0.0,-6.432,-6.5205,-6.5436,-6.5782,-6.7321,-6.859,-6.9706,-7.0667,-7.0898,-7.0898,-7.0898,-7.0898,-7.0898,-7.0898,-7.0898,-7.0898,-7.0898,-7.0898,-7.0898,-7.0898,-7.0898,-7.0898,-7.0898,-7.0898,-7.0898,-7.0898,-7.0898,-7.0898,-7.0898,-7.0898,-7.0898,-7.0898,-7.0898,-7.0898,-7.0898,-7.0898,-7.0898,-7.0898,-7.0898,-7.0898,-7.0898,-7.0927,-7.0953,-7.0953,-7.1172,-7.1212,-7.1019,-7.1019,-7.0535,-6.9706,-6.9552,-6.8975,-6.8129,-6.7398,-6.7013,-6.6821,-6.6167,-6.5897,-6.5897,-6.5897,-6.5897,-6.5897,0.0,0.0,0.0,0.0,0.0,0.0,0.0,0.0,0.0,0.0,-7.0898,-7.0591,-6.9783,-6.9706,0.0,0.0,0.0,0.0,-6.8398,0.0,0.0,-6.986,-7.0514,-7.0898,-7.0898,-7.0206,-7.0206,-7.0898,-7.0206,-7.0591,-7.2014,-7.1245,-7.0898,-7.0898,-7.0898,-7.0437,-6.9667,-6.8898,-6.809,-6.7205,-6.6513,-6.5782,-6.5128,-6.5128,-6.4589,-6.382,-6.382,-6.3743,-6.3666,-6.3666,-6.3666,0.0,0.0,0.0,-6.2601,-6.3397,-6.3666,-6.3858,-6.4859,-6.6821,-6.8936,-7.0514,-7.0898,-7.0898,-7.0898,-7.0898,-7.0898,-7.0898,-7.0898,-7.0898,-7.0898,-7.0898,-7.0898,-7.0898,-7.0898,-7.0898,-7.0898,-7.0898,-7.0898,-7.0898,-7.0898,-7.0898,-7.0898,-7.0898,-7.0898,-7.0898,-7.0898,-7.0898,-7.0898,-7.0898,-7.0898,-7.0898,-7.0898,-7.0898,-7.0898,-7.1074,-7.1158,-7.1169,-7.1479,-7.1165,-7.0329,-7.0329,-7.0098,-6.9667,-6.8898,-6.809,-6.7244,-6.7128,-6.6667,-6.6051,-6.5936,-6.5897,-6.5897,-6.5897,-6.5897,-6.5897,0.0,0.0,0.0,0.0,0.0,0.0,0.0,0.0,0.0,0.0,0.0,-7.0398,-6.9129,-6.8975,0.0,0.0,0.0,0.0,-6.8359,-6.8783,0.0,-6.8975,-6.9783,-7.0014,-6.9513,-6.9629,-6.9629,-6.9513,-6.9129,-6.9821,-7.1475,-7.1091,-7.1168,-7.1629,-7.1629,-7.0629,-6.8936,-6.8538,-6.7628,-6.6359,-6.5513,-6.5513,-6.582,-6.4436,-6.4243,-6.4628,-6.3666,-6.3308,-6.3308,-6.3308,-6.3308,-6.3308,-6.3308,0.0,0.0,0.0,-6.2627,-6.3128,-6.5397,-6.7167,-6.8821,-7.0475,-7.0898,-7.0898,-7.0898,-7.0898,-7.0898,-7.0898,-7.0898,-7.0898,-7.0898,-7.0898,-7.0898,-7.0898,-7.0898,-7.0898,-7.0898,-7.0898,-7.0898,-7.0898,-7.0898,-7.0898,-7.0898,-7.0898,-7.0898,-7.0898,-7.0898,-7.0898,-7.0898,-7.0898,-7.0898,-7.0898,-7.0898,-7.0898,-7.0898,-7.1108,-7.1287,-7.1479,-7.1179,-7.0741,-7.0175,-6.9241,-6.8584,-6.8205,-6.7821,-6.7205,-6.6436,-6.6436,-6.6205,-6.5897,-6.5897,-6.5897,-6.5897,-6.5897,-6.5897,-6.5897,0.0,0.0,0.0,0.0,0.0,0.0,0.0,0.0,0.0,0.0,0.0,-7.0421,-6.8722,0.0,0.0,0.0,0.0,0.0,-6.709,0.0,0.0,0.0,0.0,-6.909,-6.8398,-6.9052,-6.9052,-6.8385,-6.8385,-6.936,-7.1245,-7.1475,-7.2014,-7.2822,-7.2399,-7.0898,-6.8744,-6.8513,-6.7436,-6.5859,-6.5397,-6.5743,-6.6282,-6.482,-6.482,-6.5359,-6.3858,-6.3166,-6.2974,-6.2743,-6.2666,-6.2666,-6.2666,-6.2089,0.0,0.0,0.0,-6.182,-6.4974,-6.6436,-6.7552,-6.9475,-7.0283,-7.0591,-7.0591,-7.0744,-7.0898,-7.0898,-7.0898,-7.0898,-7.0898,-7.0898,-7.0898,-7.0898,-7.0898,-7.0898,-7.0898,-7.0898,-7.0898,-7.0898,-7.0898,-7.0898,-7.0898,-7.0898,-7.0898,-7.0898,-7.0898,-7.0898,-7.0898,-7.0898,-7.0898,-7.0898,-7.0898,-7.0898,-7.0898,-7.0915,-7.1114,-7.1446,-7.0626,-7.0036,-6.9568,-6.8286,-6.7376,-6.683,-6.682,-6.6436,-6.5897,-6.5897,-6.5897,-6.5897,-6.5897,-6.5897,-6.5897,-6.5897,-6.5897,-6.5897,0.0,0.0,0.0,0.0,0.0,0.0,0.0,0.0,0.0,0.0,0.0,-7.0795,-6.9045,-6.8756,-6.7648,-6.5083,-6.4767,0.0,0.0,0.0,0.0,0.0,0.0,0.0,-6.8385,-6.8423,-6.8462,-6.8385,-6.8385,-6.9667,-7.2129,-7.2976,-7.3822,-7.4514,-7.2899,-7.1245,-6.959,-6.8744,-6.7436,-6.5974,-6.6667,-6.6051,-6.4897,-6.6359,-6.5974,-6.4551,-6.3628,-6.282,-6.2062,-6.1204,-6.0935,-6.0935,-6.0935,-6.0319,-5.9627,0.0,0.0,0.0,-6.1678,-6.2935,-6.4166,-6.6667,-6.8552,-6.9744,-6.9744,-7.036,-7.0898,-7.0898,-7.0898,-7.0898,-7.0898,-7.0898,-7.0898,-7.0898,-7.0898,-7.0898,-7.0898,-7.0898,-7.0898,-7.0898,-7.0898,-7.0898,-7.0898,-7.0898,-7.0898,-7.0898,-7.0898,-7.0898,-7.0898,-7.0898,-7.0898,-7.0898,-7.0898,-7.0898,-7.0898,-7.0466,-7.0415,-7.0742,-6.9922,-6.9013,-6.8014,-6.7787,-6.7145,-6.6158,-6.6032,-6.5936,-6.5897,-6.5897,-6.5897,-6.5897,-6.5897,-6.5897,-6.5897,-6.5897,-6.5897,-6.5897,0.0,0.0,0.0,0.0,0.0,0.0,0.0,0.0,0.0,0.0,0.0,0.0,0.0,-6.8348,-6.7417,-6.5941,-6.5793,0.0,0.0,0.0,0.0,0.0,0.0,0.0,-6.6821,-6.7859,-6.7859,-6.6782,-6.6782,-6.809,-7.0591,-7.0898,-7.1783,-7.3053,-7.2476,-7.1552,-7.036,-6.8398,-6.7205,-6.6628,-6.6397,-6.659,-6.6936,-6.5897,-6.5782,-6.5936,-6.4012,-6.2781,-6.2062,-6.1755,-6.1243,-6.0704,-6.0127,-5.9742,-5.9396,-5.8896,-5.8896,-5.9396,-6.0858,-6.2243,-6.3654,-6.5128,-6.7205,-6.8706,-6.8167,-6.9513,-7.0744,-7.0244,-7.0552,-7.0898,-7.0898,-7.0898,-7.0898,-7.0898,-7.0898,-7.0898,-7.0898,-7.0898,-7.0898,-7.0898,-7.0898,-7.0898,-7.0898,-7.0898,-7.0898,-7.0898,-7.0898,-7.0898,-7.0898,-7.0898,-7.0667,-7.0167,-7.0629,-7.0758,-7.0457,-7.0269,-7.0108,-6.9922,-6.9062,-6.839,-6.7865,-6.7164,-6.6601,-6.61,-6.5967,-6.5897,-6.5897,-6.5897,-6.5897,-6.5897,-6.5897,-6.5897,-6.5897,-6.5897,-6.5897,-6.5897,0.0,0.0,0.0,0.0,0.0,0.0,0.0,0.0,-7.1039,-7.1722,0.0,0.0,0.0,0.0,-6.7537,-6.6082,-6.5693,-6.5485,-6.535,-6.5342,0.0,0.0,0.0,0.0,-6.632,-6.7398,-6.7436,-6.6282,-6.6013,-6.7051,-6.9283,-6.9552,-7.0437,-7.1745,-7.1168,-7.0937,-7.0744,-6.8475,-6.7359,-6.709,-6.6821,-6.7051,-6.7513,-6.6936,-6.6859,-6.6859,-6.5166,-6.3858,-6.2897,-6.2589,-6.1935,-6.1089,-6.0204,-5.9358,-5.8511,-5.7665,-5.7819,-5.8396,-5.9281,-6.055,-6.1973,-6.3397,-6.5243,-6.6782,-6.7051,-6.8398,-6.9552,-6.9321,-6.9937,-7.0514,-7.0514,-7.0706,-7.0898,-7.0898,-7.0898,-7.0898,-7.0898,-7.0898,-7.0898,-7.0898,-7.0898,-7.0898,-7.0898,-7.0898,-7.0898,-7.0898,-7.0898,-7.0898,-7.0898,-7.0898,-7.0514,-6.9744,-6.9964,-6.9997,-6.9759,-6.9544,-6.9327,-6.9062,-6.8164,-6.7692,-6.7549,-6.6756,-6.632,-6.617,-6.5974,-6.5897,-6.5897,-6.5897,-6.5897,-6.5897,-6.5897,-6.5897,-6.5897,-6.5897,-6.5897,-6.5897,0.0,0.0,0.0,0.0,0.0,0.0,0.0,0.0,-7.1953,-7.1992,0.0,0.0,0.0,0.0,0.0,-6.5411,-6.4432,-6.3926,-6.3881,-6.3881,-6.4188,-6.482,0.0,0.0,-6.7116,-6.7141,-6.7128,-6.709,-6.6282,-6.6744,-6.8398,-6.9244,-7.0052,-7.0744,-6.9129,-6.9283,-7.0681,-6.9027,-6.7834,-6.7231,-6.8026,-6.7411,-6.6372,-6.959,-6.9321,-6.7167,-6.7128,-6.6051,-6.4512,-6.3666,-6.282,-6.1947,-6.1012,-5.8973,-5.6791,-5.5934,-5.5703,-5.5934,0.0,0.0,0.0,-6.1331,-6.2589,-6.3858,-6.6359,-6.6974,-6.7282,-6.8167,-6.9013,-6.9629,-6.9667,-7.0321,-7.086,-7.086,-7.0898,-7.0898,-7.0898,-7.0898,-7.0898,-7.0898,-7.0898,-7.0898,-7.0898,-7.0898,-7.0898,-7.0898,-7.0898,-7.0898,-7.0898,-7.086,-7.0475,-6.9706,-6.8961,-6.8661,-6.8877,-6.8236,-6.7976,-6.8164,-6.7305,-6.6914,-6.6874,-6.6555,-6.6387,-6.6361,-6.6052,-6.5897,-6.5897,-6.5897,-6.5897,-6.5897,-6.5897,-6.5897,-6.5897,-6.5897,-6.5897,-6.5897,0.0,0.0,0.0,0.0,0.0,-7.1992,-7.1992,-7.1445,-7.1289,0.0,0.0,0.0,-7.0664,-6.9881,-6.8782,-6.7445,-6.7131,-6.6646,-6.5882,-6.5839,-6.5865,-6.5931,-6.7432,-6.7957,-6.7314,-6.7793,-6.7744,-6.709,-6.6282,-6.6436,-6.7475,-6.7705,-6.8282,-6.909,-6.8629,-6.8397,-6.8238,-6.6509,-6.6763,-6.8176,-6.7149,-6.7574,-6.8801,-6.9027,-6.9052,-6.8898,-6.8282,-6.6974,-6.5513,-6.5243,-6.382,-6.1755,-5.9665,-5.7627,-5.6011,-5.578,-5.6137,-5.656,-5.6175,0.0,0.0,0.0,0.0,0.0,-6.2358,-6.3974,-6.5551,-6.6397,-6.7244,-6.8013,-6.8629,-6.9475,-7.0014,-7.0014,-7.0514,-7.0898,-7.0898,-7.0898,-7.0898,-7.0898,-7.0898,-7.0898,-7.0898,-7.0898,-7.0898,-7.0898,-7.0898,-7.0898,-7.0898,-6.9744,-6.9013,-6.8783,-6.8083,-6.7808,-6.7976,-6.7924,-6.7664,-6.7265,-6.7031,-6.6832,-6.6683,-6.6478,-6.632,-6.6153,-6.5963,-6.5897,-6.5897,-6.5897,-6.5897,-6.5897,-6.5897,-6.5897,-6.5897,-6.5897,-6.5897,-6.5897,0.0,0.0,0.0,-7.3437,-7.2578,-7.1992,-7.1992,-7.1562,-7.1406,0.0,0.0,0.0,-7.0664,-7.0234,-6.9453,-6.8281,-6.8203,-6.7771,-6.6777,-6.6737,-6.6631,-6.6488,-6.7982,-6.8544,-6.792,-6.7967,-6.7702,-6.709,-6.5936,-6.559,-6.6051,-6.6436,-6.6704,-6.6889,-6.6889,-6.6541,-6.5799,-6.4535,-6.5226,-6.7204,-6.7174,-6.76,-6.8393,-6.9142,-6.9321,-6.909,-6.859,-6.7552,-6.6359,-6.6013,-6.4205,-6.1716,-5.9511,-5.7857,-5.6626,-5.5895,-5.6329,-5.683,-5.5934,-5.6434,-5.728,-5.7473,0.0,0.0,-6.1012,-6.2204,-6.3358,-6.4589,-6.5474,-6.632,-6.7205,-6.8052,-6.8859,-6.959,-7.009,-7.0514,-7.086,-7.0898,-7.0898,-7.0898,-7.0898,-7.0898,-7.0898,-7.0898,-7.0898,-7.0898,-7.0898,-7.0744,-7.0437,-6.9129,-6.8244,-6.7859,-6.727,-6.7014,-6.7081,-6.7348,-6.7246,-6.6785,-6.6785,-6.668,-6.6512,-6.6361,-6.6204,-6.61,-6.5967,-6.5897,-6.5897,-6.5897,-6.5897,-6.5897,-6.5897,-6.5897,-6.5897,-6.5897,-6.5897,-6.5897,0.0,0.0,-7.4219,-7.3437,-7.2578,-7.1992,-7.1992,-7.1992,-7.1992,0.0,-7.1992,-7.1719,-7.0937,-7.0859,-7.0195,-6.8633,-6.8398,-6.7969,-6.7109,-6.6953,-6.6831,-6.6634,-6.818,-6.8894,-6.8548,-6.7793,-6.7317,-6.7115,-6.5536,-6.478,-6.4743,-6.5435,-6.5434,-6.4812,-6.4724,-6.431,-6.3642,-6.3175,-6.3674,-6.5076,-6.7221,-6.7444,-6.6728,-6.9509,-6.9721,-6.8565,-6.845,-6.7847,-6.6974,-6.6051,-6.4166,-6.1935,-6.0204,-5.9088,-5.8127,-5.6472,-5.6549,-5.6983,-5.6203,-5.5972,-5.6357,-5.7896,-5.7703,0.0,-6.11,-6.1204,-6.1127,-6.282,-6.3782,-6.4589,-6.5436,-6.6282,-6.7321,-6.8898,-6.9283,-6.9744,-7.0744,-7.0898,-7.0898,-7.0898,-7.0898,-7.0898,-7.0898,-7.0898,-7.0898,-7.0898,-7.0898,-7.0552,-6.9744,-6.8859,-6.8013,-6.7128,-6.6618,-6.6361,-6.6361,-6.6673,-6.674,-6.6564,-6.6564,-6.6507,-6.6354,-6.617,-6.609,-6.6051,-6.5955,-6.5897,-6.5897,-6.5897,-6.5897,-6.5897,-6.5897,-6.5897,-6.5897,-6.5897,-6.5897,-6.5897,-7.332,-7.3437,-7.3515,-7.332,-7.2578,-7.1992,-7.1992,-7.1992,-7.1992,-7.1992,-7.1992,-7.1953,-7.1758,-7.1758,-7.1328,-7.0312,-6.9609,-6.8867,-6.8008,-6.7305,-6.6875,-6.6833,-6.7698,-6.8113,-6.8032,-6.7723,-6.7479,-6.7346,-6.6301,-6.576,-6.5641,-6.5219,-6.4957,-6.4783,-6.4225,-6.3609,-6.3031,-6.3598,-6.3672,-6.3502,-6.4563,-6.6434,-6.8569,-6.8324,-6.8798,-6.9512,-6.8805,-6.7927,-6.6859,-6.5359,-6.4051,-6.2781,-6.1089,-5.9973,-5.9088,-5.8088,-5.7896,-5.8011,-5.7857,-5.778,-5.7857,-5.8204,-5.8165,0.0,-5.9704,-5.9896,-6.0242,-6.1973,-6.2486,-6.282,-6.3666,-6.4512,-6.5205,-6.5551,-6.6744,-6.8359,-7.0591,-7.0898,-7.0898,-7.0898,-7.0898,-7.0898,-7.0898,-7.0898,-7.0898,-7.0898,-7.0898,-7.0552,-6.9744,-6.8859,-6.8013,-6.7128,-6.6485,-6.6144,-6.6144,-6.6387,-6.6463,-6.6435,-6.6435,-6.6347,-6.6144,-6.6128,-6.6028,-6.5958,-6.5923,-6.5897,-6.5897,-6.5897,-6.5897,-6.5897,-6.5897,-6.5897,-6.5897,-6.5897,-6.5897,-6.5897,-7.2734,-7.3008,-7.3164,-7.2734,-7.2305,-7.1992,-7.1992,-7.1992,-7.1992,-7.1992,-7.1992,-7.1992,-7.1992,-7.1992,-7.164,-7.0781,-7.0312,-6.957,-6.8281,-6.7773,-6.7344,-6.6914,-6.7648,-6.8017,-6.7897,-6.7812,-6.7481,-6.6904,-6.6042,-6.5325,-6.4822,-6.4463,-6.4333,-6.4429,-6.3647,-6.3159,-6.2913,-6.2913,-6.2689,-6.2539,-6.4533,-6.6375,-6.7926,-6.8148,-6.8722,-6.9278,-6.8346,-6.7354,-6.632,-6.5013,-6.432,-6.3666,-6.1973,-6.1435,-6.1089,-5.9396,-5.9204,-5.9358,-5.855,-5.8319,-5.8319,-5.8319,-5.8319,0.0,0.0,-5.9511,-5.9858,-6.1166,-6.1447,-6.155,-6.1973,-6.2397,-6.2974,-6.382,-6.5013,-6.6436,-6.8167,-6.9513,-7.0437,-7.086,-7.0898,-7.0898,-7.0898,-7.0898,-7.0898,-7.0898,-7.0898,-7.036,-6.9129,-6.8629,-6.7821,-6.6551,-6.6239,-6.6109,-6.6109,-6.6298,-6.6341,-6.6244,-6.6244,-6.6165,-6.5981,-6.5981,-6.5747,-6.5243,-6.5243,-6.5013,-6.4589,-6.4589,-6.4589,-6.4705,-6.5551,-6.5897,-6.5897,-6.5897,-6.5897,-6.5897,-7.2148,-7.2578,-7.2812,-7.2109,-7.1992,-7.1992,-7.1992,-7.1992,-7.1992,-7.1992,-7.1992,-7.1992,-7.1992,-7.1992,-7.1797,-7.125,-7.0898,-7.0195,-6.9023,-6.8633,-6.8125,-6.7422,-6.789,-6.812,-6.7964,-6.781,-6.7301,-6.6435,-6.5573,-6.4777,-6.4052,-6.3759,-6.3677,-6.3803,-6.2956,-6.2638,-6.2695,-6.1992,-6.1875,-6.2422,-6.5091,-6.6163,-6.6313,-6.7745,-6.8349,-6.8339,-6.7493,-6.6668,-6.5804,-6.4917,-6.46,-6.432,-6.2627,-6.2666,-6.282,-6.0435,-6.0358,-6.0704,-5.9204,-5.8781,-5.8781,-5.8781,-5.8781,-5.8934,0.0,0.0,0.0,-6.0435,-6.055,-6.0512,-6.0358,-6.0319,-6.0819,-6.232,-6.332,-6.4243,-6.5243,-6.7321,-6.909,-7.0052,-7.0475,-7.0667,-7.0667,-7.0514,-7.0552,-7.0898,-7.0591,-6.9898,-6.8706,-6.8513,-6.7705,-6.6167,-6.6108,-6.6069,-6.6069,-6.6234,-6.6234,-6.6069,-6.6069,-6.5992,-6.5897,-6.5743,-6.5282,-6.4589,-6.4436,-6.3935,-6.3308,-6.3308,-6.3308,-6.3435,-6.4859,-6.5397,-6.5397,-6.5397,-6.5397,-6.5397,-7.2031,-7.207,-7.2109,-7.2031,-7.1992,-7.1992,-7.1992,-7.1992,-7.1992,-7.1992,-7.1992,-7.1992,-7.1992,-7.1992,-7.2265,-7.2969,-7.1601,-7.0937,-7.1523,-7.0117,-6.9219,-6.9101,-6.8515,-6.8203,-6.8163,-6.7421,-6.6862,-6.6564,-6.5702,-6.5182,-6.4902,-6.3544,-6.2932,-6.2906,-6.2178,-6.1835,-6.1836,-6.1758,-6.2578,-6.4023,-6.4413,-6.4569,-6.4647,-6.5622,-6.6342,-6.6822,-6.6612,-6.6345,-6.5954,-6.5064,-6.4707,-6.432,-6.2627,-6.2666,-6.2974,-6.1166,-6.1281,-6.1755,-6.0781,-6.0512,-6.0512,-6.0512,-6.0512,-6.055,-6.0627,0.0,-6.0473,-5.9781,0.0,-5.9435,-5.8704,0.0,0.0,-5.9781,-6.0666,-6.1781,-6.3358,-6.4512,-6.5743,-6.7321,-6.8898,-6.986,-6.986,-6.9129,-6.9321,-7.0783,-6.9513,-6.8936,-6.9513,-6.8821,-6.7975,-6.6974,-6.6281,-6.5921,-6.5921,-6.5958,-6.5958,-6.5921,-6.5921,-6.5897,-6.5859,-6.5089,-6.4705,-6.4551,-6.3782,-6.3397,-6.3308,-6.3308,-6.3308,-6.332,-6.3512,-6.3589,-6.3589,-6.3589,-6.3589,-6.3589,-7.1992,-7.1992,-7.1992,-7.1992,-7.1992,-7.1992,-7.1992,-7.2422,-7.2578,-7.207,-7.2422,-7.2734,-7.2734,-7.2734,-7.289,-7.3281,-7.2617,-7.1914,-7.1289,-7.0547,-6.9922,-6.9414,-6.9062,-6.8672,-6.8203,-6.7851,-6.7382,-6.6785,-6.5379,-6.4706,-6.4604,-6.2949,-6.2683,-6.3622,-6.2811,-6.3008,-6.3906,-6.289,-6.2578,-6.2851,-6.3359,-6.3242,-6.3047,-6.543,-6.6473,-6.6574,-6.6529,-6.6423,-6.6136,-6.5118,-6.4764,-6.4486,-6.3187,-6.3051,-6.3089,-6.1897,-6.1831,-6.1908,-6.105,-6.0781,-6.0781,-6.0781,-6.0781,-6.0781,-6.0781,-6.0396,-5.9935,-5.9588,0.0,0.0,0.0,0.0,0.0,0.0,-5.9935,-6.105,-6.1743,-6.3012,-6.4474,-6.6205,-6.7051,-6.7667,-6.8129,-6.7859,-6.8167,-6.936,-6.8321,-6.7821,-6.8167,-6.7821,-6.7244,-6.6436,-6.609,-6.5897,-6.5897,-6.5897,-6.5628,-6.5166,-6.5166,-6.4897,-6.4397,-6.4012,-6.3589,-6.3128,-6.2743,-6.232,-6.1858,-6.1858,-6.1858,-6.1858,-6.1858,-6.2435,-6.3308,-6.3308,-6.3308,-6.3308,-7.1992,-7.1992,-7.1992,-7.1992,-7.1992,-7.1992,-7.1992,-7.2539,-7.2734,-7.207,-7.2539,-7.3125,-7.3594,-7.3672,-7.3867,-7.4336,-7.414,-7.3359,-7.1875,-7.1562,-7.1015,-7.0156,-6.9883,-6.9375,-6.8555,-6.832,-6.7656,-6.6523,-6.5273,-6.4531,-6.4258,-6.2773,-6.2734,-6.3906,-6.3281,-6.3711,-6.4805,-6.3789,-6.3125,-6.2812,-6.3476,-6.3476,-6.3398,-6.5664,-6.6596,-6.6685,-6.6685,-6.6596,-6.6279,-6.5302,-6.4947,-6.4662,-6.3433,-6.3179,-6.3168,-6.2086,-6.1908,-6.1908,-6.105,-6.0781,-6.0742,-6.0512,-6.0435,-6.0396,-6.0165,-5.9781,-5.9435,-5.9204,-5.8896,0.0,0.0,0.0,-5.8357,-5.8588,0.0,-6.0435,-6.0435,-6.1473,-6.2897,-6.4628,-6.5243,-6.5859,-6.6667,-6.632,-6.659,-6.7936,-6.7013,-6.6628,-6.709,-6.709,-6.6744,-6.5936,-6.5897,-6.5782,-6.5551,-6.5551,-6.5128,-6.4243,-6.4243,-6.3897,-6.3269,-6.3089,-6.2666,-6.2101,-6.187,-6.1358,-6.0781,-6.0781,-6.0781,-6.0781,-6.0781,-6.155,-6.2627,-6.2627,-6.2627,-6.2627,-7.1992,-7.1992,-7.1992,-7.1992,-7.1992,-7.1992,-7.1992,-7.2031,-7.2031,-7.1992,-7.2031,-7.2695,-7.4375,-7.457,-7.5234,-7.6914,-7.6289,-7.543,-7.4531,-7.3672,-7.2812,-7.1953,-7.1094,-7.0273,-6.9492,-6.8633,-6.7344,-6.5625,-6.5586,-6.5117,-6.4297,-6.3398,-6.3008,-6.3047,-6.3008,-6.3047,-6.3125,-6.3906,-6.4726,-6.5469,-6.5508,-6.6015,-6.664,-6.5937,-6.6172,-6.6875,-6.6875,-6.6745,-6.6457,-6.5637,-6.526,-6.4766,-6.2904,-6.2904,-6.3236,-6.1373,-6.1435,-6.1908,-6.105,-6.0781,-6.0589,-5.9742,-5.955,-5.9358,-5.855,-5.8973,-5.9281,-5.8511,-5.8934,-5.9204,-5.8396,-5.828,-5.855,-5.9319,-5.9511,0.0,0.0,-5.9588,-6.0281,-6.2024,-6.3666,-6.4974,-6.5859,-6.4397,-6.4474,-6.6936,-6.559,-6.5397,-6.7013,-6.709,-6.6744,-6.5936,-6.5897,-6.5474,-6.4666,-6.4628,-6.4205,-6.3346,-6.3346,-6.332,-6.3281,-6.2474,-6.2139,-6.2062,-6.1204,-6.0819,-6.0781,-6.0781,-6.0781,-6.0781,-6.0781,-6.0819,-6.0896,-6.0896,-6.0896,-6.0896,-7.1992,-7.1992,-7.1992,-7.1992,-7.1992,-7.1992,-7.1992,-7.25,-7.3086,-7.3633,-7.4219,-7.5234,-7.6992,-7.7187,-7.7187,-7.7187,-7.6914,-7.6133,-7.4687,-7.3789,-7.3164,-7.2851,-7.2031,-7.1172,-7.0312,-6.9453,-6.8437,-6.7305,-6.6172,-6.5469,-6.5117,-6.3672,-6.332,-6.3828,-6.3242,-6.3633,-6.4687,-6.4414,-6.4453,-6.4726,-6.4726,-6.5625,-6.6875,-6.6562,-6.664,-6.6914,-6.6914,-6.6873,-6.6747,-6.6324,-6.5429,-6.4289,-6.3521,-6.2723,-6.1963,-6.1314,-6.1229,-6.1302,-6.0993,-6.086,-6.0742,-6.0435,-5.9935,-5.9435,-5.9165,-5.8896,-5.8627,-5.8357,-5.8511,-5.8627,-5.8357,-5.8742,-5.9165,-5.9473,-5.9973,-6.0165,0.0,-5.905,-5.9358,-6.105,-6.2243,-6.3051,-6.3371,-6.2858,-6.332,-6.5282,-6.3897,-6.3666,-6.5359,-6.5436,-6.5051,-6.4205,-6.4743,-6.4628,-6.3743,-6.3743,-6.332,-6.2512,-6.2512,-6.2204,-6.1627,-6.1358,-6.1243,-6.1204,-6.0935,-6.0781,-6.0781,-6.0781,-6.0781,-6.0781,-6.0781,-6.0781,-6.0781,-6.0781,-6.0781,-6.0781,-7.207,-7.1992,-7.1992,-7.1992,-7.1992,-7.1992,-7.1992,-7.2734,-7.3594,-7.4492,-7.5351,-7.668,-7.8711,-7.8945,-7.8711,-7.8125,-7.8086,-7.7109,-7.4765,-7.4375,-7.3945,-7.332,-7.2773,-7.2031,-7.1172,-7.0312,-6.914,-6.7734,-6.6914,-6.6211,-6.5586,-6.414,-6.375,-6.4258,-6.3398,-6.3789,-6.5117,-6.4883,-6.4922,-6.5234,-6.5234,-6.5898,-6.6914,-6.6914,-6.6914,-6.6914,-6.6914,-6.6914,-6.6874,-6.6742,-6.5991,-6.4967,-6.4172,-6.3161,-6.2177,-6.1501,-6.1214,-6.1112,-6.1112,-6.1053,-6.0887,-6.0587,-6.0084,-5.9601,-5.9233,-5.8981,-5.8796,-5.8726,-5.8973,-5.9204,-5.9204,-5.9627,-5.9973,-5.9973,-6.0435,-6.0396,0.0,-5.8627,-5.8704,-5.9781,-6.0666,-6.1281,-6.1601,-6.1639,-6.2204,-6.3589,-6.2716,-6.2704,-6.4051,-6.4128,-6.3897,-6.332,-6.3858,-6.3743,-6.2897,-6.2858,-6.2474,-6.1639,-6.1639,-6.1331,-6.0781,-6.0781,-6.0781,-6.0781,-6.0781,-6.0781,-6.0781,-6.0781,-6.0781,-6.0781,-6.0781,-6.0781,-6.0781,-6.0781,-6.0781,-6.0781,-7.2148,-7.1992,-7.1992,-7.1992,-7.1992,-7.1992,-7.1992,-7.2773,-7.3672,-7.4609,-7.5508,-7.7031,-7.957,-7.9844,-7.9805,-7.9726,-7.9687,-7.8281,-7.4961,-7.5469,-7.5156,-7.3515,-7.3359,-7.289,-7.207,-7.1172,-6.9492,-6.7109,-6.7812,-6.7344,-6.5703,-6.4765,-6.4297,-6.4258,-6.3359,-6.3437,-6.4336,-6.5195,-6.6055,-6.6914,-6.6914,-6.6914,-6.6914,-6.6914,-6.6914,-6.6914,-6.6914,-6.6914,-6.6914,-6.6914,-6.6875,-6.6523,-6.4694,-6.4088,-6.3683,-6.1861,-6.1306,-6.1295,-6.1295,-6.1289,-6.1095,-6.0289,-6.0016,-5.9748,-5.8793,-5.9202,-5.9761,-5.9573,-6.02,-6.0804,-6.0804,-6.0793,-6.0781,-6.0742,-6.0666,-6.005,-5.8511,-5.8242,-5.8204,-5.828,-5.8934,-5.9742,-6.0704,-6.0742,-6.1127,-6.2024,-6.2024,-6.232,-6.3205,-6.3231,-6.3243,-6.3192,-6.3243,-6.2858,-6.2062,-6.2062,-6.1639,-6.0781,-6.0781,-6.0781,-6.0781,-6.0781,-6.0781,-6.0781,-6.0781,-6.0781,-6.0781,-6.0781,-6.0781,-6.0781,-6.0781,-6.0781,-6.0781,-6.0781,-6.0781,-6.0781,-7.2031,-7.1992,-7.1992,-7.1992,-7.1992,-7.1992,-7.1992,-7.3281,-7.4805,-7.6328,-7.7812,-7.9453,-8.1406,-8.164,-8.1094,-7.9805,-7.9687,-7.8789,-7.668,-7.6133,-7.5703,-7.5234,-7.3984,-7.3203,-7.2969,-7.1484,-7.039,-6.9726,-6.8711,-6.7969,-6.75,-6.5312,-6.4297,-6.4219,-6.2695,-6.289,-6.4297,-6.4531,-6.5508,-6.6914,-6.6914,-6.6914,-6.6914,-6.6914,-6.6914,-6.6914,-6.6914,-6.6914,-6.6914,-6.6914,-6.6484,-6.5742,-6.4607,-6.3785,-6.3042,-6.194,-6.1517,-6.1467,-6.1467,-6.1369,-6.125,-6.1017,-6.0478,-5.9927,-5.9658,-5.9801,-5.9944,-5.9897,-6.045,-6.0944,-6.0944,-6.086,-6.0589,-5.9935,-5.8781,-5.805,-5.828,-5.7165,-5.6857,-5.8165,-5.7896,-5.8473,-6.0589,-6.0204,-6.0473,-6.1985,-6.0896,-6.0819,-6.232,-6.2397,-6.2089,-6.1473,-6.205,-6.2012,-6.1127,-6.1127,-6.1012,-6.0781,-6.0781,-6.0781,-6.0781,-6.0781,-6.0781,-6.0781,-6.0781,-6.0781,-6.0781,-6.0781,-6.0781,-6.0781,-6.0781,-6.0781,-6.0781,-6.0781,-6.0781,-6.0781,-7.207,-7.2305,-7.2461,-7.207,-7.2969,-7.3594,-7.3203,-7.3633,-7.4805,-7.6914,-7.8359,-7.9687,-8.1015,-8.1836,-8.1758,-8.039,-8.0273,-7.9414,-7.7344,-7.7109,-7.6719,-7.5937,-7.4961,-7.4258,-7.3867,-7.2539,-7.1445,-7.0703,-6.9414,-6.8398,-6.7578,-6.5351,-6.4101,-6.3672,-6.2305,-6.2461,-6.3789,-6.4531,-6.543,-6.6367,-6.6758,-6.6914,0.0,-6.6914,-6.6914,-6.6914,-6.6914,-6.6914,-6.6914,-6.6914,-6.6562,-6.5937,-6.4687,-6.3945,-6.332,-6.207,-6.1636,-6.1582,-6.1582,-6.152,-6.1488,-6.1488,-6.1101,-6.0744,-6.0659,-6.0647,-6.0628,-6.0567,-6.0801,-6.0997,-6.0997,-6.0902,-6.0512,-5.9627,-5.8396,-5.7588,-5.7703,-5.6896,-5.6626,-5.7627,-5.7627,-5.828,-6.005,-5.9781,-6.005,-6.1435,-6.0627,-6.0512,-6.1485,-6.1524,-6.132,-6.0819,-6.1293,-6.1281,-6.0781,-6.0781,-6.0781,-6.0781,-6.0781,-6.0781,-6.0781,-6.0781,-6.0781,-6.0781,-6.0781,-6.0781,-6.0781,-6.0781,-6.0781,-6.0781,-6.0781,-6.0781,-6.0781,-6.0781,-6.0781,-6.0781,-7.2305,-7.2851,-7.3164,-7.2187,-7.4062,-7.5547,-7.5039,-7.4492,-7.4961,-7.7226,-7.8398,-7.9258,-7.9961,-8.1406,-8.1953,-8.1094,-8.1015,-7.9961,-7.7539,-7.8086,-7.7773,-7.6133,-7.5859,-7.539,-7.4609,-7.3633,-7.2344,-7.0703,-6.9883,-6.8594,-6.6875,-6.5117,-6.3828,-6.2969,-6.2109,-6.2265,-6.3281,-6.4922,-6.5664,-6.5859,-6.6601,-6.6953,-6.707,-6.707,-6.7148,-6.7226,-6.7109,-6.6992,-6.6914,-6.6914,-6.6914,-6.6601,-6.4844,-6.4297,-6.3945,-6.2226,-6.1719,-6.1719,-6.1719,-6.1719,-6.1719,-6.1719,-6.1719,-6.1678,-6.1568,-6.1517,-6.1498,-6.1369,-6.12,-6.1048,-6.1048,-6.074,-6.0204,-5.9473,-5.855,-5.7703,-5.6945,-5.6945,-5.6945,-5.683,-5.7588,0.0,-5.9088,-5.9281,-5.9742,-6.0742,-6.0704,-6.0666,-6.0781,-6.0781,-6.0781,-6.0781,-6.0781,-6.0781,-6.0781,-6.0781,-6.0781,-6.0781,-6.0781,-6.0781,-6.0781,-6.0781,-6.0781,-6.0781,-6.0781,-6.0781,-6.0781,-6.0781,-6.0781,-6.0781,-6.0781,-6.0781,-6.0781,-6.0781,-6.0781,-6.0781,-7.3086,-7.3789,-7.3867,-7.2265,-7.3555,-7.5273,-7.6562,-7.7773,-7.875,-7.9219,-8.0664,-8.1679,-8.1836,-8.2109,-8.1953,-8.1094,-8.1015,-8.0234,-7.8398,-7.8437,-7.8047,-7.7031,-7.5586,-7.4765,-7.4609,-7.3047,-7.1719,-7.0703,-6.9883,-6.8594,-6.6875,-6.5117,-6.3828,-6.2969,-6.2109,-6.2578,-6.414,-6.5156,-6.6015,-6.668,-6.6836,-6.7344,-6.7969,-6.7969,-6.8398,-6.8867,-6.8203,-6.75,-6.6914,-6.6914,-6.6914,-6.6601,-6.4844,-6.4297,-6.3945,-6.2226,-6.1719,-6.1719,-6.1719,-6.1719,-6.1719,-6.1719,-6.1719,-6.168,-6.1678,-6.1678,-6.1677,-6.1634,-6.1421,-6.1246,-6.1246,-5.9851,-5.8704,-5.855,-5.7203,-5.6088,-5.5934,-5.656,-5.6714,-5.6011,-5.6714,-5.7291,-5.7407,-5.8088,-5.9165,-6.0666,-6.0127,-6.005,-6.0742,-6.0781,-6.0781,0.0,-6.0781,-6.0781,0.0,0.0,-6.0781,-6.0781,-6.0781,-6.0781,-6.0781,-6.0781,-6.0781,-6.0781,-6.0781,-6.0781,-6.0781,-6.0781,-6.0781,-6.0781,-6.0781,-6.0781,-6.0781,-6.0781,-6.0781,-6.0781,-7.5312,-7.5312,-7.5156,-7.4765,-7.5742,-7.7031,-7.8281,-7.9961,-8.0703,-7.9805,-8.0429,-8.0937,-8.0937,-8.1758,-8.2148,-8.1719,-8.125,-8.0469,-7.9219,-7.8711,-7.8125,-7.7226,-7.5976,-7.5078,-7.4609,-7.332,-7.2031,-7.0703,-6.9883,-6.8594,-6.6875,-6.5117,-6.3828,-6.2969,-6.2578,-6.2851,-6.375,-6.5508,-6.6523,-6.6953,-6.7383,-6.8086,-6.8828,-6.8359,-6.8437,-6.8711,-6.8359,-6.7656,-6.6914,-6.6914,-6.6914,-6.668,-6.539,-6.4648,-6.4062,-6.2734,-6.2031,-6.1719,-6.1719,-6.1719,-6.1719,-6.1719,-6.1719,-6.1719,-6.1719,-6.1719,-6.1719,-6.1719,-6.1525,-6.1354,-6.1186,-6.0369,-5.9541,-5.8995,-5.8204,-5.7511,-5.7126,-5.7396,-5.7357,-5.6483,-5.6753,-5.6983,-5.6983,-5.7357,-5.8319,-6.0012,-5.9742,-5.9896,-6.0742,-6.0358,-6.0319,0.0,0.0,0.0,-6.0781,0.0,-6.0781,-6.0781,-6.0781,-6.0781,-6.0781,-6.0781,-6.0781,-6.0781,-6.0781,-6.0781,-6.0781,-6.0781,-6.0781,-6.0781,-6.0781,-6.0781,-6.0781,-6.0781,-6.0781,-6.0781,-7.7539,-7.707,-7.6797,-7.7148,-7.8047,-7.8984,-7.9609,-8.1172,-8.1797,-8.0429,-8.0234,-8.0234,-8.0234,-8.1484,-8.2304,-8.2304,-8.1484,-8.0625,-7.9765,-7.8945,-7.8125,-7.7226,-7.6367,-7.5508,-7.4609,-7.375,-7.2461,-7.0703,-6.9883,-6.8594,-6.6875,-6.5117,-6.3828,-6.3008,-6.3008,-6.332,-6.3945,-6.6015,-6.7109,-6.75,-6.8203,-6.8984,-6.9687,-6.8984,-6.8711,-6.8711,-6.8515,-6.789,-6.7148,-6.6953,-6.6914,-6.6758,-6.5859,-6.5117,-6.4375,-6.332,-6.25,-6.1953,-6.1758,-6.1719,-6.1719,-6.1719,-6.1719,-6.1719,-6.1719,-6.1719,-6.1719,-6.1719,-6.1585,-6.1413,-6.1104,-6.0918,-6.0532,-5.9693,-5.9419,-5.9051,-5.8407,-5.8434,-5.8242,-5.7357,-5.7291,-5.7214,-5.7022,-5.683,-5.7368,-5.8858,-5.9319,-5.9819,-6.0473,-5.9858,-5.9742,-6.0242,-5.9588,-5.9588,-6.0242,0.0,-6.0358,-6.0512,-6.0512,-6.0627,-6.0781,-6.0781,-6.0781,-6.0781,-6.0781,-6.0781,-6.0781,-6.0781,-6.0781,-6.0781,-6.0781,-6.0781,-6.0781,-6.0781,-6.0781,-6.0781,-7.8672,-7.8906,-7.8906,-7.7461,-7.8515,-7.9609,-7.9687,-8.1172,-8.2226,-8.207,-8.207,-8.207,-8.207,-8.2187,-8.2304,-8.2304,-8.1484,-8.0625,-7.9765,-7.8945,-7.8125,-7.7226,-7.6367,-7.5508,-7.4609,-7.375,-7.2461,-7.0703,-6.9844,-6.8555,-6.6875,-6.5117,-6.3828,-6.3008,-6.3008,-6.4336,0.0,-6.6797,-6.7812,-6.9258,-6.9336,-6.9844,-7.0586,-7.0508,-7.0469,-7.0351,-6.957,-6.8789,-6.7969,-6.7187,-6.6914,-6.6758,-6.5859,-6.5547,-6.5156,-6.3476,-6.293,-6.2695,-6.1914,-6.1719,-6.1719,-6.1719,-6.1719,-6.1719,-6.1719,-6.1719,-6.1719,-6.1719,-6.1585,-6.1435,-6.1295,-6.061,-6.0015,-5.9813,-5.9112,-5.8538,-5.8314,-5.8934,-5.9088,-5.828,-5.8165,-5.7857,-5.7099,-5.6291,-5.6203,-5.7176,-5.8627,-5.955,-5.9627,-5.955,-5.9204,-5.855,-5.8473,-5.8434,-5.855,-5.855,-5.8896,-5.9627,-5.9627,-6.005,-6.0781,-6.0781,-6.0781,-6.0781,-6.0781,-6.0781,-6.0781,-6.0781,-6.0781,-6.0781,-6.0781,-6.0781,-6.0781,-6.0781,-6.0781,-6.0781,-8.0898,-8.0195,-7.9805,-8.0195,-7.9961,-8.0039,-8.1094,-8.1836,-8.2304,-8.2304,-8.2304,-8.2304,-8.2304,-8.2304,-8.2109,-8.1562,-8.0703,-7.9883,-7.9023,-7.8203,-7.7578,-7.7226,-7.6367,-7.5508,-7.4609,-7.375,-7.2461,-7.0703,-6.9883,-6.8867,-6.7656,-6.5898,-6.4609,-6.3828,-6.4883,-6.5937,-6.6992,-6.8515,-6.957,-7.0195,-6.9687,-6.9961,-7.0664,-7.0156,-6.9961,-6.9883,-6.957,-6.8906,-6.8086,-6.7187,-6.6914,-6.6836,-6.6484,-6.6015,-6.5469,-6.4765,-6.3828,-6.293,-6.2578,-6.2109,-6.1719,-6.1719,-6.1719,-6.1719,-6.1719,-6.1719,-6.1719,-6.1719,-6.1677,-6.158,-6.1428,-6.1136,-6.0867,-6.0715,-6.0416,-6.0155,-6.0111,-6.0247,-6.0142,-5.9398,-5.8722,-5.8,-5.7216,-5.6269,-5.6049,-5.6945,-5.7638,-5.8242,-5.8742,-5.828,-5.8088,-5.828,0.0,-5.8319,-5.8319,-5.9319,-5.9704,-5.9511,-6.0012,-6.0473,-6.0781,-6.0781,-6.0781,-6.0781,-6.0781,-6.0781,-6.0781,-6.0781,-6.0781,-6.0781,-6.0781,-6.0781,-6.0781,-6.0781,-6.0781,-6.0781,-8.2265,-8.1328,-8.0859,-8.2109,-8.1289,-8.0898,-8.2109,-8.2304,-8.2304,-8.2304,-8.2304,-8.2304,-8.2304,-8.2304,-8.1953,-8.1094,-8.0195,-7.9375,-7.8555,-7.7695,-7.7187,-7.7187,-7.6601,-7.5859,-7.5,-7.4375,-7.3203,-7.1445,-7.0625,-6.9805,-6.8906,-6.7187,-6.6055,-6.5508,-6.6719,-6.7578,-6.8125,-6.9922,-7.0859,-7.1015,-7.0469,-7.0586,-7.1015,-7.0469,-6.9883,-6.9414,-6.9492,-6.8789,-6.7734,-6.7109,-6.6914,-6.6914,-6.6914,-6.6484,-6.5937,-6.5664,-6.4726,-6.3711,-6.3437,-6.2734,-6.207,-6.207,-6.1875,-6.1719,-6.1719,-6.1719,-6.1719,-6.1719,-6.1719,-6.1678,-6.1579,-6.1573,-6.1512,-6.1373,-6.1349,-6.1339,-6.1295,-6.1186,-6.0779,-6.0015,-5.8987,-5.8066,-5.7271,-5.6318,-5.6126,-5.7061,-5.684,-5.702,-5.7857,-5.7319,-5.7165,0.0,0.0,0.0,-5.7934,-5.9088,-5.9627,-5.9511,-5.9896,-6.0319,-6.0781,-6.0781,-6.0781,-6.0781,-6.0781,-6.0781,-6.0781,-6.0781,-6.0781,-6.0781,-6.0781,-6.0781,-6.0781,-6.0781,-6.0781,-6.0781,-8.2148,-8.2265,-8.2265,-8.2304,-8.2265,-8.2265,-8.2304,-8.2304,-8.2304,-8.2304,-8.2304,-8.2304,-8.2304,-8.2304,-8.1953,-8.1094,-8.0195,-7.9375,-7.8555,-7.7695,-7.7187,-7.7187,-7.7187,-7.6797,-7.5898,-7.5859,-7.5,-7.3281,-7.2383,-7.1523,-7.0625,0.0,-6.8164,-6.8164,-6.8164,-6.9101,-7.0664,-7.0703,-7.1211,-7.1992,-7.1953,-7.1992,-7.1992,-7.1953,-7.0898,-6.9414,-6.9492,-6.8398,-6.6914,-6.6914,-6.6914,-6.6914,-6.6914,-6.6875,-6.6719,-6.5859,-6.5586,-6.539,-6.4531,-6.3633,-6.2969,-6.2969,-6.2344,-6.1719,-6.1719,-6.1719,-6.1719,-6.1719,-6.1719,-6.1719,-6.1719,-6.1719,-6.1638,-6.1515,-6.1501,-6.1432,-6.1306,-6.1283,-6.0916,-5.9916,-5.903,-5.8178,-5.7271,-5.6419,-5.6318,-5.7314,-5.6463,-5.6248,-5.6994,-5.7022,-5.6599,-5.5742,-5.656,0.0,-5.7022,-5.706,-5.7868,-5.9473,-5.8704,-5.9204,-6.0781,-6.0781,-6.0781,-6.0781,-6.0781,-6.0781,-6.0781,-6.0781,-6.0781,-6.0781,-6.0781,-6.0781,-6.0781,-6.0781,-6.0781,-6.0781,-8.1367,-8.1875,-8.2304,-8.2304,-8.2304,-8.2304,-8.2304,-8.2304,-8.2304,-8.2304,-8.2304,-8.2304,-8.2304,-8.2304,-8.1719,-8.0234,-7.9844,-7.9101,-7.7695,-7.7344,-7.7187,-7.7187,-7.7187,-7.6797,-7.5937,-7.5898,-7.5039,-7.3281,-7.2422,-7.125,-6.9805,-6.9297,-6.9062,-6.9023,-6.9648,-7.0195,-7.0742,-7.1328,-7.1758,-7.1953,-7.1367,-7.1094,-7.1094,-7.1094,-7.043,-6.9453,-6.9492,-6.875,-6.7695,-6.7109,-6.6914,-6.6914,-6.6914,-6.6914,-6.6836,-6.6562,-6.6055,-6.5547,-6.5273,-6.4531,-6.375,-6.3164,-6.2773,-6.2422,-6.1836,-6.1719,-6.1719,-6.1719,-6.1719,-6.1719,-6.1719,-6.1719,-6.1679,-6.1636,-6.1634,-6.1631,-6.158,-6.1501,-6.1123,-6.0297,-5.928,-5.8342,-5.7619,-5.7159,-5.6758,-5.6417,-5.6629,-5.6875,-5.7107,-5.6472,-5.6252,0.0,-5.7434,0.0,-5.7896,-5.9011,-5.955,-5.9511,-5.9858,-6.0281,-6.0781,-6.0781,-6.0781,-6.0781,-6.0781,-6.0781,-6.0781,-6.0781,-6.0781,-6.0781,-6.0781,-6.0781,-6.0781,-6.0781,-6.0781,-6.0781,-8.1289,-8.164,-8.1914,-8.2226,-8.2304,-8.2304,-8.2304,-8.2304,-8.2304,-8.2304,-8.2304,-8.2187,-8.1836,-8.1797,-8.125,-7.9805,-7.9414,-7.8672,-7.7305,-7.7187,-7.7187,-7.7187,-7.7187,-7.6953,-7.6406,-7.6055,-7.5195,-7.3789,-7.2578,-7.1445,-7.039,-7.043,-7.043,-7.039,-7.0937,-7.1172,-7.1211,-7.1758,-7.1992,-7.1953,-7.1406,-7.1172,-7.1172,-7.1172,-7.0664,-6.9922,-6.957,-6.8906,-6.8086,-6.7187,-6.6914,-6.6914,-6.6914,-6.6914,-6.6914,-6.6914,-6.6523,-6.6094,-6.6094,-6.5469,-6.4648,-6.4101,-6.3711,-6.3242,-6.2383,-6.1953,-6.1719,-6.1719,-6.1719,-6.1719,-6.1719,-6.1719,-6.1719,-6.1719,-6.1719,-6.1719,-6.1719,-6.1633,-6.1154,-5.9992,-5.9505,-5.887,-5.7794,-5.7868,-5.7741,-5.7201,-5.7576,-5.7702,-5.7385,-5.6355,-5.6165,-5.7052,-5.7939,-5.8505,-5.8742,-5.9473,-5.9896,-5.9973,-6.055,-6.0781,-6.0781,-6.0781,-6.0781,-6.0781,-6.0781,-6.0781,-6.0781,-6.0781,-6.0781,-6.0781,-6.0781,-6.0781,-6.0781,-6.0781,-6.0781,-6.0781,-8.1562,-8.1445,-8.1172,-8.207,-8.2226,-8.2226,-8.2304,-8.2265,-8.2226,-8.2226,-8.2148,-8.1797,-8.1015,-8.0859,-8.0508,-7.9687,-7.8945,-7.8125,-7.7265,-7.7187,-7.7187,-7.7187,-7.7187,-7.7187,-7.7109,-7.6328,-7.543,-7.4492,-7.2812,-7.1992,-7.1992,-7.1992,-7.1992,-7.1992,-7.1992,-7.1992,-7.1992,-7.1992,-7.1992,-7.1992,-7.1992,-7.1992,-7.1992,-7.1992,-7.1445,-7.0586,-6.9765,-6.8984,-6.8164,-6.7344,-6.7031,-6.6992,-6.6992,-6.6953,-6.6914,-6.6914,-6.6914,-6.6914,-6.6914,-6.6328,-6.5664,-6.5625,-6.4922,-6.4062,-6.3203,-6.2383,-6.1758,-6.1719,-6.1719,-6.1719,-6.1719,-6.1719,-6.1719,-6.1719,-6.1719,-6.1719,-6.1719,-6.164,-6.0934,-5.9141,-5.9641,-5.9485,-5.7882,-5.847,-5.8998,-5.9179,-5.8962,-5.8502,-5.7757,0.0,-5.642,-5.7295,-5.8148,-5.8924,-5.9584,-5.8814,-5.9188,-6.0704,-6.0704,-6.0742,-6.0781,-6.0781,-6.0781,-6.0781,-6.0781,-6.0781,-6.0781,-6.0781,-6.0781,-6.0781,-6.0781,-6.0781,-6.0781,-6.0781,-6.0781,-6.0781,-7.9257,-7.9726,-8.0273,-8.1172,-8.1328,-8.1523,-8.2187,-8.1758,-8.1328,-8.1328,-8.0742,-8.0234,-8.0039,-7.9453,-7.9023,-7.8789,-7.8594,-7.8125,-7.7265,-7.7187,-7.7187,-7.7187,-7.7187,-7.6875,-7.6211,-7.6015,-7.5156,-7.3594,-7.2539,-7.1992,-7.1992,-7.1992,-7.1992,-7.1992,-7.1992,-7.1992,-7.1992,-7.1992,-7.1992,-7.1992,-7.1992,-7.1992,-7.1992,-7.1992,-7.1445,-7.0664,-7.0469,-6.9844,-6.9101,-6.8945,-6.8437,-6.789,-6.789,-6.7422,-6.6914,-6.6914,-6.6914,-6.6914,-6.6914,-6.6758,-6.6445,-6.5781,-6.4922,-6.4062,-6.3203,-6.2851,-6.25,-6.1836,-6.1719,-6.1719,-6.1719,-6.1719,-6.1719,-6.1719,-6.1719,-6.1719,-6.1719,-6.1133,-6.0312,-5.9255,-5.9294,-5.902,-5.7966,-5.863,-5.9094,-5.8994,-5.8353,-5.7913,-5.7718,-5.7446,-5.7614,-5.8318,-5.9179,-5.9986,-6.0644,-5.9832,-5.9582,-5.9819,-5.9819,-6.0165,-6.0781,-6.0781,-6.0781,-6.0781,-6.0781,-6.0781,-6.0781,-6.0781,-6.0781,-6.0781,-6.0781,-6.0781,-6.0781,-6.0781,-6.0781,-6.0781,-7.8807,-7.9333,-7.9961,-8.0859,-8.1328,-8.1758,-8.2226,-8.1562,-8.1015,-8.1015,-8.0234,-7.957,-7.918,-7.875,-7.8359,-7.793,-7.789,-7.7695,-7.7226,-7.7187,-7.7187,-7.7187,-7.7187,-7.6797,-7.5937,-7.5508,-7.4453,-7.2695,-7.2226,-7.1992,-7.1992,-7.1992,-7.1992,-7.1992,-7.1992,-7.1992,-7.1992,-7.1992,-7.1992,-7.1992,-7.1992,-7.1992,-7.1992,-7.1992,-7.1719,-7.125,-7.0859,-7.039,-6.9922,-6.957,-6.914,-6.875,-6.8789,-6.8203,-6.75,-6.75,-6.7226,-6.6914,-6.6914,-6.6914,-6.6797,-6.6328,-6.5547,-6.4687,-6.3789,-6.3281,-6.2734,-6.1875,-6.1719,-6.1719,-6.1719,-6.1719,-6.1719,-6.1719,-6.1719,-6.1719,-6.1719,-6.0937,-6.0234,-5.9805,-5.9765,-5.957,-5.9101,-5.9844,-5.9999,-5.9087,-5.8969,-5.8617,-5.7835,-5.8539,-5.8905,-5.8776,-5.9633,-6.0227,-6.0561,-5.9653,-5.9145,-5.904,-5.9337,-5.9973,-6.0781,-6.0781,-6.0781,-6.0781,-6.0781,-6.0781,-6.0781,-6.0781,-6.0781,-6.0781,-6.0781,-6.0781,-6.0781,-6.0781,-6.0781,-6.0781,-7.8846,-7.9106,-7.9565,-8.0584,-8.1365,-8.1952,-8.2265,-8.1445,-8.0781,-8.0781,-7.9922,-7.9062,-7.8398,-7.8281,-7.8008,-7.7265,-7.7187,-7.7187,-7.7187,-7.7187,-7.7187,-7.7187,-7.7187,-7.6719,-7.5742,-7.4726,-7.3476,-7.1992,-7.1992,-7.1992,-7.1992,-7.1992,-7.1992,-7.1992,-7.1992,-7.1992,-7.1992,-7.1992,-7.1992,-7.1992,-7.1992,-7.1992,-7.1992,-7.1992,-7.1992,-7.1914,-7.1172,-7.0898,-7.0781,-7.0039,-6.9726,-6.9609,-6.9648,-6.9101,-6.8359,-6.8242,-6.7695,-6.707,-6.6953,-6.6914,-6.6914,-6.6914,-6.6328,-6.5586,-6.4687,-6.3906,-6.3164,-6.2265,-6.2109,-6.2109,-6.2109,-6.1992,-6.1914,-6.1914,-6.1797,-6.1719,-6.1719,0.0,-6.039,-6.039,-6.039,-6.039,-6.039,-6.1055,-6.0976,-5.9687,-5.9961,-5.9648,-5.8359,-5.9648,-5.9996,-5.9136,-5.9956,-6.0308,-6.0033,-5.9134,-5.8704,-5.8704,-5.922,-5.9973,-6.0781,-6.0781,-6.0781,-6.0781,-6.0781,-6.0781,-6.0781,-6.0781,-6.0781,-6.0781,-6.0781,-6.0781,-6.0781,-6.0781,-6.0781,-6.0781,-7.6986,-7.7079,-7.7607,-7.9353,-7.9756,-8.04,-8.2031,-8.0937,-7.9883,-7.9883,-7.8555,-7.7539,-7.7422,-7.7383,-7.7344,-7.7226,-7.7187,-7.7187,-7.7187,-7.7187,-7.7187,-7.7187,-7.7187,-7.6445,-7.4844,-7.3242,-7.2265,-7.1992,-7.1992,-7.1992,-7.1992,-7.1992,-7.1992,-7.1992,-7.1992,-7.1992,-7.1992,-7.1992,-7.1992,-7.1992,-7.1992,-7.1992,-7.1992,-7.1992,-7.1992,-7.1992,-7.1836,-7.1797,-7.1797,-7.164,-7.1094,-7.0508,-7.0508,-6.9961,-6.914,-6.8437,-6.8086,-6.7851,-6.7109,-6.6914,-6.6914,-6.6914,-6.6797,-6.6484,-6.5586,-6.5273,-6.4961,-6.4062,-6.3906,-6.3906,-6.3906,-6.3281,-6.2812,-6.2812,-6.2187,-6.1719,-6.1719,0.0,-6.039,-6.039,-6.039,-6.039,-6.039,-6.0508,-6.0781,-6.1289,-6.0117,-5.957,-6.0,-6.0273,-6.0312,-6.0155,-6.1014,-6.1041,-6.0162,-5.9801,-5.9611,-5.9603,-5.9539,-5.9973,-6.0781,-6.0781,-6.0781,-6.0781,-6.0781,-6.0781,-6.0781,-6.0781,-6.0781,-6.0781,-6.0781,-6.0781,-6.0781,-6.0781,-6.0781,-6.0781,-7.6497,-7.6902,-7.7552,-7.8453,-7.9322,-8.011,-8.0675,-8.0057,-7.9439,-7.9101,-7.7969,-7.7187,-7.7187,-7.7187,-7.7187,-7.7187,-7.7187,-7.7187,-7.7187,-7.7187,-7.7187,-7.7187,-7.7187,-7.6367,-7.4648,-7.3359,-7.2461,-7.1992,-7.1992,-7.1992,-7.1992,-7.1992,-7.1992,-7.1992,-7.1992,-7.1992,-7.1992,-7.1992,-7.1992,-7.1992,-7.1992,-7.1992,-7.1992,-7.1992,-7.1992,-7.1992,-7.1992,-7.1992,-7.1992,-7.1992,-7.1719,-7.1406,-7.1406,-7.082,-6.9961,-6.9101,-6.8203,-6.7422,-6.6992,-6.6914,-6.6914,-6.6914,-6.6914,-6.668,-6.5781,-6.5586,-6.5351,-6.4492,-6.4297,-6.4297,-6.4297,-6.3984,-6.3711,-6.3711,-6.2969,-6.2383,-6.2383,-6.125,-6.0586,-6.1055,-6.0703,-6.0586,-6.1055,-6.1094,-6.1055,-6.1015,-6.0273,-6.0,-6.039,-6.039,-6.0625,-6.1094,-6.1015,-6.078,-6.0302,-5.9654,-5.9555,-6.0022,-5.9775,-6.0094,-6.0895,-6.0823,-6.0781,-6.0781,-6.0781,-6.0781,-6.0781,-6.0781,-6.0781,-6.0781,-6.0781,-6.0781,-6.0781,-6.0781,-6.0781,-6.0781,-7.6347,-7.6883,-7.755,-7.7796,-7.8893,-7.9664,-7.9408,-7.9205,-7.8933,-7.8509,-7.7694,-7.7187,-7.7187,-7.7187,-7.7187,-7.7187,-7.7187,-7.7187,-7.7187,-7.7187,-7.7187,-7.7187,-7.6992,-7.6172,-7.4648,-7.375,-7.2851,-7.1992,-7.1992,-7.1992,-7.1992,-7.1992,-7.1992,-7.1992,-7.1992,-7.1992,-7.1992,-7.1992,-7.1992,-7.1992,-7.1992,-7.1992,-7.1992,-7.1992,-7.1992,-7.1992,-7.1992,-7.1992,-7.1992,-7.1992,-7.1992,-7.1992,-7.1992,-7.1523,-7.082,-6.9961,-6.8515,-6.7148,-6.6953,-6.6914,-6.6914,-6.6914,-6.6914,-6.6719,-6.6055,-6.5898,-6.5703,-6.5039,-6.4883,-6.4883,-6.4883,-6.4726,-6.4531,-6.4336,0.0,-6.293,-6.2734,-6.1562,-6.0937,-6.1601,-6.1094,-6.0976,-6.164,-6.1719,-6.1406,-6.0742,-6.0703,-6.0703,-6.0703,-6.0703,-6.1015,-6.168,-6.1055,-6.0703,-6.0703,-5.9898,-5.9826,-6.0486,-6.0268,-6.0436,-6.0997,-6.0874,-6.0811,-6.0781,-6.0781,-6.0781,-6.0781,-6.0781,-6.0781,-6.0781,-6.0781,-6.0781,-6.0781,-6.0781,-6.0781,-6.0781,-7.602,-7.6087,-7.6442,-7.7456,-7.7733,-7.8108,-7.908,-7.8691,-7.8253,-7.8221,-7.7646,-7.7187,-7.7187,-7.7187,-7.7187,-7.7187,-7.7187,-7.7187,-7.7187,-7.7187,-7.7187,-7.7187,-7.6445,-7.5547,-7.4609,-7.375,-7.2851,-7.1992,-7.1992,-7.1992,-7.1992,-7.1992,-7.1992,-7.1992,-7.1992,-7.1992,-7.1992,-7.1992,-7.1992,-7.1992,-7.1992,-7.1992,-7.1992,-7.1992,-7.1992,-7.1992,-7.1992,-7.1992,-7.1992,-7.1992,-7.1992,-7.1992,-7.1992,-7.1953,-7.1719,-7.0859,-6.9414,-6.793,-6.7109,-6.6914,-6.6914,-6.6914,-6.6914,-6.6875,-6.6836,-6.6797,-6.6797,-6.6719,-6.6719,-6.6719,-6.6719,-6.6055,-6.5234,-6.4414,0.0,0.0,-6.1914,-6.168,-6.164,-6.168,-6.164,-6.164,-6.168,-6.1719,-6.168,-6.1601,-6.1601,-6.1601,-6.1601,-6.1601,-6.164,-6.1719,-6.164,-6.1601,-6.1601,-6.1419,-6.1348,-6.1384,-6.1266,-6.1109,-6.0997,-6.0979,-6.0925,-6.0781,-6.0781,-6.0781,-6.0781,-6.0781,-6.0781,-6.0781,-6.0781,-6.0781,-6.0781,-6.0781,-6.0781,-6.0781,-7.6015,-7.6015,-7.6135,-7.6558,-7.7047,-7.7395,-7.7399,-7.7703,-7.7807,-7.7422,-7.7293,-7.7187,-7.7187,-7.7187,-7.7187,-7.7187,-7.7187,-7.7187,-7.7187,-7.7187,-7.7187,-7.7187,-7.6875,-7.6055,-7.4648,-7.4297,-7.3398,-7.1992,-7.1992,-7.1992,-7.1992,-7.1992,-7.1992,-7.1992,-7.1992,-7.1992,-7.1992,-7.1992,-7.1992,-7.1992,-7.1992,-7.1992,-7.1992,-7.1992,-7.1992,-7.1992,-7.1992,-7.1992,-7.1992,-7.1992,-7.1992,-7.1992,-7.1992,-7.1992,-7.1836,-7.0976,-6.9883,-6.8867,-6.8555,-6.7695,-6.6914,-6.6914,-6.6914,-6.6914,-6.6914,-6.6914,-6.6914,-6.6914,-6.6914,-6.6914,-6.6914,-6.664,-6.6289,-6.5976,0.0,-6.3672,-6.3359,-6.2383,-6.1719,-6.1719,-6.1719,-6.1719,-6.1719,-6.1719,-6.1719,-6.1719,-6.1719,-6.1719,-6.1719,-6.1719,-6.1719,-6.1719,-6.1719,-6.1719,-6.1719,-6.1637,-6.1632,-6.1631,-6.1495,-6.1387,-6.13,-6.1201,-6.1081,-6.0935,-6.0935,-6.0882,-6.0781,-6.0781,-6.0781,-6.0781,-6.0781,-6.0781,-6.0781,-6.0781,-6.0781,-6.0781,-7.6015,-7.6015,-7.6015,-7.6015,-7.6476,-7.6717,-7.6275,-7.6865,-7.7182,-7.6848,-7.6993,-7.7145,-7.7187,-7.7187,-7.7187,-7.7187,-7.7187,-7.7187,-7.7187,-7.7187,-7.7187,-7.7187,-7.7187,-7.6367,-7.4648,-7.4609,-7.375,-7.1992,-7.1992,-7.1992,-7.1992,-7.1992,-7.1992,-7.1992,-7.1992,-7.1992,-7.1992,-7.1992,-7.1992,-7.1992,-7.1992,-7.1992,-7.1992,-7.1992,-7.1992,-7.1992,-7.1992,-7.1992,-7.1992,-7.1992,-7.1992,-7.1992,-7.1992,-7.1992,-7.1875,-7.1289,-7.0508,-6.9805,-6.9805,-6.8789,-6.7656,-6.7383,-6.7109,-6.6914,-6.6914,-6.6914,-6.6914,-6.6914,-6.6914,-6.6914,-6.6914,-6.6914,-6.6797,-6.6523,-6.5508,-6.4609,-6.4336,-6.3281,-6.2422,-6.2148,-6.2109,-6.1992,-6.1719,-6.1719,-6.1719,-6.1719,-6.1719,-6.1719,-6.1719,-6.1719,-6.1719,-6.1719,-6.1719,-6.1719,-6.1719,-6.1719,-6.1719,-6.1719,-6.1627,-6.1525,-6.1501,-6.1396,-6.1277,-6.1097,-6.1031,-6.0944,-6.0839,-6.0827,-6.0781,-6.0781,-6.0781,-6.0781,-6.0781,-6.0781,-6.0781,-6.0781,-7.6015,-7.6015,-7.6015,-7.6015,-7.6015,-7.6015,-7.6015,-7.6172,-7.6361,-7.6552,-7.6765,-7.699,-7.7187,-7.7187,-7.7187,-7.7187,-7.7187,-7.7187,-7.7187,-7.7187,-7.7187,-7.7187,-7.7187,-7.6406,-7.4648,-7.4609,-7.375,-7.1992,-7.1992,-7.1992,-7.1992,-7.1992,-7.1992,-7.1992,-7.1992,-7.1992,-7.1992,-7.1992,-7.1992,-7.1992,-7.1992,-7.1992,-7.1992,-7.1992,-7.1992,-7.1992,-7.1992,-7.1992,-7.1992,-7.1992,-7.1992,-7.1992,-7.1992,-7.1992,-7.1992,-7.1992,-7.1406,-7.0703,-7.0703,-7.0117,-6.9297,-6.8437,-6.7539,-6.6914,-6.6914,-6.6914,-6.6914,-6.6914,-6.6914,-6.6914,-6.6914,-6.6914,-6.6601,-6.5742,-6.5586,-6.5312,-6.4414,-6.4297,-6.3984,-6.3086,-6.3008,-6.2656,-6.1797,-6.1719,-6.1719,-6.1719,-6.1719,-6.1719,-6.1719,-6.1719,-6.1719,-6.1719,-6.1719,-6.1719,-6.1719,-6.1719,-6.1719,-6.1719,-6.1719,-6.1633,-6.1504,-6.1504,-6.1413,-6.1277,-6.1097,-6.1006,-6.0979,-6.0877,-6.0781,-6.0781,-6.0781,-6.0781,-6.0781,-6.0781,-6.0781,-6.0781,-7.6015,-7.6015,-7.6015,-7.6015,-7.6015,-7.6015,-7.6015,-7.6172,-7.6327,-7.6371,-7.6702,-7.6929,-7.6993,-7.7104,-7.7187,-7.7187,-7.7187,-7.7187,-7.7187,-7.7187,-7.7187,-7.7187,-7.7187,-7.668,-7.5547,-7.4922,-7.4062,-7.289,-7.2305,-7.1992,-7.1992,-7.1992,-7.1992,-7.1992,-7.1992,-7.1992,-7.1992,-7.1992,-7.1992,-7.1992,-7.1992,-7.1992,-7.1992,-7.1992,-7.1992,-7.1992,-7.1992,-7.1992,-7.1992,-7.1992,-7.1992,-7.1992,-7.1992,-7.1992,-7.1992,-7.1992,-7.1836,-7.1601,-7.1601,-7.0976,-7.0156,-6.9336,-6.8476,-6.7812,-6.7812,-6.7344,-6.6914,-6.6914,-6.6914,-6.6914,-6.6914,-6.6914,-6.6797,-6.6562,-6.6015,-6.5508,-6.5234,-6.4687,-6.3984,-6.3086,-6.3008,-6.2656,-6.1797,-6.1719,-6.1719,-6.1719,-6.1719,-6.1719,-6.1719,-6.1719,-6.1719,-6.1719,-6.1719,-6.1719,-6.1719,-6.1719,-6.1719,-6.1719,-6.1719,-6.1679,-6.1635,-6.1635,-6.1575,-6.1421,-6.1392,-6.122,-6.0997,-6.0963,-6.0892,-6.0781,-6.0781,-6.0781,-6.0781,-6.0781,-6.0781,-6.0781,-7.6015,-7.6015,-7.6015,-7.6015,-7.6015,-7.6015,-7.6015,-7.6095,-7.6195,-7.6284,-7.6527,-7.6702,-7.6765,-7.6876,-7.6998,-7.7058,-7.7147,-7.7187,-7.7187,-7.7187,-7.7187,-7.7187,-7.7187,-7.6797,-7.5937,-7.539,-7.4531,-7.3281,-7.2773,-7.2344,-7.1992,-7.1992,-7.1992,-7.1992,-7.1992,-7.1992,-7.1992,-7.1992,-7.1992,-7.1992,-7.1992,-7.1992,-7.1992,-7.1992,-7.1992,-7.1992,-7.1992,-7.1992,-7.1992,-7.1992,-7.1992,-7.1992,-7.1992,-7.1992,-7.1992,-7.1992,-7.1992,-7.1992,-7.1992,-7.1601,-7.1094,-7.0625,-6.957,-6.8672,-6.8711,-6.8047,-6.7422,-6.7422,-6.7148,-6.6914,-6.6914,-6.6914,-6.6914,-6.6914,-6.6445,-6.6094,-6.6094,-6.5664,-6.5,-6.414,-6.3711,-6.3164,-6.2305,-6.1914,-6.1719,-6.1719,-6.1719,-6.1719,-6.1719,-6.1719,-6.1719,-6.1719,-6.1719,-6.1719,-6.1719,-6.1719,-6.1719,-6.1719,-6.1719,-6.1719,-6.1719,-6.1719,-6.1677,-6.1579,-6.1515,-6.14,-6.1188,-6.1034,-6.0954,-6.0871,-6.0827,-6.0781,-6.0781,-6.0781,-6.0781,-6.0781,-7.6015,-7.6015,-7.6015,-7.6015,-7.6015,-7.6015,-7.6015,-7.6015,-7.6066,-7.6254,-7.6284,-7.6361,-7.6537,-7.6575,-7.6696,-7.6872,-7.7099,-7.7187,-7.7187,-7.7187,-7.7187,-7.7187,-7.7187,-7.6836,-7.6015,-7.5937,-7.5117,-7.3515,-7.3398,-7.289,-7.2109,-7.2031,-7.1992,-7.1992,-7.1992,-7.1992,-7.1992,-7.1992,-7.1992,-7.1992,-7.1992,-7.1992,-7.1992,-7.1992,-7.1992,-7.1992,-7.1992,-7.1992,-7.1992,-7.1992,-7.1992,-7.1992,-7.1992,-7.1992,-7.1992,-7.1992,-7.1992,-7.1992,-7.1992,-7.1992,-7.1992,-7.1992,-7.082,-6.9648,-6.9609,-6.8945,-6.832,-6.832,-6.7617,-6.7031,-6.7031,-6.6953,-6.6914,-6.6914,-6.6914,-6.6914,-6.6914,-6.6914,-6.6562,-6.5703,-6.4844,-6.3945,-6.3086,-6.2226,-6.1719,-6.1719,-6.1719,-6.1719,-6.1719,-6.1719,-6.1719,-6.1719,-6.1719,-6.1719,-6.1719,-6.1719,-6.1719,-6.1719,-6.1719,-6.1719,-6.1719,-6.1719,-6.1719,-6.168,-6.1577,-6.1509,-6.1491,-6.1154,-6.1023,-6.0979,-6.0867,-6.0781,-6.0781,-6.0781,-6.0781,-6.0781,-7.6015,-7.6015,-7.6015,-7.6015,-7.6015,-7.6015,-7.6015,-7.6015,-7.6005,-7.6052,-7.6183,-7.6316,-7.6379,-7.6518,-7.6696,-7.6872,-7.7099,-7.7187,-7.7187,-7.7187,-7.7187,-7.7187,-7.7187,-7.7109,-7.6914,-7.625,-7.5703,-7.5351,-7.3984,-7.3203,-7.3008,-7.2305,-7.1992,-7.1992,-7.1992,-7.1992,-7.1992,-7.1992,-7.1992,-7.1992,-7.1992,-7.1992,-7.1992,-7.1992,-7.1992,-7.1992,-7.1992,-7.1992,-7.1992,-7.1992,-7.1992,-7.1992,-7.1992,-7.1992,-7.1992,-7.1992,-7.1992,-7.1992,-7.1992,-7.1992,-7.1992,-7.1992,-7.1719,-7.125,-7.0586,-6.9765,-6.914,-6.914,-6.8476,-6.793,-6.793,-6.7344,-6.6914,-6.6914,-6.6914,-6.6914,-6.6914,-6.6914,-6.6562,-6.5703,-6.4844,-6.3945,-6.3086,-6.2226,-6.1719,-6.1719,-6.1719,-6.1719,-6.1719,-6.1719,-6.1719,-6.1719,-6.1719,-6.1719,-6.1719,-6.1719,-6.1719,-6.1719,-6.1719,-6.1719,-6.1719,-6.1719,-6.1719,-6.1719,-6.1678,-6.1585,-6.1495,-6.1312,-6.115,-6.0979,-6.0867,-6.0781,-6.0781,-6.0781,-6.0781,-6.0781,-7.6015,-7.6015,-7.6015,-7.6015,-7.6015,-7.6015,-7.6015,-7.6015,-7.6015,-7.6015,-7.6068,-7.6147,-7.6147,-7.6254,-7.6391,-7.6621,-7.6872,-7.7054,-7.7054,-7.7146,-7.7187,-7.7187,-7.7187,-7.7187,-7.7187,-7.6758,-7.6328,-7.5898,-7.5,-7.4336,-7.3906,-7.3437,-7.3008,-7.2617,-7.2617,-7.2383,-7.1992,-7.1992,-7.1992,-7.1992,-7.1992,-7.1992,-7.1992,-7.1992,-7.1992,-7.1992,-7.1992,-7.1992,-7.1992,-7.1992,-7.1992,-7.1992,-7.1992,-7.1992,-7.1992,-7.1992,-7.1992,-7.1992,-7.1992,-7.1992,-7.1992,-7.1992,-7.1992,-7.1875,-7.1406,-7.0664,-7.0039,-7.0039,-6.9336,-6.8672,-6.8281,-6.7812,-6.7383,-6.6953,-6.6914,-6.6914,-6.6914,-6.6914,-6.6719,-6.6289,-6.5469,-6.4414,-6.3125,-6.2226,-6.1719,-6.1719,-6.1719,-6.1719,-6.1719,-6.1719,-6.1719,-6.1719,-6.1719,-6.1719,-6.1719,-6.1719,-6.1719,-6.1719,-6.1719,-6.1719,-6.1719,-6.1719,-6.1719,-6.1719,-6.1719,-6.1677,-6.1582,-6.1432,-6.1349,-6.1214,-6.0991,-6.0913,-6.0902,-6.0839,-6.0781,-6.0781,-7.6015,-7.6015,-7.6015,-7.6015,-7.6015,-7.6015,-7.6015,-7.6015,-7.6015,-7.6015,-7.6015,-7.6015,-7.6015,-7.6034,-7.6121,-7.63,-7.665,-7.686,-7.688,-7.7054,-7.7147,-7.7187,-7.7187,-7.7187,-7.7187,-7.7187,-7.6836,-7.6133,-7.5976,-7.5547,-7.4805,-7.4687,-7.4219,-7.3515,-7.3359,-7.2969,-7.2422,-7.2148,-7.2109,-7.2226,-7.207,-7.1992,-7.1992,-7.1992,-7.1992,-7.1992,-7.1992,-7.1992,-7.1992,-7.1992,-7.1992,-7.1992,-7.1992,-7.1992,-7.1992,-7.1992,-7.1992,-7.1992,-7.1992,-7.1992,-7.1992,-7.1992,-7.1992,-7.1992,-7.1992,-7.1445,-7.0937,-7.0937,-7.0234,-6.9414,-6.875,-6.8398,-6.7969,-6.7226,-6.6992,-6.6914,-6.6914,-6.6914,-6.6914,-6.6914,-6.6133,-6.4922,-6.3164,-6.2344,-6.1875,-6.1719,-6.1719,-6.1719,-6.1719,-6.1719,-6.1719,-6.1719,-6.1719,-6.1719,-6.1719,-6.1719,-6.1719,-6.1719,-6.1719,-6.1719,-6.1719,-6.1719,-6.1719,-6.1719,-6.1719,-6.1719,-6.1679,-6.1571,-6.1504,-6.1488,-6.1161,-6.1056,-6.1031,-6.0892,-6.0827,-6.0781,-7.6015,-7.6015,-7.6015,-7.6015,-7.6015,-7.6015,-7.6015,-7.6015,-7.6015,-7.6015,-7.6015,-7.6015,-7.6015,-7.6147,-7.625,-7.6284,-7.6527,-7.6721,-7.6876,-7.6933,-7.7005,-7.7187,-7.7187,-7.7187,-7.7187,-7.7187,-7.7148,-7.7031,-7.6289,-7.5859,-7.5703,-7.4961,-7.4531,-7.4375,-7.3633,-7.3633,-7.414,-7.2656,-7.2422,-7.3047,-7.2305,-7.1992,-7.1992,-7.1992,-7.1992,-7.1992,-7.1992,-7.1992,-7.1992,-7.1992,-7.1992,-7.1992,-7.1992,-7.1992,-7.1992,-7.1992,-7.1992,-7.1992,-7.1992,-7.1992,-7.1992,-7.1992,-7.1992,-7.1992,-7.1992,-7.1914,-7.1836,-7.1836,-7.1133,-7.0508,-7.039,-6.918,-6.8164,-6.8047,-6.7383,-6.6914,-6.6914,-6.6914,-6.6914,-6.6914,-6.6133,-6.4922,-6.3164,-6.289,-6.25,-6.1758,-6.1719,-6.1719,-6.1719,-6.1719,-6.1719,-6.1719,-6.1719,-6.1719,-6.1719,-6.1719,-6.1719,-6.1719,-6.1719,-6.1719,-6.1719,-6.1719,-6.1719,-6.1719,-6.1719,-6.1719,-6.1679,-6.1571,-6.1504,-6.1495,-6.1323,-6.1253,-6.1234,-6.104,-6.0884,-6.0781,-7.6015,-7.6015,-7.6015,-7.6015,-7.6015,-7.6015,-7.6015,-7.6015,-7.6015,-7.6015,-7.6015,-7.6015,-7.6015,-7.6093,-7.6147,-7.6134,-7.6316,-7.6475,-7.6537,-7.6765,-7.6936,-7.7048,-7.7145,-7.7187,-7.7187,-7.7187,-7.7187,-7.7187,-7.6797,-7.664,-7.6601,-7.6211,-7.5781,-7.5312,-7.4922,-7.4687,-7.4531,-7.3789,-7.3672,-7.3945,-7.3086,-7.2734,-7.2656,-7.2187,-7.1992,-7.1992,-7.1992,-7.1992,-7.1992,-7.1992,-7.1992,-7.1992,-7.1992,-7.1992,-7.1992,-7.1992,-7.1992,-7.1992,-7.1992,-7.1992,-7.1992,-7.1992,-7.1992,-7.1992,-7.1992,-7.1992,-7.1992,-7.1992,-7.168,-7.1289,-7.0781,-6.9687,-6.8711,-6.8281,-6.7461,-6.6914,-6.6914,-6.6914,-6.6914,-6.6914,-6.6133,-6.5312,-6.4531,-6.4023,-6.3359,-6.25,-6.2422,-6.2226,-6.1719,-6.1719,-6.1719,-6.1719,-6.1719,-6.1719,-6.1719,-6.1719,-6.1719,-6.1719,-6.1719,-6.1719,-6.1719,-6.1719,-6.1719,-6.1719,-6.1719,-6.1719,-6.1719,-6.1634,-6.1629,-6.1587,-6.1442,-6.1312,-6.1128,-6.104,-6.0973,-6.0895]},{"header":{"parameterUnit":"m.s-1","parameterCategory":1,"la1":30.6,"la2":28.766,"lo1":-90.7593,"lo2":-88.6598,"dy":0.0162,"dx":0.0183,"nx":116,"ny":114,"refTime":"2024-05-22T18:00:00:Z","depth":0,"parameterNumber":3,"parameterNumberName":"V-component_of_WINDS"},"data":[0.0,0.0,0.0,0.0,0.0,0.0,0.0,0.0,0.0,0.0,0.0,0.0,0.0,0.0,0.0,0.0,0.0,0.0,0.0,0.0,0.0,0.0,0.0,0.0,0.0,0.0,0.0,0.0,0.0,0.0,0.0,0.0,0.0,0.0,0.0,0.0,0.0,0.0,0.0,0.0,0.0,0.0,0.0,0.0,0.0,0.0,0.0,0.0,0.0,0.0,0.0,0.0,0.0,0.0,0.0,0.0,0.0,0.0,0.0,0.0,0.0,0.0,0.0,0.0,0.0,0.0,0.0,0.0,0.0,0.0,0.0,0.0,0.0,0.0,0.0,0.0,0.0,0.0,0.0,0.0,0.0,0.0,0.0,0.0,0.0,0.0,0.0,0.0,0.0,0.0,0.0,0.0,0.0,0.0,0.0,0.0,0.0,0.0,0.0,0.0,0.0,0.0,0.0,0.0,0.0,0.0,0.0,0.0,0.0,0.0,0.0,0.0,0.0,0.0,0.0,0.0,0.0,0.0,0.0,0.0,0.0,0.0,0.0,0.0,0.0,0.0,0.0,0.0,0.0,0.0,0.0,0.0,0.0,0.0,0.0,0.0,0.0,0.0,0.0,0.0,0.0,0.0,0.0,0.0,0.0,0.0,0.0,0.0,0.0,0.0,0.0,0.0,0.0,0.0,0.0,0.0,0.0,0.0,0.0,0.0,0.0,0.0,0.0,0.0,0.0,0.0,0.0,0.0,0.0,0.0,0.0,0.0,0.0,0.0,0.0,0.0,0.0,0.0,0.0,0.0,0.0,0.0,0.0,0.0,0.0,0.0,0.0,0.0,0.0,0.0,0.0,0.0,0.0,0.0,0.0,0.0,0.0,0.0,0.0,0.0,0.0,0.0,0.0,0.0,0.0,0.0,0.0,0.0,0.0,0.0,0.0,0.0,0.0,0.0,0.0,0.0,0.0,0.0,0.0,0.0,0.0,0.0,0.0,0.0,0.0,0.0,0.0,0.0,0.0,0.0,0.0,0.0,0.0,0.0,0.0,0.0,0.0,0.0,0.0,0.0,0.0,0.0,0.0,0.0,0.0,0.0,0.0,0.0,0.0,0.0,0.0,0.0,0.0,0.0,0.0,0.0,0.0,0.0,0.0,0.0,0.0,0.0,0.0,0.0,0.0,0.0,0.0,0.0,0.0,0.0,0.0,0.0,0.0,0.0,0.0,0.0,0.0,0.0,0.0,0.0,0.0,0.0,0.0,0.0,0.0,0.0,0.0,0.0,0.0,0.0,0.0,0.0,0.0,0.0,0.0,0.0,0.0,0.0,0.0,0.0,0.0,0.0,0.0,0.0,0.0,0.0,0.0,0.0,0.0,0.0,0.0,0.0,0.0,0.0,0.0,0.0,0.0,0.0,0.0,0.0,0.0,0.0,0.0,0.0,0.0,0.0,0.0,0.0,0.0,0.0,0.0,0.0,0.0,0.0,0.0,0.0,0.0,0.0,0.0,0.0,0.0,0.0,0.0,0.0,0.0,0.0,0.0,0.0,0.0,0.0,0.0,0.0,0.0,0.0,0.0,0.0,0.0,0.0,0.0,0.0,0.0,0.0,0.0,0.0,0.0,0.0,0.0,0.0,0.0,0.0,0.0,0.0,0.0,0.0,0.0,0.0,0.0,0.0,0.0,0.0,0.0,0.0,0.0,0.0,0.0,0.0,0.0,0.0,0.0,0.0,0.0,0.0,0.0,0.0,0.0,0.0,0.0,0.0,0.0,0.0,0.0,0.0,0.0,0.0,0.0,0.0,0.0,0.0,0.0,0.0,0.0,0.0,0.0,0.0,0.0,0.0,0.0,0.0,0.0,0.0,0.0,0.0,0.0,0.0,0.0,0.0,0.0,0.0,0.0,0.0,0.0,0.0,0.0,0.0,0.0,0.0,0.0,0.0,0.0,0.0,0.0,0.0,0.0,0.0,0.0,0.0,0.0,0.0,0.0,0.0,0.0,0.0,0.0,0.0,0.0,0.0,0.0,0.0,0.0,0.0,0.0,0.0,0.0,0.0,0.0,0.0,0.0,0.0,0.0,0.0,0.0,0.0,0.0,0.0,0.0,0.0,0.0,0.0,0.0,0.0,0.0,0.0,0.0,0.0,0.0,0.0,0.0,0.0,0.0,0.0,0.0,0.0,0.0,0.0,0.0,0.0,0.0,0.0,0.0,0.0,0.0,0.0,0.0,0.0,0.0,0.0,0.0,0.0,0.0,0.0,0.0,0.0,0.0,0.0,0.0,0.0,0.0,0.0,0.0,0.0,0.0,0.0,0.0,0.0,0.0,0.0,0.0,0.0,0.0,0.0,0.0,0.0,0.0,0.0,0.0,0.0,0.0,0.0,0.0,0.0,0.0,0.0,0.0,0.0,0.0,0.0,0.0,0.0,0.0,0.0,0.0,0.0,0.0,0.0,0.0,0.0,0.0,0.0,0.0,0.0,0.0,0.0,0.0,0.0,0.0,0.0,0.0,0.0,0.0,0.0,0.0,0.0,0.0,0.0,0.0,0.0,0.0,0.0,0.0,0.0,0.0,0.0,0.0,0.0,0.0,0.0,0.0,0.0,0.0,0.0,0.0,0.0,0.0,0.0,0.0,0.0,0.0,0.0,0.0,0.0,0.0,0.0,0.0,0.0,0.0,0.0,0.0,0.0,0.0,0.0,0.0,0.0,0.0,0.0,0.0,0.0,0.0,0.0,0.0,0.0,0.0,0.0,0.0,0.0,0.0,0.0,0.0,0.0,0.0,0.0,0.0,0.0,0.0,0.0,0.0,0.0,0.0,0.0,0.0,0.0,0.0,0.0,0.0,0.0,0.0,0.0,0.0,0.0,0.0,0.0,0.0,0.0,0.0,0.0,0.0,0.0,0.0,0.0,0.0,0.0,0.0,0.0,0.0,0.0,0.0,0.0,0.0,0.0,0.0,0.0,0.0,0.0,0.0,0.0,0.0,0.0,0.0,0.0,0.0,0.0,0.0,0.0,0.0,0.0,0.0,0.0,0.0,0.0,0.0,0.0,0.0,0.0,0.0,0.0,0.0,0.0,0.0,0.0,0.0,0.0,0.0,0.0,0.0,0.0,0.0,0.0,0.0,0.0,0.0,0.0,0.0,0.0,0.0,0.0,0.0,0.0,0.0,0.0,0.0,0.0,0.0,0.0,0.0,0.0,0.0,0.0,0.0,0.0,0.0,0.0,0.0,0.0,0.0,0.0,0.0,0.0,0.0,0.0,0.0,0.0,0.0,0.0,0.0,0.0,0.0,0.0,0.0,0.0,0.0,0.0,0.0,0.0,0.0,0.0,0.0,0.0,0.0,0.0,0.0,0.0,0.0,0.0,0.0,0.0,0.0,0.0,0.0,0.0,0.0,0.0,0.0,0.0,0.0,0.0,0.0,0.0,0.0,0.0,0.0,0.0,0.0,0.0,0.0,0.0,0.0,0.0,0.0,0.0,0.0,0.0,0.0,0.0,0.0,0.0,0.0,0.0,0.0,0.0,0.0,0.0,0.0,0.0,0.0,0.0,0.0,0.0,0.0,0.0,0.0,0.0,0.0,0.0,0.0,0.0,0.0,0.0,0.0,0.0,0.0,0.0,0.0,0.0,0.0,0.0,0.0,0.0,0.0,0.0,0.0,0.0,0.0,0.0,0.0,0.0,0.0,0.0,0.0,0.0,0.0,0.0,0.0,0.0,0.0,0.0,0.0,0.0,0.0,0.0,0.0,0.0,0.0,0.0,0.0,0.0,0.0,0.0,0.0,0.0,0.0,0.0,0.0,0.0,0.0,0.0,0.0,0.0,0.0,0.0,0.0,0.0,0.0,0.0,0.0,0.0,0.0,0.0,0.0,0.0,0.0,0.0,0.0,0.0,0.0,0.0,0.0,0.0,0.0,0.0,0.0,0.0,0.0,0.0,0.0,0.0,0.0,0.0,0.0,0.0,0.0,0.0,0.0,0.0,0.0,0.0,0.0,0.0,0.0,0.0,0.0,0.0,0.0,0.0,0.0,0.0,0.0,0.0,0.0,0.0,0.0,0.0,0.0,0.0,0.0,0.0,0.0,0.0,0.0,0.0,0.0,0.0,0.0,0.0,0.0,0.0,0.0,0.0,0.0,0.0,0.0,0.0,0.0,0.0,0.0,0.0,0.0,0.0,0.0,0.0,0.0,0.0,0.0,0.0,0.0,0.0,0.0,0.0,0.0,0.0,0.0,0.0,0.0,0.0,0.0,0.0,0.0,0.0,0.0,0.0,0.0,0.0,0.0,0.0,0.0,0.0,0.0,0.0,0.0,0.0,0.0,0.0,0.0,0.0,0.0,0.0,0.0,0.0,0.0,0.0,0.0,0.0,0.0,0.0,0.0,0.0,0.0,0.0,0.0,0.0,0.0,0.0,0.0,0.0,0.0,0.0,0.0,0.0,0.0,0.0,0.0,0.0,0.0,0.0,0.0,0.0,0.0,0.0,0.0,0.0,0.0,0.0,0.0,0.0,0.0,0.0,0.0,0.0,0.0,0.0,0.0,0.0,0.0,0.0,0.0,0.0,0.0,0.0,0.0,0.0,0.0,0.0,0.0,0.0,0.0,0.0,0.0,0.0,0.0,0.0,0.0,0.0,0.0,0.0,0.0,0.0,0.0,0.0,0.0,0.0,0.0,0.0,0.0,0.0,0.0,0.0,0.0,0.0,0.0,0.0,0.0,0.0,0.0,0.0,0.0,0.0,0.0,0.0,0.0,0.0,0.0,0.0,0.0,0.0,0.0,0.0,0.0,0.0,0.0,0.0,0.0,0.0,0.0,0.0,0.0,0.0,0.0,0.0,0.0,0.0,0.0,0.0,0.0,0.0,0.0,0.0,0.0,0.0,0.0,0.0,0.0,0.0,0.0,0.0,0.0,0.0,0.0,0.0,0.0,0.0,0.0,0.0,0.0,0.0,0.0,0.0,0.0,0.0,0.0,0.0,0.0,0.0,0.0,0.0,0.0,0.0,0.0,0.0,0.0,0.0,0.0,0.0,0.0,0.0,0.0,0.0,0.0,0.0,0.0,0.0,0.0,0.0,0.0,0.0,0.0,0.0,0.0,0.0,0.0,0.0,0.0,0.0,0.0,0.0,0.0,0.0,0.0,0.0,0.0,0.0,0.0,0.0,0.0,0.0,0.0,0.0,0.0,0.0,0.0,0.0,0.0,0.0,0.0,0.0,0.0,0.0,0.0,0.0,0.0,0.0,0.0,0.0,0.0,0.0,0.0,0.0,0.0,0.0,0.0,0.0,0.0,0.0,0.0,0.0,0.0,0.0,0.0,0.0,0.0,0.0,0.0,0.0,0.0,0.0,0.0,0.0,0.0,0.0,0.0,0.0,0.0,0.0,0.0,0.0,0.0,0.0,0.0,0.0,0.0,0.0,0.0,0.0,0.0,0.0,0.0,0.0,0.0,0.0,0.0,0.0,0.0,0.0,0.0,0.0,0.0,0.0,0.0,0.0,0.0,0.0,0.0,0.0,0.0,0.0,0.0,0.0,0.0,0.0,0.0,0.0,0.0,0.0,0.0,0.0,0.0,0.0,0.0,0.0,0.0,0.0,0.0,0.0,0.0,0.0,0.0,0.0,0.0,0.0,0.0,0.0,0.0,0.0,0.0,0.0,0.0,0.0,0.0,0.0,0.0,0.0,0.0,0.0,0.0,0.0,0.0,0.0,0.0,0.0,0.0,0.0,0.0,0.0,0.0,0.0,0.0,0.0,0.0,0.0,0.0,0.0,0.0,0.0,0.0,0.0,0.0,0.0,0.0,0.0,0.0,0.0,0.0,0.0,0.0,0.0,0.0,0.0,0.0,0.0,0.0,0.0,0.0,0.0,0.0,0.0,0.0,0.0,0.0,0.0,0.0,0.0,0.0,0.0,0.0,0.0,0.0,0.0,0.0,0.0,0.0,0.0,0.0,0.0,0.0,0.0,0.0,0.0,0.0,0.0,0.0,0.0,0.0,0.0,0.0,0.0,0.0,0.0,0.0,0.0,0.0,0.0,0.0,0.0,0.0,0.0,0.0,0.0,0.0,0.0,0.0,0.0,0.0,0.0,-1.1904,-1.1782,0.0,0.0,0.0,0.0,0.0,0.0,0.0,0.0,0.0,0.0,0.0,0.0,0.0,0.0,0.0,0.0,0.0,0.0,0.0,0.0,0.0,0.0,0.0,-1.0426,-1.0724,-1.1023,-1.0989,-1.0567,-0.9805,0.0,0.0,0.0,0.0,0.0,0.0,0.0,0.0,0.0,-0.0903,-0.1738,-0.2573,-0.6118,-0.813,-0.8783,0.0,0.0,0.0,0.0,0.0,0.0,0.0,0.0,0.0,0.0,0.0,0.0,0.0,0.0,0.0,0.0,0.0,0.0,0.0,0.0,0.0,0.0,0.0,0.0,0.0,0.0,0.0,0.0,0.0,0.0,0.0,0.0,0.0,0.0,0.0,0.0,0.0,0.0,0.0,0.0,0.0,0.0,0.0,0.0,0.0,0.0,0.0,0.0,0.0,0.0,0.0,0.0,0.0,0.0,0.0,0.0,0.0,0.0,0.0,0.0,0.0,0.0,0.0,0.0,0.0,0.0,0.0,0.0,0.0,0.0,-1.2108,-1.1986,0.0,0.0,0.0,0.0,0.0,0.0,0.0,0.0,0.0,0.0,0.0,0.0,0.0,0.0,0.0,0.0,0.0,0.0,0.0,0.0,0.0,-0.9734,-1.0154,-1.0466,-1.0785,-1.12,-1.1056,-1.0415,-0.9065,-0.6766,0.0,0.0,0.0,0.0,0.0,0.0,0.0,0.0,0.0,-0.0721,-0.2128,-0.5741,-0.7234,-0.7131,-0.9075,0.0,0.0,0.0,0.0,0.0,0.0,0.0,0.0,0.0,0.0,0.0,0.0,0.0,0.0,0.0,0.0,0.0,0.0,0.0,0.0,0.0,0.0,0.0,0.0,0.0,0.0,0.0,0.0,0.0,0.0,0.0,0.0,0.0,0.0,0.0,0.0,0.0,0.0,0.0,0.0,0.0,0.0,0.0,0.0,0.0,0.0,0.0,0.0,0.0,0.0,0.0,0.0,0.0,0.0,0.0,0.0,0.0,0.0,0.0,0.0,0.0,0.0,0.0,-1.2922,-1.2861,-1.2807,-1.2705,-1.2712,-1.2786,-1.2413,-1.2284,-1.2298,-1.1925,0.0,0.0,0.0,0.0,0.0,0.0,0.0,0.0,0.0,0.0,0.0,0.0,0.0,0.0,0.0,0.0,0.0,0.0,0.0,-0.953,-0.9849,-1.0154,-1.0561,-1.1186,-1.1214,-1.1076,-1.0882,-0.7645,0.0,0.0,-0.1815,0.0,0.0,0.0,0.0,0.0,0.0,-0.0136,-0.0417,-0.4,-0.5718,-0.5814,-0.9015,-1.0405,-1.0385,0.0,0.0,0.0,0.0,0.0,0.0,0.0,0.0,0.0,0.0,0.0,0.0,0.0,0.0,0.0,0.0,0.0,0.0,0.0,0.0,0.0,0.0,0.0,0.0,0.0,0.0,0.0,0.0,0.0,0.0,0.0,0.0,0.0,0.0,0.0,0.0,0.0,0.0,0.0,0.0,0.0,0.0,0.0,0.0,0.0,0.0,0.0,0.0,0.0,0.0,0.0,0.0,0.0,0.0,0.0,0.0,-1.318,-1.3308,-1.3464,-1.341,-1.3146,-1.3397,-1.337,-1.3119,-1.3234,-1.322,-1.3112,-1.3051,0.0,-1.2467,-1.2413,0.0,0.0,0.0,0.0,0.0,0.0,0.0,0.0,0.0,0.0,0.0,0.0,0.0,0.0,0.0,0.0,0.0,0.0,0.0,0.0,0.0,-1.0426,-1.0826,-1.1253,-1.0296,-0.9277,-0.8233,-0.5583,-0.3534,-0.2448,-0.0823,0.0,0.0,0.0,0.0,0.0,0.0,0.0,-0.0073,-0.3956,-0.5662,-0.5794,-0.9537,-1.0962,-1.048,-1.027,0.0,0.0,0.0,0.0,0.0,0.0,0.0,0.0,0.0,0.0,0.0,0.0,0.0,0.0,0.0,0.0,0.0,0.0,0.0,0.0,0.0,0.0,0.0,0.0,0.0,0.0,0.0,0.0,0.0,0.0,0.0,0.0,0.0,0.0,0.0,0.0,0.0,0.0,0.0,0.0,0.0,0.0,0.0,0.0,0.0,0.0,0.0,0.0,0.0,0.0,0.0,0.0,0.0,-1.1464,-1.2797,-1.3458,-1.3532,-1.3675,-1.3682,-1.3546,-1.3682,-1.3675,-1.3553,-1.362,-1.3614,-1.3546,-1.3464,-1.3268,-1.2983,-1.2644,-1.2427,-1.2284,0.0,0.0,0.0,0.0,-1.1769,-1.1667,0.0,0.0,0.0,0.0,0.0,0.0,0.0,0.0,0.0,0.0,0.0,0.0,-1.0297,-1.067,-1.1023,-1.1362,-0.9601,-0.7931,-0.6593,-0.413,-0.2161,-0.076,-0.0278,0.0,0.0,0.0,0.0,0.0,0.0,-0.0295,-0.0896,-0.4357,-0.6223,-0.6841,-1.0325,-1.1477,-1.0772,-1.0582,-1.0304,-0.9964,0.0,0.0,0.0,0.0,0.0,0.0,0.0,0.0,0.0,0.0,0.0,0.0,0.0,0.0,0.0,0.0,0.0,0.0,0.0,0.0,0.0,0.0,0.0,0.0,0.0,0.0,0.0,0.0,0.0,0.0,0.0,0.0,0.0,0.0,0.0,0.0,0.0,0.0,0.0,0.0,0.0,0.0,0.0,0.0,0.0,0.0,0.0,0.0,-0.3425,-0.4967,-0.7293,-1.0344,-1.1983,-1.3159,-1.3858,-1.396,-1.3973,-1.3899,-1.3939,-1.3939,-1.3899,-1.3939,-1.3939,-1.3892,-1.3743,-1.36,-1.3417,-1.2888,-1.2651,-1.2596,-1.2332,-1.2135,-1.2013,-1.2135,-1.2081,-1.1986,0.0,0.0,0.0,0.0,0.0,0.0,0.0,0.0,0.0,0.0,0.0,-0.9992,-1.0432,-1.0629,-1.0907,-1.1355,-0.9601,-0.8459,-0.8379,-0.4923,-0.2798,-0.2586,-0.09,0.0,0.0,0.0,0.0,0.0,0.0,-0.1046,-0.3019,-0.5052,-0.7077,-0.9099,-1.1139,-1.187,-1.1545,-1.1246,-1.086,-1.0432,-1.0071,0.0,0.0,0.0,0.0,0.0,0.0,0.0,0.0,0.0,0.0,0.0,0.0,0.0,0.0,0.0,0.0,0.0,0.0,0.0,0.0,0.0,0.0,0.0,0.0,0.0,0.0,0.0,0.0,0.0,0.0,0.0,0.0,0.0,0.0,0.0,0.0,0.0,0.0,0.0,0.0,0.0,0.0,0.0,0.0,0.0,0.0,-0.0932,-0.3195,-0.3459,-0.5786,-1.056,-1.076,-1.2023,-1.4468,-1.4475,-1.434,-1.4061,-1.4204,-1.4204,-1.4061,-1.4211,-1.4197,-1.4055,-1.3899,-1.3749,-1.3593,-1.3268,-1.3057,-1.2922,-1.2759,-1.2603,-1.2467,-1.2474,-1.2386,-1.2291,0.0,0.0,0.0,0.0,0.0,-0.97,-0.9257,-0.9395,-0.9625,-0.9734,-1.0127,-1.046,-1.0622,-1.0948,-1.1219,-1.1375,-0.853,-0.6749,-0.6764,-0.3195,-0.0994,-0.0994,-0.0353,0.0,0.0,0.0,0.0,0.0,0.0,-0.1071,-0.317,-0.5251,-0.733,-0.9407,-1.1415,-1.2237,-1.2026,-1.1626,-1.1253,-1.0887,-1.0493,-1.0127,0.0,0.0,0.0,0.0,0.0,0.0,0.0,0.0,0.0,0.0,0.0,0.0,0.0,0.0,0.0,0.0,0.0,0.0,0.0,0.0,0.0,0.0,0.0,0.0,0.0,0.0,0.0,0.0,0.0,0.0,0.0,0.0,0.0,0.0,0.0,0.0,0.0,0.0,0.0,0.0,0.0,0.0,0.0,0.0,0.0,-0.1051,-0.3394,-0.5032,-0.7425,-1.0709,-1.2454,-1.3693,-1.4516,-1.4509,-1.4414,-1.4217,-1.4272,-1.4272,-1.4224,-1.4278,-1.4272,-1.4204,-1.3953,-1.381,-1.3743,-1.3444,-1.3234,-1.3085,-1.2935,-1.2847,-1.2786,-1.2684,-1.2617,-1.2569,0.0,0.0,0.0,0.0,-1.104,-0.9228,-0.9275,-0.9564,-0.9876,-1.0025,-1.0439,-1.0778,-1.0928,-1.1212,-1.1409,-1.1463,-0.8591,-0.6509,-0.5808,-0.2789,-0.0716,0.0,0.0,0.0,0.0,0.0,0.0,0.0,-0.0696,-0.2099,-0.4224,-0.6332,-0.8439,-1.0546,-1.1876,-1.2447,-1.2338,-1.204,-1.1687,-1.1287,-1.0934,-1.0649,-1.0378,0.0,0.0,0.0,0.0,0.0,0.0,0.0,0.0,0.0,0.0,0.0,0.0,0.0,0.0,0.0,0.0,0.0,0.0,0.0,0.0,0.0,0.0,0.0,0.0,0.0,0.0,0.0,0.0,0.0,0.0,0.0,0.0,0.0,0.0,-0.1545,-0.108,-0.1075,-0.0425,0.0,0.0,0.0,0.0,0.0,0.0,-0.1084,-0.3578,-0.5262,-0.7696,-1.0971,-1.2743,-1.3891,-1.4665,-1.4618,-1.4516,-1.4373,-1.4326,-1.4299,-1.4299,-1.4299,-1.4299,-1.4285,-1.3973,-1.3838,-1.3817,-1.3519,-1.3342,-1.3234,-1.3091,-1.303,-1.3017,-1.2861,-1.2773,-1.2712,0.0,0.0,0.0,-1.3264,-1.0984,-0.9268,-0.9361,-0.9639,-0.9992,-1.0432,-1.0636,-1.0907,-1.1341,-1.1402,-1.1463,-1.1606,-0.9795,-0.7905,-0.5953,-0.3947,-0.201,-0.0073,-0.0074,-0.0074,0.0,0.0,0.0,-0.0077,-0.2103,-0.4224,-0.6414,-0.8439,-1.0546,-1.2501,-1.2501,-1.2501,-1.2501,-1.2501,-1.2169,-1.1633,-1.1477,-1.1314,-1.1179,0.0,0.0,0.0,0.0,0.0,0.0,0.0,0.0,0.0,0.0,0.0,0.0,0.0,0.0,0.0,0.0,0.0,0.0,0.0,0.0,0.0,0.0,0.0,0.0,0.0,0.0,0.0,0.0,0.0,0.0,0.0,0.0,0.0,-0.6522,-0.4682,-0.3346,-0.3312,-0.1377,0.0,0.0,0.0,0.0,0.0,0.0,-0.1115,-0.3653,-0.384,-0.6204,-1.1197,-1.1485,-1.2659,-1.497,-1.4821,-1.4665,-1.4509,-1.4367,-1.4299,-1.4299,-1.4299,-1.4299,-1.4285,-1.3973,-1.3838,-1.3817,-1.3519,-1.3403,-1.339,-1.3241,-1.318,-1.3159,-1.3017,-1.2861,-1.2705,0.0,0.0,-1.294,-1.1919,-1.037,-0.9334,-0.9374,-0.9822,-1.0236,-1.046,-1.0907,-1.1253,-1.1375,-1.1579,-1.1687,-1.1626,-0.9795,-0.7905,-0.5953,-0.3947,-0.201,-0.0073,-0.1413,-0.1512,0.0,0.0,-0.0774,-0.2261,-0.2814,-0.5003,-0.8594,-0.9138,-1.0546,-1.2501,-1.2501,-1.2501,-1.2501,-1.2501,-1.2406,-1.2237,-1.1979,-1.1721,-1.1463,0.0,0.0,0.0,0.0,0.0,0.0,0.0,0.0,0.0,0.0,0.0,0.0,0.0,0.0,0.0,0.0,0.0,0.0,0.0,0.0,0.0,0.0,0.0,0.0,0.0,0.0,0.0,0.0,0.0,0.0,0.0,-0.884,-0.8393,-0.7002,-0.4784,-0.3415,-0.3544,-0.1411,0.0,0.0,0.0,0.0,0.0,0.0,-0.1127,-0.3691,-0.5582,-0.8044,-1.1291,-1.3187,-1.4451,-1.497,-1.4821,-1.4665,-1.4509,-1.4367,-1.4299,-1.4299,-1.4299,-1.4299,-1.4285,-1.3973,-1.3838,-1.3817,-1.3519,-1.3403,-1.3397,-1.3356,-1.3336,-1.3308,-1.3057,-1.2793,-1.2556,0.0,-1.4288,-1.2832,-1.1374,-1.0134,-0.9401,-0.9469,-0.9937,-1.0378,-1.0649,-1.1043,-1.1341,-1.147,-1.164,-1.1681,-1.1538,-1.0612,-0.8806,-0.5908,-0.3977,-0.2915,-0.2659,-0.2939,-0.2522,-0.131,-0.1316,-0.1867,-0.313,-0.4847,-0.703,-0.9454,-1.0308,-1.1327,-1.2501,-1.2501,-1.2501,-1.2501,-1.2501,-1.2501,-1.2488,-1.2318,-1.2142,-1.1959,-1.1681,-1.1558,-1.1562,-1.1131,-1.1056,-1.096,-1.0034,0.0,0.0,0.0,0.0,0.0,0.0,0.0,0.0,0.0,0.0,0.0,0.0,0.0,0.0,0.0,0.0,0.0,0.0,0.0,0.0,0.0,0.0,0.0,0.0,-1.116,-1.0919,-0.9899,-0.6918,-0.4839,-0.5007,-0.2056,0.0,0.0,0.0,0.0,0.0,-0.0945,-0.2743,-0.5223,-0.7785,-1.0342,-1.2904,-1.4422,-1.5147,-1.5059,-1.4848,-1.4699,-1.4604,-1.4401,-1.4299,-1.4299,-1.4299,-1.4299,-1.4285,-1.3973,-1.3838,-1.3817,-1.3519,-1.3403,-1.3403,0.0,0.0,0.0,0.0,-1.2752,-1.2589,0.0,-1.418,-1.2788,-1.119,-1.0035,-0.9435,-0.9605,-0.9998,-1.0439,-1.0826,-1.109,-1.1294,-1.1565,-1.1606,-1.1558,-1.1402,-1.1647,-1.0166,0.0,-0.4622,-0.4558,-0.619,-0.4667,-0.37,-0.3469,-0.3426,-0.3599,-0.3834,-0.7579,-0.9532,-0.9765,-1.1637,-1.2501,-1.2501,-1.2501,-1.2501,-1.2501,-1.2501,-1.2501,-1.2501,-1.2501,-1.2501,-1.2461,-1.206,-1.1993,-1.2054,-1.164,-1.1504,-1.1277,-0.9631,0.0,0.0,0.0,0.0,0.0,0.0,0.0,0.0,0.0,0.0,0.0,0.0,0.0,0.0,0.0,0.0,0.0,0.0,0.0,0.0,0.0,0.0,0.0,0.0,-1.3227,-1.3512,-1.3824,-0.9965,-0.7052,-0.6949,-0.3055,-0.0275,0.0,0.0,-0.0094,-0.0381,-0.257,-0.5036,-0.788,-1.0153,0.0,0.0,0.0,-1.5181,-1.5181,-1.4889,-1.474,-1.4733,-1.4441,-1.4299,-1.4299,-1.4299,-1.4299,-1.4285,-1.3973,-1.3838,-1.3817,-1.3519,-1.3403,-1.3403,-1.3403,-1.3295,-1.3119,-1.2854,-1.2732,-1.2684,0.0,-1.348,-1.251,-0.9973,-0.9488,-0.9469,-0.9741,-1.0066,-1.0439,-1.0826,-1.1179,-1.1369,-1.143,-1.1545,-1.1558,-1.1402,-1.1558,-1.0777,0.0,0.0,-0.7625,-0.635,-0.7504,-0.7399,-0.5689,-0.5702,-0.6488,-0.8201,-0.8983,-1.0236,-1.1876,-1.2347,-1.2501,-1.2501,-1.2501,-1.2501,-1.2501,-1.2501,-1.2501,-1.2501,-1.2501,-1.2501,-1.2494,-1.2406,-1.2393,-1.2393,-1.2189,-1.2189,-1.2188,-1.174,-1.0546,-0.9173,-0.8812,-0.7177,0.0,0.0,0.0,0.0,0.0,0.0,0.0,0.0,0.0,0.0,0.0,0.0,0.0,0.0,0.0,0.0,0.0,0.0,0.0,-1.3241,-1.3363,-1.3546,-1.3966,-1.1563,-0.9061,-0.7293,-0.4598,-0.2102,-0.0185,0.0,-0.0849,-0.2948,-0.3518,-0.5795,-1.0437,-1.1102,-1.2528,-1.5087,-1.5181,-1.5181,-1.5181,-1.4889,-1.474,-1.4733,-1.4441,0.0,-1.4299,-1.4299,-1.4299,-1.4285,-1.3973,-1.3838,-1.3817,-1.3519,-1.3403,-1.3403,-1.3403,-1.3234,-1.2996,-1.2935,-1.2759,-1.2542,-1.4151,-1.3598,-1.2692,-0.9817,-0.9449,-0.968,-0.9842,-1.0188,-1.0521,-1.0833,-1.1138,-1.1274,-1.1274,-1.1416,-1.1416,-1.1192,-1.0447,0.0,0.0,-0.9937,-0.9381,-0.9444,-0.9423,-0.8905,-0.7894,-0.7816,-0.8361,-0.9376,-1.0469,-1.1482,-1.2501,-1.2501,-1.2501,-1.2501,-1.2501,-1.2501,-1.2501,-1.2501,-1.2501,-1.2501,-1.2501,-1.2501,-1.2501,-1.2501,-1.2501,-1.2494,-1.242,-1.244,-1.2488,-1.242,-1.1706,-1.0847,-1.0847,-0.9364,-0.7375,0.0,0.0,0.0,0.0,0.0,0.0,0.0,0.0,0.0,0.0,0.0,0.0,0.0,0.0,-1.2671,-1.282,0.0,-1.3275,-1.3573,-1.3688,-1.3817,-1.4041,-1.3217,-1.1605,-0.9197,-0.6883,-0.5043,-0.3781,-0.3743,-0.435,-0.5602,-0.6838,-0.8731,-1.1291,-1.2622,-1.3852,-1.5181,-1.5181,-1.5147,-1.5079,-1.4855,-1.4699,-1.4624,-1.4407,-1.4299,-1.4299,-1.4299,-1.4258,-1.4177,-1.3939,-1.3797,-1.3715,-1.3492,-1.3403,-1.3397,-1.3315,-1.3152,-1.2949,-1.2874,-1.2698,-1.2501,-1.4519,-1.3976,-1.3078,-1.0004,-0.9646,-0.9883,-1.0004,-1.0317,-1.0602,-1.084,-1.105,-1.1124,-1.1124,-1.1233,-1.1233,-1.105,0.0,0.0,0.0,-1.0844,-1.0756,-1.2458,-1.0898,-1.0047,-1.0068,-1.0068,-1.0057,-1.0036,-1.1681,-1.2528,-1.2501,-1.2501,-1.2501,-1.2501,-1.2501,-1.2501,-1.2501,-1.2501,-1.2501,-1.2501,-1.2501,-1.2501,-1.2501,-1.2501,-1.2501,-1.2501,-1.2501,-1.2481,-1.2467,-1.2494,-1.2406,-1.2298,-1.2325,-1.1158,-0.9588,-0.8654,-0.7366,0.0,0.0,0.0,0.0,0.0,0.0,0.0,0.0,-1.244,-1.2535,-1.2807,-1.3003,-1.32,-1.3403,-1.3566,-1.3715,-1.3865,-1.4014,-1.4116,-1.4116,-1.4346,-1.3739,-1.1654,-0.9485,-0.794,-0.748,-0.7514,-0.7785,-0.8258,-1.0248,-1.1579,-1.2145,-1.404,-1.5181,-1.5181,-1.5181,-1.5113,-1.497,-1.4821,-1.4665,-1.4509,-1.4367,-1.4299,-1.4299,-1.4299,-1.4217,-1.4061,-1.3878,-1.3715,-1.3573,-1.3451,-1.3403,-1.3383,-1.3234,-1.3085,-1.2942,-1.2786,-1.263,-1.2501,0.0,-1.4387,-1.3464,-1.0132,-0.9713,-0.9917,-1.0209,-1.0392,-1.0602,-1.084,-1.0894,-1.09,-1.09,-1.0921,-1.109,-1.1321,0.0,0.0,-1.2264,-1.2176,-1.2309,-1.2698,-1.2469,-1.245,-1.2582,-1.2582,-1.2523,-1.2305,-1.2548,-1.2637,-1.2501,-1.2501,-1.2501,-1.2501,-1.2501,-1.2501,-1.2501,-1.2501,-1.2501,-1.2501,-1.2501,-1.2501,-1.2501,-1.2501,-1.2501,-1.2501,-1.2501,-1.242,-1.2332,-1.2461,-1.2406,-1.2311,-1.244,-1.2213,-1.1214,-0.7681,-0.6329,-0.5226,-0.1678,-0.3295,-0.6603,-0.8809,-1.0702,-1.2123,0.0,-1.2983,-1.3119,-1.3288,-1.3546,-1.3715,-1.362,-1.3722,-1.3865,-1.4021,-1.4177,-1.4272,-1.4272,-1.4414,-1.4413,-1.4123,-1.2163,-0.9892,-0.7749,-0.7544,-0.8542,-1.0819,-1.1197,-1.2428,-1.461,-1.5087,-1.5181,-1.5181,-1.5181,-1.5113,-1.497,-1.4821,-1.4665,-1.4509,-1.4367,-1.4299,-1.4299,-1.4299,-1.4217,-1.4055,-1.3777,-1.3566,-1.3424,-1.341,-1.3403,-1.3383,-1.3234,-1.3085,-1.2942,-1.2786,-1.263,-1.2501,0.0,-1.4538,-1.3605,-1.0404,-0.9992,-1.0161,-1.0371,-1.0527,-1.067,-1.0799,-1.0826,-1.0847,-1.0759,-1.0745,-1.0934,-1.1233,-1.1531,0.0,-1.2264,-1.2508,-1.2705,-1.2861,-1.2868,-1.2895,-1.3043,-1.2963,-1.2888,-1.2732,-1.2732,-1.2651,-1.2501,-1.2501,-1.2501,-1.2501,-1.2501,-1.2501,-1.2501,-1.2501,-1.2501,-1.2501,-1.2501,-1.2501,-1.2501,-1.2501,-1.2447,-1.2379,-1.2379,-1.2338,0.0,-1.2257,-1.2203,-1.2169,-1.223,-1.1434,-1.0161,-0.8375,-0.7018,-0.605,-0.561,-0.7608,-1.0041,-1.1077,-1.1914,-1.2664,-1.3112,-1.3261,-1.337,-1.3607,-1.3824,-1.3987,-1.4014,-1.4136,-1.4278,-1.4434,-1.4516,-1.4557,-1.4557,-1.4604,-1.4645,-1.4645,-1.3827,-1.291,-1.196,-1.1975,-1.2428,-1.3569,-1.3569,-1.404,-1.5181,-1.5181,-1.5181,-1.5181,-1.5181,-1.5072,-1.4841,-1.4774,-1.4624,-1.4387,-1.4326,-1.4299,-1.4299,-1.4299,-1.417,-1.3919,-1.3627,-1.3458,-1.3403,-1.3403,-1.3403,-1.3376,-1.3139,-1.3017,-1.2942,-1.2786,-1.263,-1.2501,0.0,-1.4203,-1.3111,-1.0452,-1.0141,-1.0276,-1.0466,-1.0622,-1.0717,-1.0717,-1.0752,-1.0846,-1.0731,-1.0717,-1.0839,-1.1138,-1.1443,-1.1789,-1.2203,-1.2501,-1.2752,-1.2949,-1.2963,-1.2996,-1.3078,-1.3085,-1.299,-1.2793,-1.2793,-1.2691,-1.2501,-1.2501,-1.2501,-1.2501,-1.2501,-1.2501,-1.2501,-1.2501,-1.2501,-1.2501,-1.2501,-1.2501,-1.2501,-1.2461,-1.2379,-1.2291,-1.2291,-1.2237,-1.2149,-1.2033,-1.1999,-1.1925,-1.1399,-1.0288,-0.8965,-0.7641,-0.6419,-0.5874,-0.795,-1.0103,-1.1882,-1.2541,-1.2793,-1.2935,-1.3261,-1.3403,-1.3526,-1.3736,-1.3939,-1.4102,-1.4217,-1.4387,-1.455,-1.4658,-1.4746,-1.4787,-1.4746,-1.474,-1.474,-1.474,-1.4706,-1.474,-1.4896,-1.5038,-1.514,-1.5181,-1.5181,-1.5181,-1.5181,-1.5181,-1.5181,-1.5181,-1.5181,-1.5038,-1.474,-1.474,-1.459,-1.4299,-1.4299,-1.4299,-1.4299,-1.4211,-1.4027,-1.377,-1.3512,-1.3403,-1.3403,-1.3403,-1.3403,-1.337,-1.3078,-1.2963,-1.2935,-1.2739,-1.2596,-1.2501,0.0,0.0,-1.1792,-1.0266,-0.999,-1.0092,-1.0446,-1.0622,-1.0717,-1.0717,-1.0724,-1.0724,-1.0717,-1.0717,-1.0839,-1.1138,-1.1443,-1.1748,-1.2047,-1.2345,-1.2644,-1.3029,-1.2963,-1.3091,-1.3383,-1.339,-1.3247,-1.2956,-1.2956,-1.28,-1.2501,-1.2501,-1.2501,-1.2501,-1.2501,-1.2501,-1.2501,-1.2501,-1.2501,-1.2501,-1.2501,-1.2501,-1.2488,-1.2345,-1.2291,-1.2291,-1.2291,-1.2094,-1.1843,-1.1837,-1.1837,-1.1464,-0.9617,-0.9102,-0.845,-0.4441,-0.3256,-0.3675,-0.5786,-0.8041,-1.0177,-1.2174,-1.2949,-1.3159,-1.3173,-1.341,-1.3627,-1.3634,-1.3871,-1.4075,-1.4075,-1.4319,-1.4516,-1.4516,-1.4767,-1.4909,-1.476,-1.474,-1.474,-1.474,-1.4611,-1.4577,-1.4733,-1.4889,-1.5031,-1.5174,-1.5181,-1.5181,-1.5181,-1.5181,-1.5181,-1.5181,-1.5181,-1.5038,-1.474,-1.474,-1.459,-1.4299,-1.4299,-1.4299,-1.4292,-1.3994,-1.3777,-1.3627,-1.3471,-1.3403,-1.3403,-1.3403,-1.3403,-1.337,-1.3078,-1.2963,-1.2922,-1.2623,-1.2508,-1.2501,0.0,0.0,0.0,-1.0551,-1.0344,-1.0412,-1.0616,-1.0602,-1.0609,-1.0704,-1.0894,0.0,0.0,0.0,0.0,0.0,-1.1504,-1.1789,-1.2189,-1.2393,-1.2637,-1.3029,-1.2963,-1.3051,-1.3247,-1.3159,-1.3057,-1.2963,-1.2861,-1.2705,-1.2501,-1.2501,-1.2501,-1.2501,-1.2501,-1.2501,-1.2501,-1.2501,-1.2562,-1.2644,-1.2542,-1.2562,-1.2637,-1.2488,-1.2311,-1.2128,0.0,-1.1918,-1.1803,-1.1606,-1.0731,-0.9635,-0.8977,-0.7031,-0.4799,-0.3474,-0.508,-0.7435,-0.8286,-1.0071,-1.1896,-1.2809,-1.3098,-1.3227,-1.3431,-1.3553,-1.3654,-1.3749,-1.3851,-1.3946,-1.4055,-1.4238,-1.4434,-1.4631,-1.4835,-1.4984,-1.5025,-1.495,-1.4855,-1.4753,-1.4604,-1.4529,-1.4584,-1.4726,-1.4882,-1.5031,-1.5038,-1.5086,-1.5174,-1.5181,-1.5181,-1.5181,-1.5092,-1.4943,-1.474,-1.4638,-1.4489,-1.4299,-1.4299,-1.4245,-1.4143,-1.3933,-1.3763,-1.362,-1.3464,-1.3403,-1.3403,-1.3403,-1.3342,-1.3227,-1.3037,-1.2901,-1.2786,-1.2576,-1.2501,-1.2501,0.0,0.0,0.0,0.0,0.0,0.0,0.0,0.0,0.0,0.0,0.0,0.0,0.0,0.0,0.0,0.0,0.0,-1.1708,-1.2101,0.0,-1.242,-1.2779,-1.28,-1.2868,-1.301,-1.2922,-1.2854,-1.28,-1.2698,-1.2596,-1.2501,-1.2501,-1.2501,-1.2501,-1.2501,-1.2501,-1.2501,-1.2501,-1.2556,-1.2637,-1.2488,-1.2488,-1.2556,-1.2406,-1.223,0.0,0.0,-1.1789,-1.1775,-1.143,-1.0657,-0.9646,-0.892,-0.6589,-0.4166,-0.4235,-0.6696,-0.9397,-0.9593,-1.1172,-1.2868,-1.3112,-1.3214,-1.3308,-1.3505,-1.3546,-1.3559,-1.3593,-1.3648,-1.3715,-1.3817,-1.4,-1.4251,-1.4597,-1.4787,-1.4957,-1.5153,-1.5059,-1.4936,-1.4835,-1.4685,-1.459,-1.459,-1.4631,-1.4719,-1.4875,-1.4984,-1.5065,-1.5106,-1.5153,-1.5181,-1.5181,-1.5045,-1.4896,-1.474,-1.459,-1.4441,-1.4299,-1.4245,-1.4136,-1.3987,-1.3831,-1.3688,-1.3539,-1.3444,-1.3403,-1.3403,-1.3403,-1.3308,-1.3159,-1.3017,-1.2868,-1.2712,-1.2556,-1.2501,-1.2501,0.0,0.0,0.0,0.0,0.0,0.0,0.0,0.0,0.0,0.0,0.0,0.0,0.0,0.0,0.0,0.0,0.0,0.0,-1.1809,0.0,0.0,-1.2474,-1.2488,-1.2569,-1.2725,-1.2725,-1.2651,-1.2515,-1.2508,-1.2501,-1.2501,-1.2501,-1.2501,-1.2501,-1.2501,-1.2501,-1.2501,-1.2494,-1.2494,-1.2488,-1.2338,-1.2284,-1.2284,-1.2135,0.0,0.0,-1.1742,-1.1728,-1.1775,-1.1335,-1.1318,-1.1129,-0.9163,-0.7612,-0.6455,-0.6459,-0.7988,-0.9651,-0.9771,-1.1329,-1.301,-1.3146,-1.3288,-1.339,-1.339,-1.3383,-1.3336,-1.3193,-1.3275,-1.3376,-1.3376,-1.3627,-1.3973,-1.4421,-1.4631,-1.4841,-1.514,-1.5065,-1.4977,-1.497,-1.4841,-1.4746,-1.474,-1.4611,-1.4577,-1.4719,-1.4991,-1.5092,-1.4964,-1.5086,-1.516,-1.516,-1.5025,-1.4875,-1.4726,-1.4577,-1.4428,-1.4285,-1.4143,-1.3987,-1.3824,-1.3688,-1.3546,-1.3403,-1.3403,-1.3403,-1.3403,-1.339,-1.3302,-1.3146,-1.3003,-1.2854,-1.2698,-1.2556,-1.2501,-1.2501,0.0,0.0,0.0,0.0,0.0,0.0,0.0,0.0,0.0,0.0,0.0,0.0,0.0,0.0,0.0,0.0,0.0,0.0,-1.1816,0.0,0.0,0.0,0.0,-1.2467,-1.2725,-1.2617,-1.2596,0.0,-1.2556,-1.2501,-1.2501,-1.2501,-1.2501,-1.2501,-1.2501,-1.2501,-1.2494,-1.2386,-1.2406,-1.2481,0.0,-1.225,-1.2433,0.0,0.0,0.0,-1.202,-1.1972,-1.1952,-1.1619,-1.0746,-0.9488,-0.7619,-0.782,-0.8804,-0.888,-1.0408,-1.2151,-1.2285,-1.268,-1.3152,-1.3308,-1.3288,-1.3227,-1.3227,-1.3152,-1.3064,-1.3024,-1.3044,-1.3071,-1.3071,-1.341,-1.379,-1.4129,-1.4496,-1.4841,-1.514,-1.5153,-1.5086,-1.4984,-1.4936,-1.4869,-1.4753,-1.4706,-1.4652,-1.4577,-1.4638,-1.4719,-1.4794,-1.4835,-1.4855,-1.4855,-1.4706,-1.4611,-1.457,-1.4428,-1.4278,-1.4129,-1.4089,-1.3933,-1.3682,-1.3648,-1.3546,-1.3403,-1.3403,-1.3403,-1.339,-1.3275,-1.3146,-1.2996,-1.2847,-1.2698,-1.2556,-1.2515,-1.2501,-1.2501,0.0,0.0,0.0,0.0,0.0,0.0,0.0,0.0,0.0,0.0,0.0,0.0,0.0,0.0,0.0,0.0,0.0,0.0,0.0,0.0,0.0,0.0,0.0,-1.2271,-1.2433,-1.242,-1.2386,0.0,0.0,0.0,-1.2406,-1.2338,-1.2345,-1.2406,-1.2338,-1.2311,-1.2305,-1.2223,0.0,0.0,0.0,0.0,0.0,0.0,0.0,-1.2277,-1.2196,-1.2162,-1.2149,-1.204,-1.1352,-1.0498,-0.9489,-1.0019,-1.113,-1.1195,-1.2084,-1.299,-1.3132,-1.3173,-1.3207,-1.3363,-1.3288,-1.3173,-1.3173,-1.3064,-1.2942,-1.2874,-1.2861,-1.2861,-1.2861,-1.3173,-1.3573,-1.4,-1.4394,-1.4767,-1.5133,-1.5181,-1.5153,-1.5072,-1.5065,-1.5031,-1.4943,-1.4875,-1.478,-1.4624,-1.4611,-1.4618,-1.4638,-1.4706,-1.474,-1.474,-1.459,-1.4482,-1.4421,-1.4272,-1.4156,-1.4068,-1.3939,-1.379,-1.3627,-1.3559,-1.3485,-1.3403,-1.3403,-1.3403,-1.339,-1.3234,-1.3091,-1.2942,-1.2793,-1.2637,-1.2501,-1.2501,-1.2501,-1.2501,0.0,0.0,0.0,0.0,0.0,0.0,0.0,0.0,0.0,0.0,0.0,0.0,0.0,0.0,0.0,0.0,0.0,0.0,0.0,0.0,0.0,0.0,-1.2149,-1.2155,-1.2121,-1.223,-1.2162,-1.1891,0.0,0.0,0.0,0.0,0.0,0.0,0.0,0.0,0.0,0.0,0.0,0.0,0.0,0.0,0.0,0.0,0.0,-1.2318,-1.2318,-1.2318,-1.2338,-1.2461,-1.2515,-1.2535,-1.2576,-1.2773,-1.2996,-1.3037,-1.3037,-1.3051,-1.3193,-1.322,-1.3234,-1.337,-1.3268,-1.3146,-1.3146,-1.3017,-1.2861,-1.2725,-1.2698,-1.2698,-1.2698,-1.2956,-1.3356,-1.3919,-1.4278,-1.4638,-1.5092,-1.5153,-1.516,-1.5181,-1.5181,-1.5181,-1.5181,-1.5038,-1.4882,-1.4753,-1.4706,-1.4624,-1.4489,-1.4611,-1.4679,-1.4679,-1.455,-1.4428,-1.4299,-1.415,-1.4061,-1.4041,-1.3763,-1.362,-1.3593,-1.3458,-1.3403,-1.3403,-1.3403,-1.339,-1.3356,-1.3207,-1.3057,-1.2915,-1.2759,-1.2617,-1.2501,-1.2501,-1.2501,-1.2501,0.0,0.0,0.0,0.0,0.0,0.0,0.0,0.0,0.0,0.0,-1.143,-1.1416,0.0,0.0,0.0,0.0,0.0,0.0,0.0,0.0,0.0,0.0,-1.2128,-1.2176,-1.242,-1.2338,-1.2264,-1.221,-1.2108,0.0,0.0,0.0,0.0,0.0,0.0,0.0,0.0,0.0,0.0,0.0,0.0,0.0,0.0,0.0,0.0,0.0,-1.2467,-1.2467,-1.2467,-1.2494,-1.2583,-1.2732,-1.2976,-1.3091,-1.3186,-1.3437,-1.3424,-1.3356,-1.3512,-1.3458,-1.337,-1.3397,-1.32,-1.2996,-1.2996,-1.2779,-1.2576,-1.2549,-1.2542,-1.2542,-1.2542,-1.2888,-1.3288,-1.3648,-1.4061,-1.4496,-1.4943,-1.5011,-1.5052,-1.5167,-1.5181,-1.5181,-1.5181,-1.4936,-1.4767,-1.474,-1.4516,-1.4367,-1.434,-1.436,-1.4373,-1.4373,-1.4353,-1.4326,-1.4299,-1.415,-1.4007,-1.3878,-1.3709,-1.3559,-1.3437,-1.341,-1.3403,-1.3403,-1.3403,-1.3329,-1.32,-1.3057,-1.2908,-1.2752,-1.2603,-1.2522,-1.2501,-1.2501,-1.2501,-1.2501,0.0,0.0,0.0,0.0,0.0,0.0,0.0,-1.1253,-1.1477,-1.1701,-1.1735,-1.1769,-1.1843,-1.185,-1.1938,0.0,0.0,0.0,0.0,0.0,0.0,0.0,0.0,-1.221,-1.2271,-1.2359,-1.2325,-1.2169,0.0,-1.2142,-1.2135,-1.1979,-1.1938,-1.1938,-1.1864,-1.183,-1.1823,-1.1755,0.0,-1.1728,-1.1803,-1.1925,0.0,0.0,0.0,0.0,0.0,-1.2501,-1.2515,-1.2589,-1.2671,-1.2766,-1.299,-1.3166,-1.3336,-1.3559,-1.3573,-1.3553,-1.3702,-1.3688,-1.3614,-1.3539,-1.3295,-1.3051,-1.3056,-1.2725,-1.2501,-1.2501,-1.2501,-1.2501,-1.2501,-1.2807,-1.3159,-1.3464,-1.3817,-1.4217,-1.4672,-1.4801,-1.4903,-1.5059,-1.5072,-1.5072,-1.5072,-1.4869,-1.4706,-1.4624,-1.4489,-1.438,-1.4306,-1.4299,-1.4299,-1.4299,-1.4299,-1.4299,-1.4299,-1.4068,-1.3912,-1.3838,-1.3614,-1.3471,-1.3403,-1.3403,-1.3403,-1.3397,-1.3315,-1.3241,-1.3152,-1.2935,-1.28,-1.2712,-1.2562,-1.2501,-1.2501,-1.2501,-1.2501,-1.2501,0.0,0.0,0.0,0.0,0.0,0.0,0.0,-1.147,-1.1728,-1.1904,-1.206,-1.2155,-1.2155,-1.2101,-1.2135,0.0,0.0,0.0,0.0,0.0,0.0,0.0,0.0,-1.225,-1.2155,0.0,0.0,-1.2108,-1.2196,0.0,0.0,0.0,0.0,0.0,-1.1728,-1.1667,-1.166,-1.1633,-1.164,0.0,0.0,-1.1972,-1.2128,0.0,0.0,0.0,0.0,-1.2501,-1.2522,-1.2637,-1.2705,-1.2752,-1.2874,-1.3091,-1.3342,-1.3526,-1.358,-1.362,-1.379,-1.3838,-1.3804,-1.3661,-1.3397,-1.3132,-1.299,-1.2725,-1.2501,-1.2501,-1.2501,-1.2501,-1.2501,-1.2725,-1.301,-1.3302,-1.3573,-1.3912,-1.4401,-1.457,-1.4713,-1.4903,-1.4923,-1.4923,-1.4923,-1.478,-1.4638,-1.4523,-1.4482,-1.4421,-1.4306,-1.4299,-1.4299,-1.4299,-1.4299,-1.4285,-1.4251,-1.398,-1.3824,-1.379,-1.3526,-1.3403,-1.3403,-1.3403,-1.3403,-1.339,-1.3241,-1.3152,-1.3105,-1.284,-1.2712,-1.2671,-1.2549,-1.2501,-1.2501,-1.2501,-1.2501,-1.2501,0.0,0.0,0.0,0.0,0.0,0.0,0.0,-1.1619,-1.1918,-1.221,-1.2372,-1.2461,-1.2461,-1.2223,-1.2176,0.0,0.0,0.0,0.0,0.0,0.0,0.0,0.0,0.0,0.0,0.0,0.0,-1.2271,-1.2142,0.0,0.0,0.0,0.0,0.0,0.0,-1.1809,-1.1803,-1.1674,0.0,0.0,0.0,0.0,0.0,0.0,0.0,0.0,0.0,-1.2501,-1.2501,-1.2515,-1.2617,-1.2732,-1.2745,-1.2868,-1.3057,-1.3342,-1.3424,-1.3485,-1.3763,-1.3838,-1.3804,-1.3661,-1.3397,-1.3132,-1.299,-1.2725,-1.2501,-1.2501,-1.2501,-1.2501,-1.2501,-1.2637,-1.2847,-1.3146,-1.3336,-1.3648,-1.4238,-1.4333,-1.4441,-1.4726,-1.476,-1.476,-1.476,-1.4624,-1.4529,-1.4516,-1.4394,-1.4312,-1.4299,-1.4299,-1.4299,-1.4299,-1.4299,-1.4231,-1.4095,-1.3926,-1.3777,-1.3648,-1.3478,-1.3403,-1.3403,-1.3403,-1.3403,-1.339,-1.3241,-1.3098,-1.2969,-1.28,-1.2651,-1.2522,-1.2508,-1.2501,-1.2501,-1.2501,-1.2501,-1.2501,0.0,0.0,0.0,0.0,0.0,0.0,-1.1613,-1.1755,-1.1972,-1.2366,-1.2393,-1.2406,-1.2494,-1.2393,-1.2372,-1.2488,0.0,0.0,0.0,0.0,0.0,0.0,0.0,0.0,0.0,0.0,-1.2461,-1.2556,-1.24,0.0,0.0,0.0,0.0,0.0,0.0,-1.1972,-1.1965,-1.1911,0.0,0.0,0.0,0.0,0.0,0.0,0.0,0.0,0.0,0.0,-1.2501,-1.2501,-1.2542,-1.2589,-1.2589,-1.2637,-1.2779,-1.3261,-1.3403,-1.3464,-1.3763,-1.3838,-1.3804,-1.3661,-1.3397,-1.3132,-1.299,-1.2725,-1.2501,-1.2501,-1.2501,-1.2501,-1.2501,-1.2549,-1.2664,-1.2874,-1.3037,-1.3281,-1.3702,-1.3912,-1.4136,-1.4441,-1.4475,-1.4509,-1.459,-1.4468,-1.4387,-1.4387,-1.4333,-1.4299,-1.4299,-1.4299,-1.4299,-1.4299,-1.4211,-1.4136,-1.4075,-1.3831,-1.3688,-1.3627,-1.3471,-1.3403,-1.3397,-1.3308,-1.3261,-1.3247,-1.301,-1.2874,-1.2813,-1.2657,-1.2556,-1.2501,-1.2501,-1.2501,-1.2501,-1.2501,-1.2501,-1.2501,0.0,0.0,0.0,0.0,0.0,-1.1423,-1.1721,-1.1843,-1.2026,-1.2393,-1.2386,-1.2393,-1.2488,-1.2501,-1.2501,-1.2501,-1.2501,0.0,0.0,0.0,0.0,0.0,0.0,0.0,0.0,0.0,-1.2576,-1.2732,-1.2623,-1.2569,0.0,0.0,-1.2338,-1.2189,0.0,0.0,0.0,0.0,0.0,0.0,0.0,0.0,0.0,0.0,0.0,0.0,0.0,0.0,0.0,0.0,0.0,-1.2501,-1.2501,-1.2501,-1.2596,-1.3064,-1.3268,-1.339,-1.3641,-1.3777,-1.3804,-1.3661,-1.3397,-1.3132,-1.299,-1.2725,-1.2501,-1.2501,-1.2501,-1.2501,-1.2501,-1.2501,-1.2556,-1.2705,-1.2861,-1.3064,-1.3356,-1.362,-1.3871,-1.4136,-1.4163,-1.4217,-1.4367,-1.4333,-1.4299,-1.4299,-1.4299,-1.4299,-1.4299,-1.4258,-1.4231,-1.4231,-1.4129,-1.4027,-1.3939,-1.3736,-1.3607,-1.3559,-1.3403,-1.3336,-1.3329,-1.318,-1.3112,-1.3091,-1.284,-1.2732,-1.2718,-1.2562,-1.2501,-1.2501,-1.2501,-1.2501,-1.2501,-1.2501,-1.2501,-1.2501,0.0,0.0,0.0,0.0,0.0,0.0,-1.1572,-1.187,-1.2115,-1.2271,-1.2413,-1.2501,-1.2501,-1.2501,-1.2501,-1.2501,-1.2501,0.0,0.0,0.0,0.0,0.0,0.0,0.0,0.0,0.0,-1.2576,-1.2732,-1.2725,-1.2725,-1.2725,-1.2725,-1.2644,-1.2488,0.0,0.0,0.0,0.0,0.0,0.0,0.0,0.0,0.0,0.0,0.0,0.0,0.0,0.0,0.0,0.0,0.0,0.0,0.0,-1.2501,-1.2535,-1.2691,-1.2942,-1.3207,-1.3363,-1.362,-1.3804,-1.3661,-1.3397,-1.3132,-1.299,-1.2725,-1.2501,-1.2501,-1.2501,-1.2501,-1.2501,-1.2501,-1.2556,-1.2705,-1.2861,-1.3064,-1.3356,-1.3532,-1.3682,-1.3831,-1.3844,-1.3905,-1.4061,-1.4211,-1.4299,-1.4299,-1.4299,-1.4299,-1.4299,-1.4156,-1.4075,-1.4075,-1.4075,-1.3933,-1.3634,-1.3634,-1.3553,-1.3403,-1.3247,-1.3173,-1.3173,-1.303,-1.2963,-1.2956,-1.28,-1.2732,-1.2718,-1.2562,-1.2501,-1.2501,-1.2501,-1.2501,-1.2501,-1.2501,-1.2501,-1.2501,0.0,0.0,0.0,0.0,0.0,0.0,0.0,-1.1843,-1.1999,-1.2257,-1.2332,-1.2393,-1.2488,-1.2501,-1.2501,-1.2501,-1.2501,0.0,0.0,0.0,0.0,0.0,0.0,0.0,0.0,-1.2603,-1.2732,-1.2888,-1.2888,-1.2888,-1.2888,-1.2779,-1.2651,-1.2501,-1.2454,-1.2433,0.0,0.0,0.0,0.0,0.0,0.0,0.0,0.0,0.0,0.0,0.0,0.0,0.0,0.0,0.0,0.0,0.0,0.0,0.0,-1.2562,-1.2712,-1.2901,-1.3057,-1.3166,-1.3227,-1.3186,-1.3017,-1.2861,-1.2813,-1.2644,-1.2501,-1.2501,-1.2501,-1.2501,-1.2501,-1.2501,-1.2556,-1.2705,-1.2861,-1.303,-1.322,-1.3376,-1.3532,-1.3682,-1.3783,-1.3899,-1.4055,-1.4116,-1.419,-1.4292,-1.4204,-1.4143,-1.4143,-1.4,-1.396,-1.4068,-1.3878,-1.3722,-1.3634,-1.3526,-1.3397,-1.3247,-1.3193,-1.3119,-1.3024,-1.2874,-1.28,-1.2793,-1.2644,-1.2576,-1.2569,-1.2522,-1.2501,-1.2501,-1.2501,-1.2501,-1.2501,-1.2501,-1.2501,-1.2501,0.0,0.0,0.0,0.0,0.0,0.0,0.0,-1.1796,-1.1918,-1.2169,-1.2257,-1.2345,-1.2488,-1.2501,-1.2501,-1.2501,-1.2501,0.0,0.0,0.0,0.0,0.0,0.0,0.0,-1.2501,-1.2651,-1.2807,-1.2963,-1.3017,-1.3017,-1.3043,-1.2861,-1.2705,-1.2501,-1.2501,-1.2501,0.0,0.0,0.0,0.0,0.0,0.0,0.0,0.0,0.0,0.0,0.0,0.0,0.0,0.0,0.0,0.0,0.0,0.0,0.0,0.0,-1.2569,-1.2678,-1.2834,-1.2915,-1.2963,-1.2963,-1.284,-1.2732,-1.2732,-1.261,-1.2501,-1.2501,-1.2501,-1.2501,-1.2501,-1.2501,-1.2535,-1.263,-1.2773,-1.2922,-1.3071,-1.322,-1.337,-1.3526,-1.3675,-1.3797,-1.3892,-1.3953,-1.4021,-1.4122,-1.4041,-1.3987,-1.3987,-1.3844,-1.3804,-1.3899,-1.3722,-1.3573,-1.3458,-1.3363,-1.3241,-1.3091,-1.303,-1.2956,-1.2868,-1.2712,-1.2644,-1.2637,-1.2542,-1.2501,0.0,-1.2501,-1.2501,-1.2501,-1.2501,-1.2501,-1.2501,-1.2501,-1.2501,-1.2501,0.0,0.0,0.0,0.0,0.0,0.0,0.0,-1.1742,-1.1884,-1.204,-1.2196,-1.2345,-1.2488,-1.2501,-1.2501,-1.2501,0.0,0.0,0.0,0.0,0.0,0.0,0.0,0.0,-1.2501,-1.2664,-1.282,-1.2976,-1.3119,-1.3119,-1.299,-1.2983,-1.2813,-1.2515,-1.2515,-1.2515,0.0,0.0,0.0,0.0,0.0,0.0,0.0,0.0,0.0,0.0,0.0,0.0,0.0,0.0,0.0,0.0,0.0,0.0,0.0,0.0,0.0,0.0,0.0,-1.282,-1.2929,-1.2929,-1.282,-1.2712,-1.2712,-1.2603,0.0,-1.2501,-1.2501,-1.2501,-1.2501,-1.2501,-1.2508,-1.2515,-1.2637,-1.2786,-1.2942,-1.3085,-1.3227,-1.3383,-1.3526,-1.3614,-1.3627,-1.3749,-1.3831,-1.3838,-1.3831,-1.3824,-1.3824,-1.3688,-1.3607,-1.36,-1.36,-1.3458,-1.3173,-1.3159,-1.3085,-1.2942,-1.28,-1.2725,-1.2712,-1.2569,-1.2501,-1.2501,-1.2501,-1.2501,-1.2501,-1.2501,-1.2501,-1.2501,-1.2501,-1.2501,-1.2501,-1.2501,-1.2501,-1.2501,0.0,0.0,0.0,0.0,0.0,0.0,0.0,0.0,0.0,0.0,-1.2196,-1.2345,-1.2488,-1.2501,-1.2501,0.0,0.0,0.0,0.0,0.0,0.0,0.0,0.0,0.0,-1.2501,-1.2766,-1.2976,-1.3125,-1.3275,-1.3329,-1.3295,-1.318,-1.2963,-1.2678,-1.2678,-1.261,0.0,0.0,0.0,0.0,0.0,0.0,0.0,0.0,0.0,0.0,-1.2501,-1.2501,0.0,0.0,0.0,0.0,0.0,0.0,0.0,0.0,-1.2501,-1.2508,-1.2549,0.0,-1.261,-1.261,-1.2583,-1.2556,0.0,-1.2528,-1.2501,-1.2501,-1.2501,-1.2501,-1.2501,-1.2501,-1.2542,-1.2657,-1.2705,-1.2786,-1.2942,-1.3085,-1.3227,-1.3383,-1.3431,-1.3498,-1.362,-1.3661,-1.3722,-1.3831,-1.3743,-1.3682,-1.3682,-1.3539,-1.3403,-1.3281,-1.3281,-1.3247,-1.3173,-1.3064,-1.2935,-1.2786,-1.2745,-1.2671,-1.2556,-1.2515,-1.2501,-1.2501,-1.2501,-1.2501,-1.2501,-1.2501,-1.2501,-1.2501,-1.2501,-1.2501,-1.2501,-1.2501,-1.2501,-1.2501,0.0,0.0,0.0,0.0,0.0,0.0,0.0,0.0,0.0,0.0,0.0,-1.2264,-1.2481,-1.2501,0.0,0.0,0.0,0.0,0.0,0.0,0.0,0.0,0.0,-1.261,-1.261,-1.2901,-1.3098,-1.3173,-1.3322,-1.3363,-1.3295,-1.3146,-1.2949,-1.2725,-1.2657,-1.2576,0.0,0.0,0.0,0.0,0.0,0.0,0.0,0.0,0.0,0.0,-1.2501,-1.2501,0.0,-1.2501,-1.2501,-1.2501,0.0,0.0,0.0,0.0,-1.2501,-1.2501,-1.2501,-1.2556,-1.261,-1.261,-1.261,-1.261,-1.261,-1.2556,-1.2501,-1.2501,-1.2501,-1.2501,-1.2501,-1.2501,-1.2528,-1.261,-1.2623,-1.2705,-1.2929,-1.3085,-1.3227,-1.3383,-1.3403,-1.3437,-1.3519,-1.3526,-1.3553,-1.3634,-1.3566,-1.3526,-1.3526,-1.3376,-1.3261,-1.3173,-1.3037,-1.2969,-1.2969,-1.2895,-1.2779,-1.2623,-1.2623,-1.2583,-1.2501,-1.2501,-1.2501,-1.2501,-1.2501,-1.2501,-1.2501,-1.2501,-1.2501,-1.2501,-1.2501,-1.2501,-1.2501,-1.2501,-1.2501,-1.2501,0.0,0.0,0.0,0.0,0.0,0.0,0.0,0.0,0.0,0.0,0.0,0.0,0.0,0.0,0.0,0.0,0.0,0.0,0.0,0.0,0.0,0.0,-1.2664,-1.2718,-1.2698,-1.2963,-1.3125,-1.3173,-1.3302,-1.3322,-1.3241,-1.3071,-1.2901,-1.2725,-1.2596,-1.2522,0.0,0.0,0.0,0.0,0.0,0.0,0.0,0.0,0.0,0.0,0.0,0.0,0.0,-1.2501,-1.2501,-1.2501,-1.2501,0.0,0.0,0.0,0.0,0.0,-1.2501,-1.263,-1.2752,-1.2705,-1.2712,-1.2725,-1.2698,-1.2596,-1.2501,-1.2501,-1.2501,-1.2501,-1.2501,-1.2501,-1.2501,-1.2501,-1.2522,-1.2644,-1.2949,-1.3098,-1.3227,-1.3383,-1.3403,-1.3403,-1.3403,-1.3403,-1.3403,-1.3403,-1.3403,-1.339,-1.337,-1.3241,-1.3152,-1.3105,-1.2861,-1.2718,-1.2698,-1.2698,-1.263,-1.2501,-1.2501,-1.2501,-1.2501,-1.2501,-1.2501,-1.2501,-1.2501,-1.2501,-1.2501,-1.2501,-1.2501,-1.2501,-1.2501,-1.2501,-1.2501,-1.2501,-1.2501,-1.2501,0.0,0.0,0.0,0.0,0.0,0.0,0.0,0.0,0.0,0.0,0.0,0.0,0.0,0.0,0.0,0.0,0.0,0.0,0.0,0.0,0.0,-1.2705,-1.2718,-1.2671,-1.2542,-1.2705,-1.2922,-1.3173,-1.3193,-1.3329,-1.3553,-1.3268,-1.2996,-1.2725,-1.2705,-1.2623,-1.2501,-1.2501,0.0,0.0,-1.2501,0.0,0.0,0.0,0.0,0.0,0.0,0.0,0.0,-1.2501,-1.2501,-1.2501,-1.2501,0.0,0.0,0.0,0.0,0.0,-1.2501,-1.2712,-1.2861,-1.2603,-1.263,-1.2698,-1.2569,-1.2522,-1.2501,-1.2501,-1.2501,-1.2501,-1.2501,-1.2501,-1.2501,-1.2501,-1.261,-1.28,-1.3098,-1.3159,-1.3227,-1.3383,-1.3403,-1.3403,-1.3403,-1.3403,-1.3403,-1.3403,-1.3403,-1.3342,-1.3214,-1.3186,-1.3057,-1.2807,-1.2752,-1.2671,-1.2535,-1.2535,-1.2522,-1.2501,-1.2501,-1.2501,-1.2501,-1.2501,-1.2501,-1.2501,-1.2501,-1.2501,-1.2501,-1.2501,-1.2501,-1.2501,-1.2501,-1.2501,-1.2501,-1.2501,-1.2501,-1.2481,0.0,0.0,0.0,0.0,0.0,0.0,0.0,0.0,0.0,0.0,0.0,0.0,0.0,0.0,0.0,0.0,0.0,0.0,0.0,0.0,-1.2895,-1.2739,-1.2807,-1.2779,-1.263,-1.2854,-1.3078,-1.3295,-1.3376,-1.3492,-1.362,-1.3234,-1.2942,-1.2725,-1.2644,-1.2569,-1.2501,-1.2501,-1.2501,0.0,0.0,0.0,0.0,0.0,0.0,0.0,0.0,0.0,0.0,0.0,-1.2501,-1.2501,-1.2501,0.0,0.0,0.0,0.0,0.0,-1.2501,-1.2664,-1.2779,-1.2556,-1.2678,-1.2813,-1.2657,-1.2562,-1.2501,-1.2501,-1.2501,-1.2501,-1.2501,-1.2501,-1.2528,-1.261,-1.2684,-1.2834,-1.3132,-1.3173,-1.3227,-1.3383,-1.3329,-1.3275,-1.3275,-1.3207,-1.3166,-1.3166,-1.3166,-1.3132,-1.3064,-1.2983,-1.2874,-1.2732,-1.2651,-1.2576,-1.2501,-1.2501,-1.2501,-1.2501,-1.2501,-1.2501,-1.2501,-1.2501,-1.2501,-1.2501,-1.2501,-1.2501,-1.2501,-1.2501,-1.2501,-1.2501,-1.2501,-1.2501,-1.2501,-1.2501,-1.2454,-1.2366,0.0,0.0,0.0,0.0,0.0,0.0,0.0,0.0,0.0,0.0,0.0,0.0,0.0,0.0,0.0,0.0,0.0,0.0,0.0,-1.284,-1.2854,-1.2732,-1.284,-1.2854,-1.2732,-1.2956,-1.318,-1.3403,-1.3519,-1.3573,-1.3566,-1.3227,-1.2942,-1.2725,-1.261,-1.2535,-1.2501,-1.2501,-1.2501,0.0,0.0,0.0,0.0,0.0,0.0,0.0,0.0,0.0,0.0,0.0,0.0,0.0,0.0,0.0,0.0,-1.2501,-1.2501,-1.2501,-1.2501,-1.2617,-1.2684,-1.2494,-1.2684,-1.2874,-1.2759,-1.261,-1.2515,-1.2549,-1.2528,-1.2501,-1.2501,-1.2501,-1.2556,-1.2705,-1.2759,-1.2874,-1.3132,-1.3207,-1.3254,-1.3336,-1.3247,-1.3159,-1.3125,-1.3024,-1.2963,-1.2963,-1.2963,-1.2942,-1.2908,-1.2793,-1.2712,-1.2678,-1.2562,-1.2501,-1.2501,-1.2501,-1.2501,-1.2501,-1.2501,-1.2501,-1.2501,-1.2501,-1.2501,-1.2501,-1.2501,-1.2501,-1.2501,-1.2501,-1.2501,-1.2501,-1.2501,-1.2501,-1.2501,-1.2467,-1.2359,-1.2216,0.0,0.0,0.0,0.0,0.0,0.0,0.0,0.0,0.0,0.0,0.0,0.0,0.0,0.0,0.0,0.0,0.0,0.0,0.0,-1.2739,-1.2745,-1.2732,-1.2739,-1.2739,-1.2732,-1.2752,-1.2969,-1.3403,-1.341,-1.3417,-1.3417,-1.3383,-1.3139,-1.2732,-1.2718,-1.2637,-1.2501,-1.2501,-1.2501,-1.2501,-1.2501,0.0,0.0,0.0,0.0,0.0,0.0,0.0,0.0,0.0,0.0,0.0,0.0,0.0,-1.2501,-1.2501,-1.2501,-1.2501,-1.2501,-1.2617,-1.2664,-1.2379,-1.2528,-1.2745,-1.2732,-1.261,-1.2542,-1.2684,-1.2603,-1.2501,-1.2501,-1.2501,-1.2556,-1.2705,-1.2854,-1.2996,-1.3152,-1.3295,-1.3336,-1.3207,-1.318,-1.3119,-1.307,-1.305,-1.2963,-1.2963,-1.2963,-1.2901,-1.2752,-1.2732,-1.2664,-1.2522,-1.2508,-1.2501,-1.2501,-1.2501,-1.2501,-1.2501,-1.2501,-1.2501,-1.2501,-1.2501,-1.2501,-1.2501,-1.2501,-1.2501,-1.2501,-1.2501,-1.2501,-1.2501,-1.2501,-1.2501,-1.2488,-1.2352,-1.221,-1.2054,0.0,0.0,0.0,0.0,0.0,0.0,0.0,0.0,0.0,0.0,0.0,0.0,0.0,0.0,0.0,0.0,0.0,0.0,0.0,-1.2678,-1.2684,-1.2589,-1.2678,-1.2732,-1.2732,-1.2827,-1.3091,-1.3546,-1.3634,-1.3627,-1.3539,-1.3349,-1.3119,-1.2868,-1.2773,-1.2644,-1.2501,-1.2501,-1.2501,-1.2501,-1.2501,0.0,0.0,0.0,0.0,0.0,0.0,0.0,0.0,0.0,-1.2352,-1.2467,-1.2284,-1.2352,-1.2481,-1.2393,-1.2372,-1.2372,-1.2372,-1.2413,-1.2427,-1.2318,-1.244,-1.2562,-1.2474,-1.2481,-1.2515,-1.2576,-1.2542,-1.2501,-1.2501,-1.2501,-1.2556,-1.2705,-1.2861,-1.301,-1.3152,-1.3302,-1.3342,-1.3193,-1.3098,-1.2983,-1.2834,-1.2732,-1.2678,-1.2678,-1.2678,-1.2651,-1.2589,-1.2589,-1.2562,-1.2501,-1.2501,-1.2501,-1.2501,-1.2501,-1.2501,-1.2501,-1.2501,-1.2501,-1.2501,-1.2501,-1.2501,-1.2501,-1.2501,-1.2501,-1.2501,-1.2501,-1.2501,-1.2501,-1.2501,-1.2501,-1.2481,-1.2345,-1.2196,-1.204,0.0,0.0,0.0,0.0,0.0,0.0,0.0,0.0,0.0,0.0,0.0,0.0,0.0,0.0,0.0,0.0,0.0,0.0,-1.2501,-1.2603,-1.261,-1.2508,-1.2603,-1.2678,-1.2725,-1.2834,-1.3105,-1.3559,-1.3749,-1.3743,-1.3553,-1.3295,-1.3071,-1.2881,-1.2725,-1.2603,-1.2501,-1.2501,-1.2501,-1.2501,-1.2501,-1.2501,0.0,0.0,0.0,0.0,0.0,0.0,0.0,0.0,-1.2271,-1.2406,-1.225,-1.2311,-1.2413,-1.2318,-1.2325,-1.2345,-1.2305,-1.2325,-1.2345,-1.2298,-1.2393,-1.2467,-1.2325,-1.24,-1.2515,-1.2562,-1.2535,-1.2501,-1.2501,-1.2501,-1.2535,-1.2637,-1.2786,-1.2922,-1.3017,-1.3166,-1.3207,-1.3051,-1.2949,-1.2827,-1.2671,-1.2562,-1.2501,-1.2501,-1.2501,-1.2501,-1.2501,-1.2501,-1.2501,-1.2501,-1.2501,-1.2501,-1.2501,-1.2501,-1.2501,-1.2501,-1.2501,-1.2501,-1.2501,-1.2501,-1.2501,-1.2501,-1.2501,-1.2501,-1.2501,-1.2501,-1.2501,-1.2501,-1.2501,-1.2474,-1.242,-1.2271,-1.2121,-1.1965,0.0,0.0,0.0,0.0,0.0,0.0,0.0,0.0,0.0,0.0,0.0,0.0,0.0,0.0,0.0,0.0,0.0,0.0,-1.2501,-1.2501,-1.2501,-1.2501,-1.2501,-1.2569,-1.2725,-1.2732,-1.2949,-1.3397,-1.3688,-1.3688,-1.3397,-1.3241,-1.301,-1.2725,-1.2569,-1.2501,-1.2501,-1.2501,-1.2501,-1.2501,-1.2501,-1.2501,-1.2501,0.0,0.0,0.0,0.0,0.0,0.0,0.0,-1.2284,-1.2311,-1.2447,-1.24,-1.2291,-1.2284,-1.2386,-1.2467,-1.2325,-1.2386,-1.2461,-1.2325,-1.2393,-1.2467,-1.2325,-1.24,-1.2542,-1.2698,-1.261,-1.2501,-1.2501,-1.2501,-1.2501,-1.2501,-1.263,-1.2732,-1.2732,-1.2861,-1.2901,-1.2745,-1.2732,-1.2671,-1.2515,-1.2501,-1.2501,-1.2501,-1.2501,-1.2501,-1.2501,-1.2501,-1.2501,-1.2501,-1.2501,-1.2501,-1.2501,-1.2501,-1.2501,-1.2501,-1.2501,-1.2501,-1.2501,-1.2501,-1.2501,-1.2501,-1.2501,-1.2501,-1.2501,-1.2501,-1.2501,-1.2501,-1.2501,-1.2413,-1.2271,-1.2115,-1.1965,-1.1809,0.0,0.0,0.0,0.0,0.0,0.0,0.0,0.0,0.0,0.0,0.0,0.0,0.0,0.0,0.0,0.0,0.0,0.0,-1.2359,-1.2447,-1.2461,-1.2359,-1.2447,-1.2522,-1.2569,-1.2678,-1.2847,-1.3091,-1.339,-1.3376,-1.3091,-1.3044,-1.2915,-1.2725,-1.2684,-1.2603,-1.2501,-1.2501,-1.2501,-1.2501,-1.2501,-1.2501,-1.2501,0.0,0.0,0.0,0.0,0.0,0.0,0.0,0.0,0.0,-1.1932,-1.2067,-1.225,-1.2033,-1.2074,-1.2162,-1.2006,-1.2074,-1.2182,-1.2142,-1.2318,-1.2488,-1.2447,-1.2474,-1.2515,-1.2562,-1.2535,-1.2501,-1.2501,-1.2501,-1.2501,-1.2501,-1.263,-1.2732,-1.2732,-1.2861,-1.2901,-1.2745,-1.2732,-1.2671,-1.2515,-1.2501,-1.2501,-1.2501,-1.2501,-1.2501,-1.2501,-1.2501,-1.2501,-1.2501,-1.2501,-1.2501,-1.2501,-1.2501,-1.2501,-1.2501,-1.2501,-1.2501,-1.2501,-1.2501,-1.2501,-1.2501,-1.2501,-1.2501,-1.2501,-1.2501,-1.2501,-1.2488,-1.2393,-1.2325,-1.2257,-1.1993,-1.187,-1.1809,0.0,0.0,0.0,0.0,0.0,0.0,0.0,0.0,0.0,0.0,-1.2501,-1.2501,0.0,0.0,0.0,0.0,0.0,0.0,0.0,-1.242,-1.244,-1.2298,-1.2427,-1.2501,-1.2501,-1.2651,-1.2745,-1.2779,-1.3078,-1.3105,-1.2868,-1.2868,-1.2786,-1.2637,-1.2637,-1.2589,-1.2501,-1.2501,-1.2501,-1.2501,-1.2501,-1.2501,-1.2501,0.0,0.0,0.0,0.0,0.0,0.0,0.0,0.0,0.0,-1.183,-1.1938,-1.2081,-1.1959,-1.2033,-1.2135,-1.204,-1.2121,-1.2237,-1.2237,-1.2372,-1.2501,-1.2501,-1.2501,-1.2501,-1.2501,-1.2501,-1.2501,-1.2501,-1.2501,-1.2501,-1.2501,-1.2576,-1.2637,-1.2637,-1.2718,-1.2745,-1.2651,-1.2637,-1.2603,-1.2508,-1.2501,-1.2501,-1.2501,-1.2501,-1.2501,-1.2501,-1.2501,-1.2501,-1.2501,-1.2501,-1.2501,-1.2501,-1.2501,-1.2501,-1.2501,-1.2501,-1.2501,-1.2501,-1.2501,-1.2501,-1.2501,-1.2501,-1.2501,-1.2501,-1.244,-1.242,-1.2406,-1.2257,-1.2162,-1.2088,-1.1898,-1.1796,-1.1735,0.0,0.0,0.0,0.0,0.0,0.0,0.0,0.0,0.0,0.0,-1.2501,-1.2501,0.0,0.0,0.0,0.0,0.0,0.0,0.0,0.0,-1.244,-1.2298,-1.2427,-1.2501,-1.2501,-1.2637,-1.2637,-1.2501,-1.28,-1.2861,-1.2712,-1.2712,-1.2637,-1.2501,-1.2501,-1.2501,-1.2501,-1.2488,-1.2481,-1.2481,-1.2467,-1.2461,-1.2461,-1.2461,0.0,0.0,0.0,0.0,0.0,0.0,0.0,0.0,-1.1979,-1.1925,-1.1837,-1.1979,-1.2128,-1.225,-1.225,-1.2366,-1.2481,-1.2481,-1.2494,-1.2501,-1.2501,-1.2501,-1.2501,-1.2501,-1.2501,-1.2501,-1.2501,-1.2501,-1.2501,-1.2501,-1.2501,-1.2501,-1.2501,-1.2501,-1.2501,-1.2501,-1.2501,-1.2501,-1.2501,-1.2501,-1.2501,-1.2501,-1.2501,-1.2501,-1.2501,-1.2501,-1.2501,-1.2501,-1.2501,-1.2501,-1.2501,-1.2501,-1.2501,-1.2501,-1.2347,-1.2192,-1.2192,-1.2424,-1.2501,-1.2501,-1.2501,-1.2494,-1.2474,-1.2345,-1.2284,-1.225,-1.2101,-1.1952,-1.183,-1.1816,-1.1728,-1.1619,0.0,0.0,0.0,0.0,0.0,0.0,0.0,0.0,0.0,0.0,0.0,0.0,0.0,0.0,0.0,0.0,0.0,0.0,0.0,0.0,-1.244,-1.2298,-1.2427,-1.2501,-1.2501,-1.2535,-1.2535,-1.2501,-1.2691,-1.2698,-1.2549,-1.2549,-1.2535,-1.2501,-1.2501,-1.2501,-1.2494,-1.2386,-1.2338,-1.2325,-1.2203,-1.2155,-1.2155,-1.2155,-1.204,0.0,0.0,0.0,0.0,0.0,0.0,0.0,-1.1701,-1.1694,-1.1674,-1.1701,-1.1816,-1.1932,-1.1932,-1.2128,-1.2338,-1.2338,-1.242,-1.2501,-1.2501,-1.2501,-1.2501,-1.2501,-1.2501,-1.2501,-1.2501,-1.2501,-1.2501,-1.2501,-1.2501,-1.2501,-1.2501,-1.2501,-1.2501,-1.2501,-1.2501,-1.2501,-1.2501,-1.2501,-1.2501,-1.2501,-1.2501,-1.2501,-1.2501,-1.2501,-1.2501,-1.2501,-1.2501,-1.2501,-1.2501,-1.2501,-1.2501,-1.2501,-1.0856,-1.0075,-1.0153,-1.1798,-1.2501,-1.2501,-1.2501,-1.244,-1.2332,-1.2305,-1.2223,-1.2094,-1.1938,-1.1864,-1.1816,-1.1708,-1.1647,-1.1619,0.0,0.0,0.0,0.0,0.0,0.0,0.0,0.0,0.0,0.0,0.0,0.0,0.0,0.0,0.0,0.0,0.0,0.0,0.0,-1.2379,-1.2467,-1.2393,-1.2461,-1.2501,-1.2501,-1.2501,-1.2501,-1.2501,-1.2583,-1.2583,-1.2501,-1.2501,-1.2501,-1.2501,-1.2501,-1.2467,-1.2393,-1.2325,-1.225,-1.2176,-1.2094,-1.2135,-1.2135,-1.2135,-1.1965,-1.183,-1.183,0.0,0.0,0.0,0.0,0.0,0.0,0.0,-1.1525,-1.1599,-1.1674,-1.1762,-1.1904,-1.2115,-1.2305,-1.2372,-1.2447,-1.2501,-1.2501,-1.2501,-1.2501,-1.2501,-1.2501,-1.2501,-1.2501,-1.2501,-1.2501,-1.2501,-1.2501,-1.2501,-1.2501,-1.2501,-1.2501,-1.2501,-1.2501,-1.2501,-1.2501,-1.2501,-1.2501,-1.2501,-1.2501,-1.2501,-1.2501,-1.2501,-1.2501,-1.2501,-1.2501,-1.2501,-1.2501,-1.2501,-1.2501,-1.2501,-1.0385,-0.9376,-0.9454,-1.0546,-1.1528,-1.24,-1.24,-1.2318,-1.2176,-1.2101,-1.2026,-1.1938,-1.1789,-1.1728,-1.1721,-1.1647,-1.1619,-1.1619,0.0,0.0,0.0,0.0,0.0,0.0,0.0,0.0,0.0,0.0,0.0,0.0,0.0,0.0,0.0,0.0,0.0,0.0,0.0,-1.2318,-1.2467,-1.2467,-1.2488,-1.2501,-1.2501,-1.2474,-1.2474,-1.2501,-1.2474,-1.2488,-1.2542,-1.2515,-1.2501,-1.2501,-1.2501,-1.242,-1.2291,-1.2264,-1.2162,-1.202,-1.1993,-1.1972,-1.1945,-1.1945,-1.185,-1.1714,-1.1714,-1.164,-1.1538,-1.1538,0.0,0.0,0.0,0.0,-1.1341,-1.1497,-1.1538,-1.1599,-1.187,-1.2094,-1.2291,-1.2461,-1.2501,-1.2501,-1.2501,-1.2501,-1.2501,-1.2501,-1.2501,-1.2501,-1.2501,-1.2501,-1.2501,-1.2501,-1.2501,-1.2501,-1.2501,-1.2501,-1.2501,-1.2501,-1.2501,-1.2501,-1.2501,-1.2501,-1.2501,-1.2501,-1.2501,-1.2501,-1.2501,-1.2501,-1.2501,-1.2501,-1.2501,-1.2501,-1.2501,-1.2108,-1.1953,-1.1953,-0.9449,-0.8507,-0.8799,-0.8799,-1.007,-1.2291,-1.2264,-1.2162,-1.2013,-1.1884,-1.1816,-1.1782,-1.1667,-1.1619,-1.1619,-1.1619,-1.1619,-1.1619,0.0,0.0,0.0,0.0,0.0,0.0,0.0,0.0,0.0,0.0,-1.2501,-1.2447,-1.2305,-1.2291,0.0,0.0,0.0,0.0,-1.206,0.0,0.0,-1.2318,-1.2433,-1.2501,-1.2501,-1.2379,-1.2379,-1.2501,-1.2379,-1.2447,-1.2698,-1.2562,-1.2501,-1.2501,-1.2501,-1.242,-1.2284,-1.2149,-1.2006,-1.185,-1.1728,-1.1599,-1.1484,-1.1484,-1.1389,-1.1253,-1.1253,-1.124,-1.1226,-1.1226,-1.1226,0.0,0.0,0.0,-1.0968,-1.1179,-1.1226,-1.126,-1.1436,-1.1782,-1.2155,-1.2433,-1.2501,-1.2501,-1.2501,-1.2501,-1.2501,-1.2501,-1.2501,-1.2501,-1.2501,-1.2501,-1.2501,-1.2501,-1.2501,-1.2501,-1.2501,-1.2501,-1.2501,-1.2501,-1.2501,-1.2501,-1.2501,-1.2501,-1.2501,-1.2501,-1.2501,-1.2501,-1.2501,-1.2501,-1.2501,-1.2501,-1.2501,-1.2501,-1.2501,-1.0701,-0.9842,-0.9765,-0.5861,-0.482,-0.6462,-0.6462,-0.8607,-1.2284,-1.2149,-1.2006,-1.1857,-1.1837,-1.1755,-1.1647,-1.1626,-1.1619,-1.1619,-1.1619,-1.1619,-1.1619,0.0,0.0,0.0,0.0,0.0,0.0,0.0,0.0,0.0,0.0,0.0,-1.2413,-1.2189,-1.2162,0.0,0.0,0.0,0.0,-1.2054,-1.2128,0.0,-1.2162,-1.2305,-1.2345,-1.2257,-1.2277,-1.2277,-1.2257,-1.2189,-1.2311,-1.2603,-1.2535,-1.2549,-1.263,-1.263,-1.2454,-1.2155,-1.2162,-1.1925,-1.1701,-1.1552,-1.1552,-1.1606,-1.1362,-1.1328,-1.1396,-1.1226,-1.1234,-1.1234,-1.1234,-1.1234,-1.1234,-1.1234,0.0,0.0,0.0,-1.1043,-1.1131,-1.1531,-1.1843,-1.2135,-1.2427,-1.2501,-1.2501,-1.2501,-1.2501,-1.2501,-1.2501,-1.2501,-1.2501,-1.2501,-1.2501,-1.2501,-1.2501,-1.2501,-1.2501,-1.2501,-1.2501,-1.2501,-1.2501,-1.2501,-1.2501,-1.2501,-1.2501,-1.2501,-1.2501,-1.2501,-1.2501,-1.2501,-1.2501,-1.2501,-1.2501,-1.2501,-1.2501,-1.2501,-1.0469,-0.8201,-0.5861,-0.3964,-0.4094,-0.5985,-0.5906,-0.8117,-1.2026,-1.1959,-1.185,-1.1714,-1.1714,-1.1674,-1.1619,-1.1619,-1.1619,-1.1619,-1.1619,-1.1619,-1.1619,0.0,0.0,0.0,0.0,0.0,0.0,0.0,0.0,0.0,0.0,0.0,-1.0839,-1.0577,0.0,0.0,0.0,0.0,0.0,-1.183,0.0,0.0,0.0,0.0,-1.2182,-1.206,-1.2176,-1.2176,-1.2135,-1.2135,-1.223,-1.2562,-1.2603,-1.2698,-1.284,-1.2766,-1.2501,-1.2121,-1.2081,-1.1891,-1.1613,-1.1531,-1.1592,-1.1687,-1.143,-1.143,-1.1525,-1.126,-1.1138,-1.1104,-1.1063,-1.105,-1.105,-1.105,-1.0948,0.0,0.0,0.0,-1.09,-1.1457,-1.1714,-1.1911,-1.225,-1.2393,-1.2447,-1.2447,-1.2474,-1.2501,-1.2501,-1.2501,-1.2501,-1.2501,-1.2501,-1.2501,-1.2501,-1.2501,-1.2501,-1.2501,-1.2501,-1.2501,-1.2501,-1.2501,-1.2501,-1.2501,-1.2501,-1.2501,-1.2501,-1.2501,-1.2501,-1.2501,-1.2501,-1.2501,-1.2501,-1.2501,-1.2501,-1.2501,-0.9888,-0.6456,-0.2339,-0.2312,-0.3364,-0.5246,-0.5599,-0.7677,-1.1034,-1.1557,-1.1714,-1.1619,-1.1619,-1.1619,-1.1619,-1.1619,-1.1619,-1.1619,-1.1619,-1.1619,-1.1619,0.0,0.0,0.0,0.0,0.0,0.0,0.0,0.0,0.0,0.0,0.0,-0.6505,-0.6344,-0.7986,-0.8981,-0.8713,-1.0331,0.0,0.0,0.0,0.0,0.0,0.0,0.0,-1.2135,-1.2142,-1.2149,-1.2135,-1.2135,-1.2284,-1.2718,-1.2868,-1.3017,-1.3139,-1.2854,-1.2562,-1.2271,-1.2121,-1.1891,-1.1633,-1.1755,-1.1647,-1.1443,-1.1701,-1.1633,-1.1382,-1.1219,-1.1077,-1.0873,-1.0792,-1.0744,-1.0744,-1.0744,-1.0636,-1.0514,0.0,0.0,0.0,-1.0806,-1.1097,-1.1314,-1.1755,-1.2088,-1.2298,-1.2298,-1.2406,-1.2501,-1.2501,-1.2501,-1.2501,-1.2501,-1.2501,-1.2501,-1.2501,-1.2501,-1.2501,-1.2501,-1.2501,-1.2501,-1.2501,-1.2501,-1.2501,-1.2501,-1.2501,-1.2501,-1.2501,-1.2501,-1.2501,-1.2501,-1.2501,-1.2501,-1.2501,-1.2501,-1.2501,-1.2501,-0.8496,-0.4307,-0.0154,-0.0153,-0.1205,-0.3118,-0.4963,-0.6909,-0.893,-1.0828,-1.1626,-1.1619,-1.1619,-1.1619,-1.1619,-1.1619,-1.1619,-1.1619,-1.1619,-1.1619,-1.1619,0.0,0.0,0.0,0.0,0.0,0.0,0.0,0.0,0.0,0.0,0.0,0.0,0.0,-0.6656,-0.6937,-0.6785,-0.7424,0.0,0.0,0.0,0.0,0.0,0.0,0.0,-1.1782,-1.1965,-1.1965,-1.1775,-1.1775,-1.2006,-1.2447,-1.2501,-1.2657,-1.2881,-1.2779,-1.2617,-1.2406,-1.206,-1.185,-1.1748,-1.1708,-1.1742,-1.1803,-1.1619,-1.1599,-1.1626,-1.1287,-1.107,-1.0873,-1.082,-1.0799,-1.0704,-1.0602,-1.0534,-1.0473,-1.0385,-1.0385,-1.0473,-1.0731,-1.0975,-1.1295,-1.1484,-1.185,-1.2115,-1.202,-1.2257,-1.2474,-1.2386,-1.244,-1.2501,-1.2501,-1.2501,-1.2501,-1.2501,-1.2501,-1.2501,-1.2501,-1.2501,-1.2501,-1.2501,-1.2501,-1.2501,-1.2501,-1.2501,-1.2501,-1.2501,-1.2501,-1.2501,-1.2501,-1.2501,-1.2461,-1.2372,-1.2454,-1.1207,-0.8573,-0.7076,-0.4211,0.0,0.0,-0.1045,-0.2963,-0.4917,-0.6853,-0.8776,-1.0743,-1.1619,-1.1619,-1.1619,-1.1619,-1.1619,-1.1619,-1.1619,-1.1619,-1.1619,-1.1619,-1.1619,0.0,0.0,0.0,0.0,0.0,0.0,0.0,0.0,-0.3645,-0.227,0.0,0.0,0.0,0.0,-0.5167,-0.5709,-0.5675,-0.6233,-0.7518,-0.7589,0.0,0.0,0.0,0.0,-1.1694,-1.1884,-1.1891,-1.1687,-1.164,-1.1823,-1.2216,-1.2264,-1.242,-1.2651,-1.2549,-1.2508,-1.2474,-1.2074,-1.1877,-1.183,-1.1782,-1.1823,-1.1904,-1.1803,-1.1789,-1.1789,-1.1491,-1.126,-1.109,-1.1036,-1.0921,-1.0772,-1.0616,-1.0466,-1.0317,-1.0168,-1.0195,-1.0297,-1.0453,-1.0677,-1.0928,-1.1179,-1.1504,-1.1775,-1.1823,-1.206,-1.2264,-1.2223,-1.2332,-1.2433,-1.2433,-1.2467,-1.2501,-1.2501,-1.2501,-1.2501,-1.2501,-1.2501,-1.2501,-1.2501,-1.2501,-1.2501,-1.2501,-1.2501,-1.2501,-1.2501,-1.2501,-1.2501,-1.2501,-1.2501,-1.2433,-1.2298,-1.1708,-0.9682,-0.6256,-0.555,-0.3482,0.0,0.0,-0.0665,-0.199,-0.4595,-0.6532,-0.7905,-1.0449,-1.1619,-1.1619,-1.1619,-1.1619,-1.1619,-1.1619,-1.1619,-1.1619,-1.1619,-1.1619,-1.1619,0.0,0.0,0.0,0.0,0.0,0.0,0.0,0.0,0.0,0.0,0.0,0.0,0.0,0.0,0.0,-0.5292,-0.5283,-0.5242,-0.5308,-0.5308,-0.6251,-0.8318,0.0,0.0,-1.1683,-1.1763,-1.1837,-1.183,-1.1687,-1.1769,-1.206,-1.221,-1.2352,-1.2474,-1.2189,-1.2216,-1.2383,-1.2094,-1.1885,-1.1703,-1.1918,-1.181,-1.1628,-1.2271,-1.2223,-1.1843,-1.1837,-1.1647,-1.1375,-1.1226,-1.1077,-1.0853,-1.0758,-1.0399,-0.995,-0.9863,-0.9822,-0.9863,0.0,0.0,0.0,-1.0745,-1.1036,-1.126,-1.1701,-1.1809,-1.1864,-1.202,-1.2169,-1.2277,-1.2284,-1.24,-1.2494,-1.2494,-1.2501,-1.2501,-1.2501,-1.2501,-1.2501,-1.2501,-1.2501,-1.2501,-1.2501,-1.2501,-1.2501,-1.2501,-1.2501,-1.2501,-1.2501,-1.2494,-1.2427,-1.2291,-1.0306,-0.8127,-0.6026,-0.4099,-0.2077,0.0,0.0,0.0,-0.0219,-0.4071,-0.5808,-0.6098,-0.9945,-1.1619,-1.1619,-1.1619,-1.1619,-1.1619,-1.1619,-1.1619,-1.1619,-1.1619,-1.1619,-1.1619,0.0,0.0,0.0,0.0,0.0,0.0,0.0,0.0,0.0,0.0,0.0,0.0,0.0,-0.0457,-0.0975,-0.1472,-0.1538,-0.2109,-0.3525,-0.3595,-0.4461,-0.6494,-0.8205,-0.9324,-0.9685,-1.1193,-1.1945,-1.183,-1.1687,-1.1714,-1.1898,-1.1938,-1.204,-1.2182,-1.2101,-1.1369,-1.0122,-0.9792,-0.968,-0.9733,-0.9736,-0.9798,-1.0052,-1.1629,-1.2176,-1.2149,-1.204,-1.1809,-1.1552,-1.1504,-1.1253,-1.082,-1.0521,-1.0161,-0.9876,-0.9836,-0.9835,-0.9909,-0.9842,0.0,0.0,0.0,0.0,0.0,-1.0995,-1.128,-1.1558,-1.1708,-1.1857,-1.1993,-1.2101,-1.225,-1.2345,-1.2345,-1.2433,-1.2501,-1.2501,-1.2501,-1.2501,-1.2501,-1.2501,-1.2501,-1.2501,-1.2501,-1.2501,-1.2501,-1.2501,-1.2501,-1.2501,-1.2298,-1.2169,-1.2128,-1.0099,-0.8026,-0.6022,-0.408,-0.2067,0.0,0.0,-0.0729,-0.2183,-0.4649,-0.6532,-0.8049,-1.0521,-1.1619,-1.1619,-1.1619,-1.1619,-1.1619,-1.1619,-1.1619,-1.1619,-1.1619,-1.1619,-1.1619,0.0,0.0,0.0,0.0,0.0,0.0,0.0,0.0,0.0,0.0,0.0,0.0,0.0,0.0,0.0,0.0,0.0,-0.0517,-0.1603,-0.1675,-0.2545,-0.4504,-0.5948,-0.7431,-0.9017,-1.0082,-1.1026,-1.183,-1.1626,-1.1565,-1.1647,-1.1714,-1.1312,-1.0669,-1.0669,-0.9574,-0.7715,-0.6712,-0.6856,-0.7806,-0.8695,-0.905,-0.9308,-1.1415,-1.2223,-1.2182,-1.2094,-1.1911,-1.1701,-1.164,-1.1321,-1.0813,-1.0493,-1.0202,-0.9985,-0.9856,-0.9869,-0.9957,-0.9863,-0.9951,-1.01,-1.0134,0.0,0.0,-1.0758,-1.0968,-1.1172,-1.1389,-1.1545,-1.1694,-1.185,-1.1999,-1.2142,-1.2271,-1.2359,-1.2433,-1.2494,-1.2501,-1.2501,-1.2501,-1.2501,-1.2501,-1.2501,-1.2501,-1.2501,-1.2501,-1.2501,-1.2474,-1.242,-1.2189,-1.2033,-1.1965,-0.9155,-0.7043,-0.5943,-0.3161,-0.1614,-0.1239,-0.1239,-0.2256,-0.4141,-0.6098,-0.7616,-0.8776,-1.0743,-1.1619,-1.1619,-1.1619,-1.1619,-1.1619,-1.1619,-1.1619,-1.1619,-1.1619,-1.1619,-1.1619,0.0,0.0,0.0,0.0,0.0,0.0,0.0,0.0,0.0,0.0,0.0,0.0,0.0,0.0,0.0,0.0,0.0,0.0,0.0,0.0,-0.0802,-0.2472,-0.2902,-0.4818,-0.8417,-0.8474,-0.9386,-1.1457,-1.1188,-1.1204,-1.1416,-1.1317,-1.0364,-0.8677,-0.8449,-0.7327,-0.5358,-0.3656,-0.3825,-0.555,-0.7659,-0.843,-0.8489,-1.0854,-1.1745,-1.1782,-1.1762,-1.1811,-1.1809,-1.1647,-1.1314,-1.0921,-1.0616,-1.0419,-1.0249,-0.9958,-0.9971,-0.9984,-0.991,-0.9869,-0.9937,-1.0209,-1.0175,0.0,-1.0705,-1.0792,-1.0778,-1.1077,-1.1246,-1.1389,-1.1538,-1.1687,-1.187,-1.2149,-1.2216,-1.2298,-1.2474,-1.2501,-1.2501,-1.2501,-1.2501,-1.2501,-1.2501,-1.2501,-1.2501,-1.2501,-1.2501,-1.244,-1.2298,-1.2142,-1.1993,-1.1837,-0.8106,-0.6098,-0.6098,-0.2474,-0.1529,-0.3197,-0.3197,-0.4213,-0.617,-0.7905,-0.8848,-0.9136,-1.0815,-1.1619,-1.1619,-1.1619,-1.1619,-1.1619,-1.1619,-1.1619,-1.1619,-1.1619,-1.1619,-1.1619,0.0,0.0,0.0,0.0,0.0,0.0,0.0,0.0,0.0,0.0,0.0,0.0,0.0,0.0,0.0,0.0,0.0,0.0,0.0,0.0,-0.0146,-0.0583,-0.2216,-0.3495,-0.4236,-0.5776,-0.7465,-0.9465,-0.9318,-1.0048,-1.15,-0.9965,-0.9057,-0.8601,-0.7034,-0.5285,-0.3441,-0.3055,-0.2223,-0.1316,-0.3313,-0.4136,-0.4419,-0.6504,-0.8295,-0.9769,-0.9746,-1.0607,-1.1789,-1.1525,-1.1294,-1.107,-1.0772,-1.0575,-1.0419,-1.0243,-1.0209,-1.0229,-1.0202,-1.0188,-1.0202,-1.0263,-1.0256,0.0,-1.0527,-1.0561,-1.0622,-1.0928,-1.0948,-1.1077,-1.1226,-1.1375,-1.1497,-1.1558,-1.1769,-1.2054,-1.2447,-1.2501,-1.2501,-1.2501,-1.2501,-1.2501,-1.2501,-1.2501,-1.2501,-1.2501,-1.2501,-1.244,-1.2298,-1.2142,-1.1993,-1.1837,-0.9418,-0.8121,-0.8121,-0.5808,-0.4866,-0.5229,-0.5229,-0.6242,-0.8121,-0.8559,-0.9574,-1.1038,-1.1476,-1.1619,-1.1619,-1.1619,-1.1619,-1.1619,-1.1619,-1.1619,-1.1619,-1.1619,-1.1619,-1.1619,0.0,0.0,0.0,0.0,0.0,0.0,0.0,0.0,0.0,0.0,0.0,0.0,0.0,0.0,0.0,0.0,0.0,0.0,0.0,0.0,0.0,0.0,-0.1033,-0.2004,-0.3113,-0.3999,-0.5385,-0.7327,-0.7306,-0.7732,-0.8606,-0.7701,-0.6762,-0.5778,-0.48,-0.3241,-0.1441,-0.1441,-0.0889,-0.0205,-0.2183,-0.3043,-0.3337,-0.5363,-0.6844,-0.7893,-0.877,-1.0216,-1.1694,-1.1463,-1.1341,-1.1226,-1.0928,-1.0833,-1.0772,-1.0473,-1.0439,-1.0466,-1.0324,-1.0283,-1.0283,-1.0283,-1.0283,0.0,0.0,-1.0493,-1.0555,-1.0785,-1.0766,-1.0853,-1.0928,-1.1002,-1.1104,-1.1253,-1.1463,-1.1714,-1.202,-1.2257,-1.242,-1.2494,-1.2501,-1.2501,-1.2501,-1.2501,-1.2501,-1.2501,-1.2501,-1.2406,-1.2189,-1.2101,-1.1959,-1.1735,-0.9752,-0.8703,-0.8703,-0.6749,-0.6315,-0.7255,-0.7255,-0.8271,-1.0155,-1.0155,-1.0634,-1.1504,-1.1504,-1.1463,-1.1389,-1.1389,-1.1389,-1.1409,-1.1558,-1.1619,-1.1619,-1.1619,-1.1619,-1.1619,0.0,0.0,0.0,0.0,0.0,0.0,0.0,0.0,0.0,0.0,0.0,0.0,0.0,0.0,0.0,0.0,0.0,0.0,0.0,0.0,0.0,0.0,0.0,-0.0817,-0.2448,-0.2368,-0.3306,-0.5229,-0.5233,-0.5383,-0.5604,-0.5368,-0.4383,-0.2855,-0.2542,-0.1503,0.0,0.0,0.0,-0.0136,-0.1847,-0.2527,-0.2678,-0.444,-0.5304,-0.5904,-0.769,-0.9518,-1.1012,-1.0863,-1.11,-1.1341,-1.1043,-1.105,-1.1077,-1.0656,-1.0643,-1.0704,-1.0439,-1.0365,-1.0365,-1.0365,-1.0365,-1.0392,0.0,0.0,0.0,-1.0656,-1.0677,-1.067,-1.0643,-1.0636,-1.0724,-1.0989,-1.1165,-1.1328,-1.1504,-1.187,-1.2182,-1.2352,-1.2427,-1.2461,-1.2461,-1.2433,-1.244,-1.2501,-1.2447,-1.2325,-1.2115,-1.2081,-1.1938,-1.1667,-1.0101,-0.9285,-0.9285,-0.7693,-0.7693,-0.9285,-0.9285,-1.0083,-1.1619,-1.1592,-1.1511,-1.1389,-1.1362,-1.1274,-1.1234,-1.1234,-1.1234,-1.1185,-1.1436,-1.1531,-1.1531,-1.1531,-1.1531,-1.1531,0.0,0.0,0.0,0.0,0.0,0.0,0.0,0.0,0.0,0.0,0.0,0.0,0.0,0.0,0.0,0.0,0.0,0.0,0.0,0.0,0.0,0.0,0.0,-0.0074,-0.0372,-0.0368,-0.1313,-0.3197,-0.3228,-0.4129,-0.575,-0.4026,-0.3092,-0.2815,-0.1085,-0.0202,0.0,0.0,0.0,0.0,-0.0281,-0.0352,-0.0353,-0.0644,-0.181,-0.3502,-0.5462,-0.7412,-0.8976,-0.8855,-0.9959,-1.1341,-1.1043,-1.105,-1.1104,-1.0785,-1.0806,-1.082,-1.0717,-1.067,-1.067,-1.067,-1.067,-1.0677,-1.069,0.0,-1.0663,-1.0541,0.0,-1.048,-1.0351,0.0,0.0,-1.0541,-1.0697,-1.0894,-1.1172,-1.1375,-1.1592,-1.187,-1.2149,-1.2318,-1.2318,-1.2189,-1.2223,-1.2481,-1.2257,-1.2155,-1.2257,-1.2135,-1.1986,-1.1809,-1.1464,-1.1253,-1.1253,-1.1038,-1.1038,-1.1253,-1.1253,-1.1397,-1.1613,-1.1477,-1.1409,-1.1382,-1.1246,-1.1179,-1.1234,-1.1234,-1.1234,-1.1165,-1.1199,-1.1212,-1.1212,-1.1212,-1.1212,-1.1212,0.0,0.0,0.0,0.0,0.0,0.0,0.0,0.0,0.0,0.0,0.0,0.0,0.0,0.0,0.0,0.0,0.0,0.0,0.0,0.0,0.0,0.0,0.0,0.0,0.0,0.0,-0.0368,-0.1239,-0.1213,-0.1624,-0.2397,-0.158,-0.1231,-0.118,-0.0343,0.0,0.0,0.0,0.0,0.0,0.0,0.0,0.0,0.0,-0.1233,-0.2979,-0.3851,-0.5373,-0.717,-0.814,-0.903,-0.9853,-1.0787,-1.1118,-1.1124,-1.0914,-1.0833,-1.0847,-1.0765,-1.0717,-1.0717,-1.0717,-1.0717,-1.0717,-1.0717,-1.0649,-1.0568,-1.0507,0.0,0.0,0.0,0.0,0.0,0.0,-1.0568,-1.0765,-1.0887,-1.1111,-1.1369,-1.1674,-1.1823,-1.1932,-1.2013,-1.1965,-1.202,-1.223,-1.2047,-1.1959,-1.202,-1.1959,-1.1857,-1.1714,-1.1653,-1.1619,-1.1619,-1.1619,-1.1572,-1.1491,-1.1491,-1.1443,-1.1355,-1.1287,-1.1212,-1.1131,-1.1063,-1.0989,-1.0907,-1.0907,-1.0907,-1.0907,-1.0907,-1.1009,-1.1234,-1.1234,-1.1234,-1.1234,0.0,0.0,0.0,0.0,0.0,0.0,0.0,0.0,0.0,0.0,0.0,0.0,0.0,0.0,0.0,0.0,0.0,0.0,0.0,0.0,0.0,0.0,0.0,0.0,0.0,0.0,0.0,0.0,0.0,0.0,0.0,0.0,0.0,0.0,0.0,0.0,0.0,0.0,0.0,0.0,0.0,0.0,0.0,0.0,-0.0872,-0.211,-0.211,-0.3344,-0.5216,-0.6504,-0.7256,-0.8011,-0.9763,-1.036,-1.0429,-1.0738,-1.0847,-1.0847,-1.0765,-1.0717,-1.0711,-1.067,-1.0656,-1.0649,-1.0609,-1.0541,-1.048,-1.0439,-1.0385,0.0,0.0,0.0,-1.029,-1.0331,0.0,-1.0656,-1.0656,-1.0839,-1.109,-1.1396,-1.1504,-1.1613,-1.1755,-1.1694,-1.1742,-1.1979,-1.1816,-1.1748,-1.183,-1.183,-1.1769,-1.1626,-1.1619,-1.1599,-1.1558,-1.1558,-1.1484,-1.1328,-1.1328,-1.1267,-1.1227,-1.1124,-1.105,-1.088,-1.084,-1.0819,-1.0717,-1.0717,-1.0717,-1.0717,-1.0717,-1.0853,-1.1043,-1.1043,-1.1043,-1.1043,0.0,0.0,0.0,0.0,0.0,0.0,0.0,0.0,0.0,0.0,0.0,0.0,0.0,0.0,0.0,0.0,0.0,0.0,0.0,0.0,0.0,0.0,0.0,0.0,0.0,0.0,0.0,0.0,0.0,0.0,0.0,0.0,0.0,0.0,0.0,0.0,0.0,0.0,0.0,0.0,0.0,0.0,0.0,0.0,-0.0072,-0.0073,-0.0073,-0.1311,-0.2974,-0.2938,-0.4134,-0.5951,-0.7584,-0.8212,-0.8676,-1.027,-1.0833,-1.0847,-1.0765,-1.0717,-1.0683,-1.0534,-1.05,-1.0466,-1.0324,-1.0399,-1.0453,-1.0317,-1.0392,-1.0439,-1.0297,-1.0276,-1.0324,-1.046,-1.0493,0.0,0.0,-1.0507,-1.0629,-1.0867,-1.1226,-1.1457,-1.1613,-1.1355,-1.1369,-1.1803,-1.1565,-1.1531,-1.1816,-1.183,-1.1769,-1.1626,-1.1619,-1.1545,-1.1402,-1.1396,-1.1321,-1.1241,-1.1241,-1.1165,-1.1158,-1.1016,-1.0887,-1.0873,-1.0792,-1.0724,-1.0717,-1.0717,-1.0717,-1.0717,-1.0717,-1.0724,-1.0738,-1.0738,-1.0738,-1.0738,0.0,0.0,0.0,0.0,0.0,0.0,0.0,0.0,0.0,0.0,0.0,0.0,0.0,0.0,0.0,0.0,0.0,0.0,0.0,0.0,0.0,0.0,0.0,0.0,0.0,0.0,0.0,0.0,0.0,0.0,0.0,0.0,0.0,0.0,0.0,0.0,0.0,0.0,0.0,0.0,0.0,0.0,0.0,0.0,0.0,0.0,0.0,-0.0438,-0.1165,-0.2389,-0.3214,-0.4003,-0.5837,-0.6385,-0.6513,-0.7054,-0.8061,-0.8957,-0.8911,-0.9775,-1.0711,-1.0656,-1.0568,-1.048,-1.0432,-1.0385,-1.0337,-1.029,-1.0317,-1.0337,-1.029,-1.0358,-1.0432,-1.0487,-1.0575,-1.0609,0.0,-1.0412,-1.0466,-1.0765,-1.0975,-1.1118,-1.1103,-1.1084,-1.1165,-1.1511,-1.1267,-1.1226,-1.1525,-1.1538,-1.147,-1.1321,-1.1416,-1.1396,-1.124,-1.124,-1.1165,-1.1023,-1.1023,-1.0968,-1.0867,-1.0819,-1.0799,-1.0792,-1.0744,-1.0717,-1.0717,-1.0717,-1.0717,-1.0717,-1.0717,-1.0717,-1.0717,-1.0717,-1.0717,-1.0717,0.0,0.0,0.0,0.0,0.0,0.0,0.0,0.0,0.0,0.0,0.0,0.0,0.0,0.0,0.0,0.0,0.0,0.0,0.0,0.0,0.0,0.0,0.0,0.0,0.0,0.0,0.0,0.0,0.0,0.0,0.0,0.0,0.0,0.0,0.0,0.0,0.0,0.0,0.0,0.0,0.0,0.0,0.0,0.0,0.0,0.0,0.0,0.0,-0.0219,-0.1456,-0.18,-0.2056,-0.3995,-0.4486,-0.4552,-0.5178,-0.6164,-0.7098,-0.7098,-0.7902,-0.8828,-0.8717,-0.8645,-0.8708,-0.9315,-0.9408,-0.9575,-1.0223,-1.0399,-1.0439,-1.0439,-1.0514,-1.0575,-1.0575,-1.0656,-1.0649,0.0,-1.0337,-1.0351,-1.0541,-1.0697,-1.0806,-1.0793,-1.0799,-1.0968,-1.1212,-1.0988,-1.1056,-1.1294,-1.1307,-1.1267,-1.1165,-1.126,-1.124,-1.109,-1.1084,-1.1016,-1.0799,-1.0799,-1.0745,-1.0717,-1.0717,-1.0717,-1.0717,-1.0717,-1.0717,-1.0717,-1.0717,-1.0717,-1.0717,-1.0717,-1.0717,-1.0717,-1.0717,-1.0717,-1.0717,0.0,0.0,0.0,0.0,0.0,0.0,0.0,0.0,0.0,0.0,0.0,0.0,0.0,0.0,0.0,0.0,0.0,0.0,0.0,0.0,0.0,0.0,0.0,0.0,0.0,0.0,0.0,0.0,0.0,0.0,0.0,0.0,0.0,0.0,0.0,0.0,0.0,0.0,0.0,0.0,0.0,0.0,0.0,0.0,0.0,0.0,0.0,0.0,0.0,0.0,0.0,-0.029,-0.2047,-0.2588,-0.292,-0.4597,-0.5162,-0.5295,-0.5295,-0.5362,-0.5345,-0.5142,-0.5119,-0.549,-0.7089,-0.7597,-0.8133,-0.9902,-1.0412,-1.0585,-1.0585,-1.0651,-1.0717,-1.0711,-1.0697,-1.0588,-1.0317,-1.027,-1.0263,-1.0276,-1.0392,-1.0534,-1.0704,-1.0711,-1.0778,-1.0867,-1.0867,-1.0989,-1.1145,-1.122,-1.1151,-1.1214,-1.1151,-1.1084,-1.0873,-1.0873,-1.0799,-1.0717,-1.0717,-1.0717,-1.0717,-1.0717,-1.0717,-1.0717,-1.0717,-1.0717,-1.0717,-1.0717,-1.0717,-1.0717,-1.0717,-1.0717,-1.0717,-1.0717,-1.0717,-1.0717,0.0,0.0,0.0,0.0,0.0,0.0,0.0,0.0,0.0,0.0,0.0,0.0,0.0,0.0,0.0,0.0,0.0,0.0,0.0,0.0,0.0,0.0,0.0,0.0,0.0,0.0,0.0,0.0,0.0,0.0,0.0,0.0,0.0,0.0,0.0,0.0,0.0,0.0,0.0,0.0,0.0,0.0,0.0,0.0,0.0,0.0,0.0,0.0,0.0,0.0,0.0,-0.0072,-0.0564,-0.0696,-0.0756,-0.1284,-0.235,-0.3423,-0.3423,-0.4359,-0.5359,-0.5338,-0.5225,-0.5243,-0.5613,-0.5758,-0.5904,-0.6362,-0.769,-0.8701,-0.8701,-0.9775,-1.0683,-1.0568,-1.0365,-1.0236,-1.0276,-1.008,-1.0025,-1.0256,-1.0209,-1.031,-1.0683,-1.0616,-1.0663,-1.086,-1.0738,-1.0724,-1.0989,-1.1002,-1.0948,-1.0839,-1.0941,-1.0934,-1.0778,-1.0778,-1.0758,-1.0717,-1.0717,-1.0717,-1.0717,-1.0717,-1.0717,-1.0717,-1.0717,-1.0717,-1.0717,-1.0717,-1.0717,-1.0717,-1.0717,-1.0717,-1.0717,-1.0717,-1.0717,-1.0717,0.0,0.0,0.0,0.0,0.0,0.0,0.0,0.0,0.0,0.0,0.0,0.0,0.0,0.0,0.0,0.0,0.0,0.0,0.0,0.0,0.0,0.0,0.0,0.0,0.0,0.0,0.0,0.0,0.0,0.0,0.0,0.0,0.0,0.0,0.0,0.0,0.0,0.0,0.0,0.0,0.0,0.0,0.0,0.0,0.0,0.0,0.0,0.0,0.0,0.0,0.0,0.0,0.0,0.0,0.0,0.0,-0.074,-0.1545,-0.1545,-0.2283,-0.3021,-0.3021,-0.2935,-0.3051,-0.3843,-0.4041,-0.4306,-0.5099,-0.6726,-0.803,-0.803,-0.951,-1.067,-1.0514,-1.0297,-1.0154,-1.0175,-1.0032,-0.9985,-1.0161,-1.0161,-1.0276,-1.0588,-1.0541,-1.0588,-1.0833,-1.069,-1.067,-1.0772,-1.0779,-1.0812,-1.0724,-1.0739,-1.0806,-1.0717,-1.0717,-1.0717,-1.0717,-1.0717,-1.0717,-1.0717,-1.0717,-1.0717,-1.0717,-1.0717,-1.0717,-1.0717,-1.0717,-1.0717,-1.0717,-1.0717,-1.0717,-1.0717,-1.0717,-1.0717,-1.0717,0.0,0.0,0.0,0.0,0.0,0.0,0.0,0.0,0.0,0.0,0.0,0.0,0.0,0.0,0.0,0.0,0.0,0.0,0.0,0.0,0.0,0.0,0.0,0.0,0.0,0.0,0.0,0.0,0.0,0.0,0.0,0.0,0.0,0.0,0.0,0.0,0.0,0.0,0.0,0.0,0.0,0.0,0.0,0.0,0.0,0.0,0.0,0.0,0.0,0.0,0.0,0.0,0.0,0.0,0.0,0.0,0.0,0.0,0.0,0.0,0.0,0.0,0.0,-0.0404,-0.2016,-0.235,-0.2819,-0.4359,-0.6297,-0.7631,-0.7631,-0.9281,-1.0616,-1.0487,-1.0324,-1.0175,-0.9977,-0.9977,-0.9977,-0.9957,-1.0154,0.0,-1.0419,-1.0453,-1.0534,-1.0711,-1.0704,-1.0697,-1.0717,-1.0717,-1.0717,-1.0717,-1.0717,-1.0717,-1.0717,-1.0717,-1.0717,-1.0717,-1.0717,-1.0717,-1.0717,-1.0717,-1.0717,-1.0717,-1.0717,-1.0717,-1.0717,-1.0717,-1.0717,-1.0717,-1.0717,-1.0717,-1.0717,-1.0717,-1.0717,-1.0717,0.0,0.0,0.0,0.0,0.0,0.0,0.0,0.0,0.0,0.0,0.0,0.0,0.0,0.0,0.0,0.0,0.0,0.0,0.0,0.0,0.0,0.0,0.0,0.0,0.0,0.0,0.0,0.0,0.0,0.0,0.0,0.0,0.0,0.0,0.0,0.0,0.0,0.0,0.0,0.0,0.0,0.0,0.0,0.0,0.0,0.0,0.0,0.0,0.0,0.0,0.0,0.0,0.0,0.0,0.0,0.0,0.0,0.0,0.0,0.0,0.0,0.0,0.0,-0.0067,-0.0404,-0.0471,-0.0538,-0.0874,-0.3555,-0.583,-0.583,-0.8345,-1.0351,-1.0324,-1.0086,-0.989,-0.9863,-0.9909,-0.9936,-0.9876,-0.9936,-1.0038,-1.0058,-1.0243,-1.0432,-1.0697,-1.0602,-1.0588,-1.0711,-1.0717,-1.0717,0.0,-1.0717,-1.0717,0.0,0.0,-1.0717,-1.0717,-1.0717,-1.0717,-1.0717,-1.0717,-1.0717,-1.0717,-1.0717,-1.0717,-1.0717,-1.0717,-1.0717,-1.0717,-1.0717,-1.0717,-1.0717,-1.0717,-1.0717,-1.0717,0.0,0.0,0.0,0.0,0.0,0.0,0.0,0.0,0.0,0.0,0.0,0.0,0.0,0.0,0.0,0.0,0.0,0.0,0.0,0.0,0.0,0.0,0.0,0.0,0.0,0.0,0.0,0.0,0.0,0.0,0.0,0.0,0.0,0.0,0.0,0.0,0.0,0.0,0.0,0.0,0.0,0.0,0.0,0.0,0.0,0.0,0.0,0.0,0.0,0.0,0.0,0.0,0.0,0.0,0.0,0.0,0.0,0.0,0.0,0.0,0.0,0.0,0.0,0.0,0.0,0.0,0.0,0.0,-0.2148,-0.4559,-0.6431,-0.8015,-0.9364,-1.027,-1.0263,-1.0141,-1.0073,-1.012,-1.0114,-0.9896,-0.9943,-0.9984,-0.9984,-1.0114,-1.0283,-1.0582,-1.0534,-1.0561,-1.0711,-1.0643,-1.0636,0.0,0.0,0.0,-1.0717,0.0,-1.0717,-1.0717,-1.0717,-1.0717,-1.0717,-1.0717,-1.0717,-1.0717,-1.0717,-1.0717,-1.0717,-1.0717,-1.0717,-1.0717,-1.0717,-1.0717,-1.0717,-1.0717,-1.0717,-1.0717,0.0,0.0,0.0,0.0,0.0,0.0,0.0,0.0,0.0,0.0,0.0,0.0,0.0,0.0,0.0,0.0,0.0,0.0,0.0,0.0,0.0,0.0,0.0,0.0,0.0,0.0,0.0,0.0,0.0,0.0,0.0,0.0,0.0,0.0,0.0,0.0,0.0,0.0,0.0,0.0,0.0,0.0,0.0,0.0,0.0,0.0,0.0,0.0,0.0,0.0,0.0,0.0,0.0,0.0,0.0,0.0,0.0,0.0,0.0,0.0,0.0,0.0,0.0,0.0,0.0,0.0,0.0,0.0,-0.1411,-0.3689,-0.6827,-0.7412,-0.7969,-0.9655,-0.9877,-0.9948,-1.0233,-1.0304,-1.027,-1.0114,-1.0038,-1.0024,-0.999,-0.9957,-1.0051,-1.0378,-1.046,-1.0548,-1.0663,-1.0555,-1.0534,-1.0622,-1.0507,-1.0507,-1.0622,0.0,-1.0643,-1.067,-1.067,-1.069,-1.0717,-1.0717,-1.0717,-1.0717,-1.0717,-1.0717,-1.0717,-1.0717,-1.0717,-1.0717,-1.0717,-1.0717,-1.0717,-1.0717,-1.0717,-1.0717,0.0,0.0,0.0,0.0,0.0,0.0,0.0,0.0,0.0,0.0,0.0,0.0,0.0,0.0,0.0,0.0,0.0,0.0,0.0,0.0,0.0,0.0,0.0,0.0,0.0,0.0,0.0,0.0,0.0,0.0,0.0,0.0,0.0,0.0,0.0,0.0,0.0,0.0,0.0,0.0,0.0,0.0,0.0,0.0,0.0,0.0,0.0,0.0,0.0,0.0,0.0,0.0,0.0,0.0,0.0,0.0,0.0,0.0,0.0,0.0,0.0,0.0,0.0,0.0,0.0,0.0,0.0,0.0,-0.1411,-0.3287,-0.5295,-0.5503,-0.5977,-0.7742,-0.7979,-0.8422,-1.0086,-1.0392,-1.0419,-1.0276,-1.0256,-1.0202,-1.0004,-0.9862,-0.991,-1.0017,-1.0337,-1.05,-1.0514,-1.05,-1.0439,-1.0324,-1.031,-1.0304,-1.0324,-1.0324,-1.0385,-1.0514,-1.0514,-1.0588,-1.0717,-1.0717,-1.0717,-1.0717,-1.0717,-1.0717,-1.0717,-1.0717,-1.0717,-1.0717,-1.0717,-1.0717,-1.0717,-1.0717,-1.0717,-1.0717,0.0,0.0,0.0,0.0,0.0,0.0,0.0,0.0,0.0,0.0,0.0,0.0,0.0,0.0,0.0,0.0,0.0,0.0,0.0,0.0,0.0,0.0,0.0,0.0,0.0,0.0,0.0,0.0,0.0,0.0,0.0,0.0,0.0,0.0,0.0,0.0,0.0,0.0,0.0,0.0,0.0,0.0,0.0,0.0,0.0,0.0,0.0,0.0,0.0,0.0,0.0,0.0,0.0,0.0,0.0,0.0,0.0,0.0,0.0,0.0,0.0,0.0,0.0,0.0,0.0,0.0,0.0,0.0,-0.0606,-0.1613,-0.3421,-0.3739,-0.4256,-0.6047,-0.6283,-0.6522,-0.7248,-0.8333,-0.8519,-0.7293,-0.9038,-0.9836,-0.8551,-0.929,-0.9883,-0.9977,-1.0098,-1.027,-1.0358,-1.0276,-1.0243,-1.0276,0.0,-1.0283,-1.0283,-1.046,-1.0527,-1.0493,-1.0582,-1.0663,-1.0717,-1.0717,-1.0717,-1.0717,-1.0717,-1.0717,-1.0717,-1.0717,-1.0717,-1.0717,-1.0717,-1.0717,-1.0717,-1.0717,-1.0717,-1.0717,0.0,0.0,0.0,0.0,0.0,0.0,0.0,0.0,0.0,0.0,0.0,0.0,0.0,0.0,0.0,0.0,0.0,0.0,0.0,0.0,0.0,0.0,0.0,0.0,0.0,0.0,0.0,0.0,0.0,0.0,0.0,0.0,0.0,0.0,0.0,0.0,0.0,0.0,0.0,0.0,0.0,0.0,0.0,0.0,0.0,0.0,0.0,0.0,0.0,0.0,0.0,0.0,0.0,0.0,0.0,0.0,0.0,0.0,0.0,0.0,0.0,0.0,0.0,0.0,0.0,0.0,0.0,0.0,0.0,-0.0404,-0.168,-0.1881,-0.2484,-0.4292,-0.4626,-0.476,-0.5295,-0.6431,-0.6925,-0.5977,-0.8028,-0.8937,-0.7603,-0.848,-0.8952,-0.8528,-0.8939,-0.9542,-1.0202,-1.0107,-1.008,0.0,0.0,0.0,-1.0215,-1.0419,-1.0514,-1.0493,-1.0561,-1.0636,-1.0717,-1.0717,-1.0717,-1.0717,-1.0717,-1.0717,-1.0717,-1.0717,-1.0717,-1.0717,-1.0717,-1.0717,-1.0717,-1.0717,-1.0717,-1.0717,0.0,0.0,0.0,0.0,0.0,0.0,0.0,0.0,0.0,0.0,0.0,0.0,0.0,0.0,0.0,0.0,0.0,0.0,0.0,0.0,0.0,0.0,0.0,0.0,0.0,0.0,0.0,0.0,0.0,0.0,0.0,0.0,0.0,0.0,0.0,0.0,0.0,0.0,0.0,0.0,0.0,0.0,0.0,0.0,0.0,0.0,0.0,0.0,0.0,0.0,0.0,0.0,0.0,0.0,0.0,0.0,0.0,0.0,0.0,0.0,0.0,0.0,0.0,0.0,0.0,0.0,0.0,0.0,0.0,0.0,0.0,0.0,-0.0605,-0.2417,-0.2752,-0.3354,-0.5162,-0.5429,-0.6,-0.7556,-0.7706,-0.7595,-0.7603,-0.749,-0.6728,-0.5077,-0.6496,-0.8156,-0.9921,-0.999,-0.9916,-0.9829,-0.9909,0.0,-0.999,-0.9997,-1.0139,-1.0487,-1.0351,-1.0439,-1.0717,-1.0717,-1.0717,-1.0717,-1.0717,-1.0717,-1.0717,-1.0717,-1.0717,-1.0717,-1.0717,-1.0717,-1.0717,-1.0717,-1.0717,-1.0717,0.0,0.0,0.0,0.0,0.0,0.0,0.0,0.0,0.0,0.0,0.0,0.0,0.0,0.0,0.0,0.0,0.0,0.0,0.0,0.0,0.0,0.0,0.0,0.0,0.0,0.0,0.0,0.0,0.0,0.0,0.0,0.0,0.0,0.0,0.0,0.0,0.0,0.0,0.0,0.0,0.0,0.0,0.0,0.0,0.0,0.0,0.0,0.0,0.0,0.0,0.0,0.0,0.0,0.0,0.0,0.0,0.0,0.0,0.0,0.0,0.0,0.0,0.0,0.0,0.0,0.0,0.0,0.0,0.0,0.0,0.0,0.0,-0.0202,-0.074,-0.0874,-0.1076,-0.1613,-0.2752,-0.327,-0.2567,-0.4535,-0.5425,-0.4219,-0.5064,-0.5965,-0.6553,-0.7079,-0.7614,-0.8217,-0.926,-0.9856,0.0,-1.0127,0.0,-1.0209,-1.0405,-1.05,-1.0493,-1.0555,-1.0629,-1.0717,-1.0717,-1.0717,-1.0717,-1.0717,-1.0717,-1.0717,-1.0717,-1.0717,-1.0717,-1.0717,-1.0717,-1.0717,-1.0717,-1.0717,-1.0717,0.0,0.0,0.0,0.0,0.0,0.0,0.0,0.0,0.0,0.0,0.0,0.0,0.0,0.0,0.0,0.0,0.0,0.0,0.0,0.0,0.0,0.0,0.0,0.0,0.0,0.0,0.0,0.0,0.0,0.0,0.0,0.0,0.0,0.0,0.0,0.0,0.0,0.0,0.0,0.0,0.0,0.0,0.0,0.0,0.0,0.0,0.0,0.0,0.0,0.0,0.0,0.0,0.0,0.0,0.0,0.0,0.0,0.0,0.0,0.0,0.0,0.0,0.0,0.0,0.0,0.0,0.0,0.0,0.0,0.0,0.0,0.0,0.0,0.0,0.0,0.0,0.0,-0.0941,-0.1468,-0.0982,-0.2793,-0.3665,-0.2586,-0.3413,-0.4164,-0.4565,-0.5227,-0.5556,-0.5589,-0.767,-0.8958,-0.91,-0.9241,-0.9659,-1.0358,-1.0487,-1.0561,-1.0575,-1.0677,-1.0717,-1.0717,-1.0717,-1.0717,-1.0717,-1.0717,-1.0717,-1.0717,-1.0717,-1.0717,-1.0717,-1.0717,-1.0717,-1.0717,-1.0717,-1.0717,-1.0717,0.0,0.0,0.0,0.0,0.0,0.0,0.0,0.0,0.0,0.0,0.0,0.0,0.0,0.0,0.0,0.0,0.0,0.0,0.0,0.0,0.0,0.0,0.0,0.0,0.0,0.0,0.0,0.0,0.0,0.0,0.0,0.0,0.0,0.0,0.0,0.0,0.0,0.0,0.0,0.0,0.0,0.0,0.0,0.0,0.0,0.0,0.0,0.0,0.0,0.0,0.0,0.0,0.0,0.0,0.0,0.0,0.0,0.0,0.0,0.0,0.0,0.0,0.0,0.0,0.0,0.0,0.0,0.0,0.0,0.0,0.0,0.0,0.0,0.0,0.0,0.0,0.0,0.0,-0.0598,-0.213,-0.2343,-0.2337,-0.2337,-0.2297,-0.1738,-0.0258,-0.1608,-0.249,-0.2522,0.0,-0.7178,-0.7416,-0.7526,-0.8478,-1.0305,-1.0172,-1.0303,-1.0704,-1.0704,-1.0711,-1.0717,-1.0717,-1.0717,-1.0717,-1.0717,-1.0717,-1.0717,-1.0717,-1.0717,-1.0717,-1.0717,-1.0717,-1.0717,-1.0717,-1.0717,-1.0717,0.0346,0.0,0.0,0.0,0.0,0.0,0.0,0.0,0.0,0.0,0.0,0.0,0.0,0.0,0.0,0.0,0.0,0.0,0.0,0.0,0.0,0.0,0.0,0.0,0.0,0.0,0.0,0.0,0.0,0.0,0.0,0.0,0.0,0.0,0.0,0.0,0.0,0.0,0.0,0.0,0.0,0.0,0.0,0.0,0.0,0.0,0.0,0.0,0.0,0.0,0.0,0.0,0.0,0.0,0.0,0.0,0.0,0.0,0.0,0.0,0.0,0.0,0.0,0.0,0.0,0.0,0.0,0.0,0.0,0.0,0.0,0.0,0.0,0.0,0.0,0.0,0.0,0.0,-0.0132,-0.0517,-0.0582,-0.0579,-0.0569,-0.0576,-0.0967,-0.1867,-0.2293,-0.2529,-0.252,-0.3262,-0.4281,-0.568,-0.5698,-0.6636,-0.859,-0.8475,-0.9104,-1.0548,-1.0548,-1.0609,-1.0717,-1.0717,-1.0717,-1.0717,-1.0717,-1.0717,-1.0717,-1.0717,-1.0717,-1.0717,-1.0717,-1.0717,-1.0717,-1.0717,-1.0717,-1.0717,0.1806,0.0692,0.0,0.0,0.0,0.0,0.0,0.0,0.0,0.0,0.0,0.0,0.0,0.0,0.0,0.0,0.0,0.0,0.0,0.0,0.0,0.0,0.0,0.0,0.0,0.0,0.0,0.0,0.0,0.0,0.0,0.0,0.0,0.0,0.0,0.0,0.0,0.0,0.0,0.0,0.0,0.0,0.0,0.0,0.0,0.0,0.0,0.0,0.0,0.0,0.0,0.0,0.0,0.0,0.0,0.0,0.0,0.0,0.0,0.0,0.0,0.0,0.0,0.0,0.0,0.0,0.0,0.0,0.0,0.0,0.0,0.0,0.0,0.0,0.0,0.0,0.0,0.0,0.0,0.0,0.0,0.0,0.0,0.0,-0.0393,-0.1289,-0.1351,-0.1343,-0.1388,-0.1341,-0.2186,-0.3917,-0.3974,-0.4938,-0.6766,-0.7457,-0.8312,-0.9285,-1.0129,-1.0575,-1.0717,-1.0717,-1.0717,-1.0717,-1.0717,-1.0717,-1.0717,-1.0717,-1.0717,-1.0717,-1.0717,-1.0717,-1.0717,-1.0717,-1.0717,-1.0717,0.396,0.2331,0.0868,0.0527,0.0533,0.0358,0.009,0.0,0.0,0.0,0.0,0.0,0.0,0.0,0.0,0.0,0.0,0.0,0.0,0.0,0.0,0.0,0.0,0.0,0.0,0.0,0.0,0.0,0.0,0.0,0.0,0.0,0.0,0.0,0.0,0.0,0.0,0.0,0.0,0.0,0.0,0.0,0.0,0.0,0.0,0.0,0.0,0.0,0.0,0.0,0.0,0.0,0.0,0.0,0.0,0.0,0.0,0.0,0.0,0.0,0.0,0.0,0.0,0.0,0.0,0.0,0.0,0.0,0.0,0.0,0.0,0.0,0.0,0.0,0.0,0.0,0.0,0.0,0.0,0.0,0.0,0.0,0.0,0.0,0.0,0.0,0.0,0.0,0.0,0.0,-0.072,-0.2259,-0.229,-0.3161,-0.4922,-0.6868,-0.7794,-0.7794,-0.9645,-1.0575,-1.0717,-1.0717,-1.0717,-1.0717,-1.0717,-1.0717,-1.0717,-1.0717,-1.0717,-1.0717,-1.0717,-1.0717,-1.0717,-1.0717,-1.0717,-1.0717,0.6566,0.5897,0.5087,0.3118,0.2785,0.2193,0.0268,0.0,0.0,0.0,0.0,0.0,0.0,0.0,0.0,0.0,0.0,0.0,0.0,0.0,0.0,0.0,0.0,0.0,0.0,0.0,0.0,0.0,0.0,0.0,0.0,0.0,0.0,0.0,0.0,0.0,0.0,0.0,0.0,0.0,0.0,0.0,0.0,0.0,0.0,0.0,0.0,0.0,0.0,0.0,0.0,0.0,0.0,0.0,0.0,0.0,0.0,0.0,0.0,0.0,0.0,0.0,0.0,0.0,0.0,0.0,0.0,0.0,0.0,0.0,0.0,0.0,0.0,0.0,0.0,0.0,0.0,0.0,0.0,0.0,0.0,0.0,0.0,0.0,0.0,0.0,0.0,0.0,0.0,0.0,-0.0132,-0.0394,-0.0399,-0.1265,-0.2956,-0.6153,-0.7782,-0.7847,-0.963,-1.0575,-1.0717,-1.0717,-1.0717,-1.0717,-1.0717,-1.0717,-1.0717,-1.0717,-1.0717,-1.0717,-1.0717,-1.0717,-1.0717,-1.0717,-1.0717,-1.0717,0.8716,0.7489,0.6359,0.5314,0.5199,0.4461,0.2113,0.1834,0.1473,0.0173,0.0,0.0,0.0,0.0,0.0,0.0,0.0,0.0,0.0,0.0,0.0,0.0,0.0,0.0,0.0,0.0,0.0,0.0,0.0,0.0,0.0,0.0,0.0,0.0,0.0,0.0,0.0,0.0,0.0,0.0,0.0,0.0,0.0,0.0,0.0,0.0,0.0,0.0,0.0,0.0,0.0,0.0,0.0,0.0,0.0,0.0,0.0,0.0,0.0,0.0,0.0,0.0,0.0,0.0,0.0,0.0,0.0,0.0,0.0,0.0,0.0,0.0,0.0,0.0,0.0,0.0,0.0,0.0,0.0,0.0,0.0,0.0,0.0,0.0,0.0,0.0,0.0,0.0,0.0,0.0,0.0,0.0,0.0,-0.0398,-0.1118,-0.3649,-0.5014,-0.5053,-0.7737,-0.9115,-0.9305,-1.0246,-1.0717,-1.0717,-1.0717,-1.0717,-1.0717,-1.0717,-1.0717,-1.0717,-1.0717,-1.0717,-1.0717,-1.0717,-1.0717,-1.0717,1.0815,0.944,0.8065,0.7577,0.7597,0.6882,0.4422,0.3805,0.2843,0.1028,0.0339,0.0,0.0,0.0,0.0,0.0,0.0,0.0,0.0,0.0,0.0,0.0,0.0,0.0,0.0,0.0,0.0,0.0,0.0,0.0,0.0,0.0,0.0,0.0,0.0,0.0,0.0,0.0,0.0,0.0,0.0,0.0,0.0,0.0,0.0,0.0,0.0,0.0,0.0,0.0,0.0,0.0,0.0,0.0,0.0,0.0,0.0,0.0,0.0,0.0,0.0,0.0,0.0,0.0,0.0,0.0,0.0,0.0,0.0,0.0,0.0,0.0,0.0,0.0,0.0,0.0,0.0,0.0,0.0,0.0,0.0,0.0,0.0,0.0,0.0,0.0,0.0,0.0,0.0,0.0,0.0,0.0,0.0,0.0,0.0,-0.1699,-0.2612,-0.2707,-0.5803,-0.7488,-0.803,-0.9437,-1.0313,-1.0717,-1.0717,-1.0717,-1.0717,-1.0717,-1.0717,-1.0717,-1.0717,-1.0717,-1.0717,-1.0717,-1.0717,-1.0717,1.3148,1.2989,1.2278,1.0197,0.9889,0.9072,0.6832,0.4641,0.3246,0.3073,0.1271,0.0,0.0,0.0,0.0,0.0,0.0,0.0,0.0,0.0,0.0,0.0,0.0,0.0,0.0,0.0,0.0,0.0,0.0,0.0,0.0,0.0,0.0,0.0,0.0,0.0,0.0,0.0,0.0,0.0,0.0,0.0,0.0,0.0,0.0,0.0,0.0,0.0,0.0,0.0,0.0,0.0,0.0,0.0,0.0,0.0,0.0,0.0,0.0,0.0,0.0,0.0,0.0,0.0,0.0,0.0,0.0,0.0,0.0,0.0,0.0,0.0,0.0,0.0,0.0,0.0,0.0,0.0,0.0,0.0,0.0,0.0,0.0,0.0,0.0,0.0,0.0,0.0,0.0,0.0,0.0,0.0,0.0,0.0,0.0,-0.1809,-0.2678,-0.2747,-0.4687,-0.6423,-0.803,-0.8163,-0.9105,-1.0717,-1.0717,-1.0717,-1.0717,-1.0717,-1.0717,-1.0717,-1.0717,-1.0717,-1.0717,-1.0717,-1.0717,-1.0717,1.3403,1.3403,1.3168,1.2297,1.2203,1.148,0.9075,0.6884,0.5015,0.3465,0.1349,0.0,0.0,0.0,0.0,0.0,0.0,0.0,0.0,0.0,0.0,0.0,0.0,0.0,0.0,0.0,0.0,0.0,0.0,0.0,0.0,0.0,0.0,0.0,0.0,0.0,0.0,0.0,0.0,0.0,0.0,0.0,0.0,0.0,0.0,0.0,0.0,0.0,0.0,0.0,0.0,0.0,0.0,0.0,0.0,0.0,0.0,0.0,0.0,0.0,0.0,0.0,0.0,0.0,0.0,0.0,0.0,0.0,0.0,0.0,0.0,0.0,0.0,0.0,0.0,0.0,0.0,0.0,0.0,0.0,0.0,0.0,0.0,0.0,0.0,0.0,0.0,0.0,0.0,0.0,0.0,0.0,0.0,0.0,0.0,-0.0672,-0.1009,-0.1076,-0.2887,-0.4091,-0.4757,-0.5893,-0.7365,-0.9039,-0.9039,-0.9643,-1.0717,-1.0717,-1.0717,-1.0717,-1.0717,-1.0717,-1.0717,-1.0717,-1.0717,-1.0717,1.3403,1.3403,1.3403,1.3403,1.3485,1.301,1.1314,0.9268,0.7007,0.47,0.2436,0.0757,0.0084,0.0,0.0,0.0,0.0,0.0,0.0,0.0,0.0,0.0,0.0,0.0,0.0,0.0,0.0,0.0,0.0,0.0,0.0,0.0,0.0,0.0,0.0,0.0,0.0,0.0,0.0,0.0,0.0,0.0,0.0,0.0,0.0,0.0,0.0,0.0,0.0,0.0,0.0,0.0,0.0,0.0,0.0,0.0,0.0,0.0,0.0,0.0,0.0,0.0,0.0,0.0,0.0,0.0,0.0,0.0,0.0,0.0,0.0,0.0,0.0,0.0,0.0,0.0,0.0,0.0,0.0,0.0,0.0,0.0,0.0,0.0,0.0,0.0,0.0,0.0,0.0,0.0,0.0,0.0,0.0,0.0,0.0,0.0,0.0,0.0,-0.1277,-0.2148,-0.2752,-0.3957,-0.5496,-0.7231,-0.7764,-0.8701,-0.9908,-1.0452,-1.0717,-1.0717,-1.0717,-1.0717,-1.0717,-1.0717,-1.0717,-1.0717,1.3403,1.3403,1.3403,1.3403,1.3403,1.3403,1.3403,1.1469,0.9207,0.7034,0.4779,0.252,0.0253,0.0,0.0,0.0,0.0,0.0,0.0,0.0,0.0,0.0,0.0,0.0,0.0,0.0,0.0,0.0,0.0,0.0,0.0,0.0,0.0,0.0,0.0,0.0,0.0,0.0,0.0,0.0,0.0,0.0,0.0,0.0,0.0,0.0,0.0,0.0,0.0,0.0,0.0,0.0,0.0,0.0,0.0,0.0,0.0,0.0,0.0,0.0,0.0,0.0,0.0,0.0,0.0,0.0,0.0,0.0,0.0,0.0,0.0,0.0,0.0,0.0,0.0,0.0,0.0,0.0,0.0,0.0,0.0,0.0,0.0,0.0,0.0,0.0,0.0,0.0,0.0,0.0,0.0,0.0,0.0,0.0,0.0,0.0,0.0,0.0,0.0,-0.0941,-0.2685,-0.2685,-0.3689,-0.5496,-0.7231,-0.7964,-0.8163,-0.9915,-1.0717,-1.0717,-1.0717,-1.0717,-1.0717,-1.0717,-1.0717,-1.0717,1.3403,1.3403,1.3403,1.3403,1.3403,1.3403,1.3403,1.1469,0.9795,0.9124,0.57,0.3107,0.2436,0.0925,0.0,0.0,0.0,0.0,0.0,0.0,0.0,0.0,0.0,0.0,0.0,0.0,0.0,0.0,0.0,0.0,0.0,0.0,0.0,0.0,0.0,0.0,0.0,0.0,0.0,0.0,0.0,0.0,0.0,0.0,0.0,0.0,0.0,0.0,0.0,0.0,0.0,0.0,0.0,0.0,0.0,0.0,0.0,0.0,0.0,0.0,0.0,0.0,0.0,0.0,0.0,0.0,0.0,0.0,0.0,0.0,0.0,0.0,0.0,0.0,0.0,0.0,0.0,0.0,0.0,0.0,0.0,0.0,0.0,0.0,0.0,0.0,0.0,0.0,0.0,0.0,0.0,0.0,0.0,0.0,0.0,0.0,0.0,0.0,0.0,-0.0269,-0.0807,-0.0807,-0.1814,-0.3555,-0.4024,-0.5693,-0.803,-0.8568,-0.9576,-1.0717,-1.0717,-1.0717,-1.0717,-1.0717,-1.0717,-1.0717,1.3403,1.3403,1.3403,1.3403,1.3403,1.3403,1.3403,1.2222,1.1048,1.0128,0.7706,0.57,0.4779,0.3441,0.2268,0.1345,0.0505,0.0,0.0,0.0,0.0,0.0,0.0,0.0,0.0,0.0,0.0,0.0,0.0,0.0,0.0,0.0,0.0,0.0,0.0,0.0,0.0,0.0,0.0,0.0,0.0,0.0,0.0,0.0,0.0,0.0,0.0,0.0,0.0,0.0,0.0,0.0,0.0,0.0,0.0,0.0,0.0,0.0,0.0,0.0,0.0,0.0,0.0,0.0,0.0,0.0,0.0,0.0,0.0,0.0,0.0,0.0,0.0,0.0,0.0,0.0,0.0,0.0,0.0,0.0,0.0,0.0,0.0,0.0,0.0,0.0,0.0,0.0,0.0,0.0,0.0,0.0,0.0,0.0,0.0,0.0,0.0,0.0,0.0,0.0,0.0,0.0,-0.0606,-0.168,-0.2417,-0.389,-0.6027,-0.7426,-0.8634,-0.9709,-1.0452,-1.0717,-1.0717,-1.0717,-1.0717,-1.0717,1.3403,1.3403,1.3403,1.3403,1.3403,1.3403,1.3403,1.3403,1.2644,1.0632,1.0128,0.9207,0.7201,0.6784,0.5784,0.3524,0.1262,0.0,0.0,0.0,0.0,0.0,0.0,0.0,0.0,0.0,0.0,0.0,0.0,0.0,0.0,0.0,0.0,0.0,0.0,0.0,0.0,0.0,0.0,0.0,0.0,0.0,0.0,0.0,0.0,0.0,0.0,0.0,0.0,0.0,0.0,0.0,0.0,0.0,0.0,0.0,0.0,0.0,0.0,0.0,0.0,0.0,0.0,0.0,0.0,0.0,0.0,0.0,0.0,0.0,0.0,0.0,0.0,0.0,0.0,0.0,0.0,0.0,0.0,0.0,0.0,0.0,0.0,0.0,0.0,0.0,0.0,0.0,0.0,0.0,0.0,0.0,0.0,0.0,0.0,0.0,0.0,0.0,0.0,0.0,0.0,0.0,0.0,-0.0067,-0.1747,-0.2551,-0.2954,-0.636,-0.7831,-0.8163,-0.9981,-1.0717,-1.0717,-1.0717,-1.0717,-1.0717,1.3403,1.3403,1.3403,1.3403,1.3403,1.3403,1.3403,1.3403,1.3231,1.2727,1.1131,0.9878,0.9378,0.7789,0.5784,0.3524,0.1262,0.0,0.0,0.0,0.0,0.0,0.0,0.0,0.0,0.0,0.0,0.0,0.0,0.0,0.0,0.0,0.0,0.0,0.0,0.0,0.0,0.0,0.0,0.0,0.0,0.0,0.0,0.0,0.0,0.0,0.0,0.0,0.0,0.0,0.0,0.0,0.0,0.0,0.0,0.0,0.0,0.0,0.0,0.0,0.0,0.0,0.0,0.0,0.0,0.0,0.0,0.0,0.0,0.0,0.0,0.0,0.0,0.0,0.0,0.0,0.0,0.0,0.0,0.0,0.0,0.0,0.0,0.0,0.0,0.0,0.0,0.0,0.0,0.0,0.0,0.0,0.0,0.0,0.0,0.0,0.0,0.0,0.0,0.0,0.0,0.0,0.0,0.0,-0.0404,-0.1411,-0.2887,-0.5095,-0.6765,-0.8163,-0.9981,-1.0717,-1.0717,-1.0717,-1.0717,-1.0717,1.3403,1.3403,1.3403,1.3403,1.3403,1.3403,1.3403,1.3403,1.3403,1.3403,1.2388,1.1635,1.1635,1.0632,0.8957,0.6703,0.3524,0.1597,0.1597,0.0589,0.0,0.0,0.0,0.0,0.0,0.0,0.0,0.0,0.0,0.0,0.0,0.0,0.0,0.0,0.0,0.0,0.0,0.0,0.0,0.0,0.0,0.0,0.0,0.0,0.0,0.0,0.0,0.0,0.0,0.0,0.0,0.0,0.0,0.0,0.0,0.0,0.0,0.0,0.0,0.0,0.0,0.0,0.0,0.0,0.0,0.0,0.0,0.0,0.0,0.0,0.0,0.0,0.0,0.0,0.0,0.0,0.0,0.0,0.0,0.0,0.0,0.0,0.0,0.0,0.0,0.0,0.0,0.0,0.0,0.0,0.0,0.0,0.0,0.0,0.0,0.0,0.0,0.0,0.0,0.0,0.0,0.0,0.0,0.0,0.0,-0.0538,-0.1545,-0.3354,-0.4626,-0.5759,-0.8368,-0.9443,-0.951,-1.0386,-1.0717,-1.0717,1.3403,1.3403,1.3403,1.3403,1.3403,1.3403,1.3403,1.3403,1.3403,1.3403,1.3403,1.3403,1.3403,1.3065,1.2056,1.0299,0.6369,0.3776,0.3357,0.1597,0.0421,0.0,0.0,0.0,0.0,0.0,0.0,0.0,0.0,0.0,0.0,0.0,0.0,0.0,0.0,0.0,0.0,0.0,0.0,0.0,0.0,0.0,0.0,0.0,0.0,0.0,0.0,0.0,0.0,0.0,0.0,0.0,0.0,0.0,0.0,0.0,0.0,0.0,0.0,0.0,0.0,0.0,0.0,0.0,0.0,0.0,0.0,0.0,0.0,0.0,0.0,0.0,0.0,0.0,0.0,0.0,0.0,0.0,0.0,0.0,0.0,0.0,0.0,0.0,0.0,0.0,0.0,0.0,0.0,0.0,0.0,0.0,0.0,0.0,0.0,0.0,0.0,0.0,0.0,0.0,0.0,0.0,0.0,0.0,0.0,0.0,-0.0135,-0.1948,-0.2685,-0.3021,-0.6293,-0.7564,-0.7764,-0.9576,-1.0452,-1.0717,1.3403,1.3403,1.3403,1.3403,1.3403,1.3403,1.3403,1.3403,1.3403,1.3403,1.3403,1.3403,1.3403,1.1635,1.0377,1.0128,0.7706,0.5449,0.3441,0.3023,0.2016,0.0084,0.0,0.0,0.0,0.0,0.0,0.0,0.0,0.0,0.0,0.0,0.0,0.0,0.0,0.0,0.0,0.0,0.0,0.0,0.0,0.0,0.0,0.0,0.0,0.0,0.0,0.0,0.0,0.0,0.0,0.0,0.0,0.0,0.0,0.0,0.0,0.0,0.0,0.0,0.0,0.0,0.0,0.0,0.0,0.0,0.0,0.0,0.0,0.0,0.0,0.0,0.0,0.0,0.0,0.0,0.0,0.0,0.0,0.0,0.0,0.0,0.0,0.0,0.0,0.0,0.0,0.0,0.0,0.0,0.0,0.0,0.0,0.0,0.0,0.0,0.0,0.0,0.0,0.0,0.0,0.0,0.0,0.0,0.0,0.0,-0.0135,-0.1948,-0.2685,-0.2887,-0.4961,-0.5763,-0.5964,-0.7698,-0.9371,-1.0717,1.3403,1.3403,1.3403,1.3403,1.3403,1.3403,1.3403,1.3403,1.3403,1.3403,1.3403,1.3403,1.3403,1.2478,1.189,1.1973,0.9878,0.8207,0.7201,0.4779,0.2939,0.1849,0.0673,0.0,0.0,0.0,0.0,0.0,0.0,0.0,0.0,0.0,0.0,0.0,0.0,0.0,0.0,0.0,0.0,0.0,0.0,0.0,0.0,0.0,0.0,0.0,0.0,0.0,0.0,0.0,0.0,0.0,0.0,0.0,0.0,0.0,0.0,0.0,0.0,0.0,0.0,0.0,0.0,0.0,0.0,0.0,0.0,0.0,0.0,0.0,0.0,0.0,0.0,0.0,0.0,0.0,0.0,0.0,0.0,0.0,0.0,0.0,0.0,0.0,0.0,0.0,0.0,0.0,0.0,0.0,0.0,0.0,0.0,0.0,0.0,0.0,0.0,0.0,0.0,0.0,0.0,0.0,0.0,0.0,0.0,0.0,-0.0067,-0.0874,-0.121,-0.1344,-0.3153,-0.5095,-0.6965,-0.7698,-0.8501,-0.9305]}]]